<?xml version="1.0" encoding="UTF-8" standalone="no" ?><gpx xmlns="http://www.topografix.com/GPX/1/1" xmlns:gpxx="http://www.garmin.com/xmlschemas/GpxExtensions/v3" xmlns:wptx1="http://www.garmin.com/xmlschemas/WaypointExtension/v1" xmlns:gpxtpx="http://www.garmin.com/xmlschemas/TrackPointExtension/v1" creator="eTrex 30" version="1.1" xmlns:xsi="http://www.w3.org/2001/XMLSchema-instance" xsi:schemaLocation="http://www.topografix.com/GPX/1/1 http://www.topografix.com/GPX/1/1/gpx.xsd http://www.garmin.com/xmlschemas/GpxExtensions/v3 http://www8.garmin.com/xmlschemas/GpxExtensionsv3.xsd http://www.garmin.com/xmlschemas/WaypointExtension/v1 http://www8.garmin.com/xmlschemas/WaypointExtensionv1.xsd http://www.garmin.com/xmlschemas/TrackPointExtension/v1 http://www.garmin.com/xmlschemas/TrackPointExtensionv1.xsd"><metadata><link href="http://www.garmin.com"><text>Garmin International</text></link><time>2015-11-27T16:16:03Z</time></metadata><trk><name>27-NOV-15 18:15:59</name><extensions><gpxx:TrackExtension><gpxx:DisplayColor>Cyan</gpxx:DisplayColor></gpxx:TrackExtension></extensions><trkseg><trkpt lat="29.6403090376" lon="35.4341783188"><ele>825.43</ele><time>2015-11-27T07:43:40Z</time></trkpt><trkpt lat="29.6402999852" lon="35.4341908917"><ele>828.79</ele><time>2015-11-27T07:43:48Z</time></trkpt><trkpt lat="29.6403039247" lon="35.4341862816"><ele>832.16</ele><time>2015-11-27T07:43:53Z</time></trkpt><trkpt lat="29.6403097082" lon="35.4341799114"><ele>832.64</ele><time>2015-11-27T07:43:55Z</time></trkpt><trkpt lat="29.6403106302" lon="35.4341758043"><ele>833.60</ele><time>2015-11-27T07:43:57Z</time></trkpt><trkpt lat="29.6403147373" lon="35.4341761395"><ele>836.48</ele><time>2015-11-27T07:44:07Z</time></trkpt><trkpt lat="29.6403122228" lon="35.4341784865"><ele>839.37</ele><time>2015-11-27T07:44:30Z</time></trkpt><trkpt lat="29.6403151564" lon="35.4341806658"><ele>842.25</ele><time>2015-11-27T07:44:56Z</time></trkpt><trkpt lat="29.6403059363" lon="35.4341555201"><ele>842.25</ele><time>2015-11-27T07:45:02Z</time></trkpt><trkpt lat="29.6404232830" lon="35.4340611398"><ele>841.29</ele><time>2015-11-27T07:45:19Z</time></trkpt><trkpt lat="29.6404700540" lon="35.4340221640"><ele>840.81</ele><time>2015-11-27T07:45:35Z</time></trkpt><trkpt lat="29.6404655278" lon="35.4340031371"><ele>840.81</ele><time>2015-11-27T07:46:01Z</time></trkpt><trkpt lat="29.6404553019" lon="35.4339798354"><ele>840.81</ele><time>2015-11-27T07:46:07Z</time></trkpt><trkpt lat="29.6403619274" lon="35.4339689389"><ele>841.77</ele><time>2015-11-27T07:46:15Z</time></trkpt><trkpt lat="29.6403361112" lon="35.4339842778"><ele>841.77</ele><time>2015-11-27T07:46:17Z</time></trkpt><trkpt lat="29.6400326025" lon="35.4340017121"><ele>844.18</ele><time>2015-11-27T07:46:34Z</time></trkpt><trkpt lat="29.6397353802" lon="35.4339751415"><ele>846.10</ele><time>2015-11-27T07:46:50Z</time></trkpt><trkpt lat="29.6397239808" lon="35.4339536838"><ele>846.10</ele><time>2015-11-27T07:47:02Z</time></trkpt><trkpt lat="29.6397038642" lon="35.4339524265"><ele>846.10</ele><time>2015-11-27T07:47:04Z</time></trkpt><trkpt lat="29.6396920457" lon="35.4339502472"><ele>846.10</ele><time>2015-11-27T07:47:05Z</time></trkpt><trkpt lat="29.6395318676" lon="35.4338994529"><ele>845.62</ele><time>2015-11-27T07:47:21Z</time></trkpt><trkpt lat="29.6394935623" lon="35.4338521790"><ele>846.10</ele><time>2015-11-27T07:47:33Z</time></trkpt><trkpt lat="29.6394837555" lon="35.4338386841"><ele>846.10</ele><time>2015-11-27T07:47:49Z</time></trkpt><trkpt lat="29.6395047940" lon="35.4338670149"><ele>845.62</ele><time>2015-11-27T07:48:18Z</time></trkpt><trkpt lat="29.6394826658" lon="35.4338431265"><ele>845.62</ele><time>2015-11-27T07:48:51Z</time></trkpt><trkpt lat="29.6394847613" lon="35.4338481557"><ele>845.62</ele><time>2015-11-27T07:49:27Z</time></trkpt><trkpt lat="29.6394885331" lon="35.4338515922"><ele>846.10</ele><time>2015-11-27T07:49:59Z</time></trkpt><trkpt lat="29.6395027824" lon="35.4338438809"><ele>846.10</ele><time>2015-11-27T07:50:26Z</time></trkpt><trkpt lat="29.6394816600" lon="35.4338432103"><ele>846.10</ele><time>2015-11-27T07:50:28Z</time></trkpt><trkpt lat="29.6394314524" lon="35.4338265304"><ele>846.10</ele><time>2015-11-27T07:50:32Z</time></trkpt><trkpt lat="29.6394162811" lon="35.4338306375"><ele>846.10</ele><time>2015-11-27T07:50:33Z</time></trkpt><trkpt lat="29.6394012775" lon="35.4338299669"><ele>846.10</ele><time>2015-11-27T07:50:34Z</time></trkpt><trkpt lat="29.6393871121" lon="35.4338226747"><ele>846.10</ele><time>2015-11-27T07:50:35Z</time></trkpt><trkpt lat="29.6393725276" lon="35.4338167235"><ele>846.10</ele><time>2015-11-27T07:50:36Z</time></trkpt><trkpt lat="29.6393539198" lon="35.4338131193"><ele>846.10</ele><time>2015-11-27T07:50:37Z</time></trkpt><trkpt lat="29.6390674263" lon="35.4337185714"><ele>845.62</ele><time>2015-11-27T07:50:49Z</time></trkpt><trkpt lat="29.6386200003" lon="35.4335437249"><ele>845.62</ele><time>2015-11-27T07:51:04Z</time></trkpt><trkpt lat="29.6380626038" lon="35.4333160724"><ele>846.58</ele><time>2015-11-27T07:51:20Z</time></trkpt><trkpt lat="29.6373259183" lon="35.4330166709"><ele>846.58</ele><time>2015-11-27T07:51:38Z</time></trkpt><trkpt lat="29.6365350019" lon="35.4327051155"><ele>848.02</ele><time>2015-11-27T07:51:56Z</time></trkpt><trkpt lat="29.6355513856" lon="35.4323188774"><ele>848.98</ele><time>2015-11-27T07:52:17Z</time></trkpt><trkpt lat="29.6346257720" lon="35.4319635686"><ele>849.94</ele><time>2015-11-27T07:52:37Z</time></trkpt><trkpt lat="29.6344513446" lon="35.4319029674"><ele>850.42</ele><time>2015-11-27T07:52:41Z</time></trkpt><trkpt lat="29.6344109438" lon="35.4318831861"><ele>850.42</ele><time>2015-11-27T07:52:42Z</time></trkpt><trkpt lat="29.6343687829" lon="35.4318669252"><ele>850.42</ele><time>2015-11-27T07:52:43Z</time></trkpt><trkpt lat="29.6334870905" lon="35.4315096885"><ele>852.35</ele><time>2015-11-27T07:53:03Z</time></trkpt><trkpt lat="29.6329572704" lon="35.4313019011"><ele>853.31</ele><time>2015-11-27T07:53:15Z</time></trkpt><trkpt lat="29.6329127625" lon="35.4312835447"><ele>853.31</ele><time>2015-11-27T07:53:16Z</time></trkpt><trkpt lat="29.6325156279" lon="35.4311360233"><ele>854.27</ele><time>2015-11-27T07:53:25Z</time></trkpt><trkpt lat="29.6320792660" lon="35.4309713189"><ele>855.23</ele><time>2015-11-27T07:53:35Z</time></trkpt><trkpt lat="29.6312298439" lon="35.4306440894"><ele>857.15</ele><time>2015-11-27T07:53:54Z</time></trkpt><trkpt lat="29.6304070763" lon="35.4303228110"><ele>858.59</ele><time>2015-11-27T07:54:12Z</time></trkpt><trkpt lat="29.6296111308" lon="35.4300108366"><ele>859.08</ele><time>2015-11-27T07:54:29Z</time></trkpt><trkpt lat="29.6288348828" lon="35.4297051486"><ele>860.04</ele><time>2015-11-27T07:54:45Z</time></trkpt><trkpt lat="29.6279846225" lon="35.4293721355"><ele>861.00</ele><time>2015-11-27T07:55:02Z</time></trkpt><trkpt lat="29.6276952792" lon="35.4292618297"><ele>861.48</ele><time>2015-11-27T07:55:08Z</time></trkpt><trkpt lat="29.6267791372" lon="35.4288988095"><ele>862.44</ele><time>2015-11-27T07:55:27Z</time></trkpt><trkpt lat="29.6257572994" lon="35.4284944665"><ele>863.40</ele><time>2015-11-27T07:55:48Z</time></trkpt><trkpt lat="29.6249255631" lon="35.4281725176"><ele>863.88</ele><time>2015-11-27T07:56:05Z</time></trkpt><trkpt lat="29.6238868777" lon="35.4277759697"><ele>864.84</ele><time>2015-11-27T07:56:26Z</time></trkpt><trkpt lat="29.6227333602" lon="35.4273712076"><ele>865.80</ele><time>2015-11-27T07:56:48Z</time></trkpt><trkpt lat="29.6217274480" lon="35.4271997139"><ele>865.80</ele><time>2015-11-27T07:57:06Z</time></trkpt><trkpt lat="29.6205580048" lon="35.4271105304"><ele>868.21</ele><time>2015-11-27T07:57:28Z</time></trkpt><trkpt lat="29.6196889691" lon="35.4270713869"><ele>870.61</ele><time>2015-11-27T07:57:47Z</time></trkpt><trkpt lat="29.6188315004" lon="35.4270440619"><ele>873.01</ele><time>2015-11-27T07:58:07Z</time></trkpt><trkpt lat="29.6180861816" lon="35.4270209279"><ele>874.94</ele><time>2015-11-27T07:58:26Z</time></trkpt><trkpt lat="29.6173893102" lon="35.4269923456"><ele>877.34</ele><time>2015-11-27T07:58:44Z</time></trkpt><trkpt lat="29.6167664509" lon="35.4269592371"><ele>879.26</ele><time>2015-11-27T07:59:00Z</time></trkpt><trkpt lat="29.6162649617" lon="35.4269093648"><ele>881.19</ele><time>2015-11-27T07:59:13Z</time></trkpt><trkpt lat="29.6162244771" lon="35.4269017372"><ele>881.67</ele><time>2015-11-27T07:59:14Z</time></trkpt><trkpt lat="29.6155207325" lon="35.4268127214"><ele>884.07</ele><time>2015-11-27T07:59:31Z</time></trkpt><trkpt lat="29.6148979571" lon="35.4267287347"><ele>886.47</ele><time>2015-11-27T07:59:47Z</time></trkpt><trkpt lat="29.6141966432" lon="35.4266258050"><ele>888.40</ele><time>2015-11-27T08:00:06Z</time></trkpt><trkpt lat="29.6132926550" lon="35.4264916945"><ele>889.84</ele><time>2015-11-27T08:00:26Z</time></trkpt><trkpt lat="29.6124576498" lon="35.4263787065"><ele>890.80</ele><time>2015-11-27T08:00:43Z</time></trkpt><trkpt lat="29.6117119119" lon="35.4262637068"><ele>891.76</ele><time>2015-11-27T08:00:58Z</time></trkpt><trkpt lat="29.6105698776" lon="35.4260967392"><ele>892.24</ele><time>2015-11-27T08:01:18Z</time></trkpt><trkpt lat="29.6095314436" lon="35.4259508941"><ele>895.12</ele><time>2015-11-27T08:01:38Z</time></trkpt><trkpt lat="29.6089173015" lon="35.4258886166"><ele>896.09</ele><time>2015-11-27T08:01:51Z</time></trkpt><trkpt lat="29.6079676319" lon="35.4257935658"><ele>897.05</ele><time>2015-11-27T08:02:10Z</time></trkpt><trkpt lat="29.6070854366" lon="35.4257299472"><ele>899.45</ele><time>2015-11-27T08:02:28Z</time></trkpt><trkpt lat="29.6064546145" lon="35.4256327171"><ele>900.89</ele><time>2015-11-27T08:02:41Z</time></trkpt><trkpt lat="29.6062691230" lon="35.4255272727"><ele>900.89</ele><time>2015-11-27T08:02:45Z</time></trkpt><trkpt lat="29.6062293928" lon="35.4254930746"><ele>901.37</ele><time>2015-11-27T08:02:46Z</time></trkpt><trkpt lat="29.6057398058" lon="35.4249202553"><ele>903.30</ele><time>2015-11-27T08:03:01Z</time></trkpt><trkpt lat="29.6057153307" lon="35.4248813633"><ele>903.30</ele><time>2015-11-27T08:03:02Z</time></trkpt><trkpt lat="29.6056921128" lon="35.4248432256"><ele>903.30</ele><time>2015-11-27T08:03:03Z</time></trkpt><trkpt lat="29.6053528972" lon="35.4244165868"><ele>905.70</ele><time>2015-11-27T08:03:16Z</time></trkpt><trkpt lat="29.6052175295" lon="35.4242515471"><ele>906.18</ele><time>2015-11-27T08:03:21Z</time></trkpt><trkpt lat="29.6048384160" lon="35.4238619562"><ele>907.14</ele><time>2015-11-27T08:03:33Z</time></trkpt><trkpt lat="29.6047202311" lon="35.4237623792"><ele>907.14</ele><time>2015-11-27T08:03:36Z</time></trkpt><trkpt lat="29.6046763938" lon="35.4237331264"><ele>907.62</ele><time>2015-11-27T08:03:37Z</time></trkpt><trkpt lat="29.6038756706" lon="35.4232858680"><ele>909.54</ele><time>2015-11-27T08:03:56Z</time></trkpt><trkpt lat="29.6029731072" lon="35.4230040684"><ele>910.03</ele><time>2015-11-27T08:04:14Z</time></trkpt><trkpt lat="29.6020193305" lon="35.4228035733"><ele>911.95</ele><time>2015-11-27T08:04:32Z</time></trkpt><trkpt lat="29.6012499556" lon="35.4226565547"><ele>913.87</ele><time>2015-11-27T08:04:48Z</time></trkpt><trkpt lat="29.6001951769" lon="35.4224648606"><ele>916.27</ele><time>2015-11-27T08:05:10Z</time></trkpt><trkpt lat="29.5993160829" lon="35.4223055206"><ele>918.68</ele><time>2015-11-27T08:05:29Z</time></trkpt><trkpt lat="29.5984300319" lon="35.4221585859"><ele>921.08</ele><time>2015-11-27T08:05:49Z</time></trkpt><trkpt lat="29.5976536162" lon="35.4220009223"><ele>921.08</ele><time>2015-11-27T08:06:05Z</time></trkpt><trkpt lat="29.5965817384" lon="35.4217991699"><ele>923.00</ele><time>2015-11-27T08:06:25Z</time></trkpt><trkpt lat="29.5959442109" lon="35.4216829967"><ele>925.89</ele><time>2015-11-27T08:06:41Z</time></trkpt><trkpt lat="29.5958275348" lon="35.4216661490"><ele>926.37</ele><time>2015-11-27T08:06:44Z</time></trkpt><trkpt lat="29.5957870502" lon="35.4216601979"><ele>926.37</ele><time>2015-11-27T08:06:45Z</time></trkpt><trkpt lat="29.5950543880" lon="35.4216057155"><ele>927.81</ele><time>2015-11-27T08:07:02Z</time></trkpt><trkpt lat="29.5941810776" lon="35.4215243272"><ele>925.89</ele><time>2015-11-27T08:07:18Z</time></trkpt><trkpt lat="29.5930227824" lon="35.4214509856"><ele>924.45</ele><time>2015-11-27T08:07:33Z</time></trkpt><trkpt lat="29.5923915412" lon="35.4214131832"><ele>926.37</ele><time>2015-11-27T08:07:45Z</time></trkpt><trkpt lat="29.5920799021" lon="35.4213920608"><ele>926.85</ele><time>2015-11-27T08:07:56Z</time></trkpt><trkpt lat="29.5920907985" lon="35.4213861935"><ele>926.37</ele><time>2015-11-27T08:08:22Z</time></trkpt><trkpt lat="29.5920578577" lon="35.4213882051"><ele>926.37</ele><time>2015-11-27T08:08:42Z</time></trkpt><trkpt lat="29.5920503139" lon="35.4213904683"><ele>926.85</ele><time>2015-11-27T08:08:43Z</time></trkpt><trkpt lat="29.5920368191" lon="35.4213948268"><ele>926.37</ele><time>2015-11-27T08:08:44Z</time></trkpt><trkpt lat="29.5920230728" lon="35.4213979281"><ele>926.37</ele><time>2015-11-27T08:08:45Z</time></trkpt><trkpt lat="29.5920082368" lon="35.4213938210"><ele>926.37</ele><time>2015-11-27T08:08:46Z</time></trkpt><trkpt lat="29.5919915568" lon="35.4213885404"><ele>926.37</ele><time>2015-11-27T08:08:47Z</time></trkpt><trkpt lat="29.5919729490" lon="35.4213860258"><ele>926.37</ele><time>2015-11-27T08:08:48Z</time></trkpt><trkpt lat="29.5919537544" lon="35.4213851877"><ele>926.37</ele><time>2015-11-27T08:08:49Z</time></trkpt><trkpt lat="29.5914587192" lon="35.4213633109"><ele>926.37</ele><time>2015-11-27T08:09:05Z</time></trkpt><trkpt lat="29.5905626938" lon="35.4213354830"><ele>926.85</ele><time>2015-11-27T08:09:23Z</time></trkpt><trkpt lat="29.5896727033" lon="35.4213043861"><ele>928.77</ele><time>2015-11-27T08:09:41Z</time></trkpt><trkpt lat="29.5887868199" lon="35.4212647397"><ele>929.73</ele><time>2015-11-27T08:09:58Z</time></trkpt><trkpt lat="29.5878973324" lon="35.4212186392"><ele>930.69</ele><time>2015-11-27T08:10:16Z</time></trkpt><trkpt lat="29.5870494191" lon="35.4211866204"><ele>932.62</ele><time>2015-11-27T08:10:34Z</time></trkpt><trkpt lat="29.5860868413" lon="35.4211423639"><ele>935.02</ele><time>2015-11-27T08:10:56Z</time></trkpt><trkpt lat="29.5859137550" lon="35.4211383406"><ele>935.50</ele><time>2015-11-27T08:11:00Z</time></trkpt><trkpt lat="29.5858724322" lon="35.4211353231"><ele>935.50</ele><time>2015-11-27T08:11:01Z</time></trkpt><trkpt lat="29.5852211583" lon="35.4211057350"><ele>937.42</ele><time>2015-11-27T08:11:16Z</time></trkpt><trkpt lat="29.5844341815" lon="35.4210726265"><ele>939.83</ele><time>2015-11-27T08:11:34Z</time></trkpt><trkpt lat="29.5836512279" lon="35.4210421164"><ele>941.75</ele><time>2015-11-27T08:11:52Z</time></trkpt><trkpt lat="29.5828546118" lon="35.4209967703"><ele>944.15</ele><time>2015-11-27T08:12:10Z</time></trkpt><trkpt lat="29.5820278209" lon="35.4209600575"><ele>946.56</ele><time>2015-11-27T08:12:28Z</time></trkpt><trkpt lat="29.5813809056" lon="35.4209328163"><ele>948.48</ele><time>2015-11-27T08:12:42Z</time></trkpt><trkpt lat="29.5804920048" lon="35.4209007975"><ele>950.40</ele><time>2015-11-27T08:13:02Z</time></trkpt><trkpt lat="29.5798869990" lon="35.4208808485"><ele>952.32</ele><time>2015-11-27T08:13:15Z</time></trkpt><trkpt lat="29.5798411500" lon="35.4208761547"><ele>952.32</ele><time>2015-11-27T08:13:16Z</time></trkpt><trkpt lat="29.5797957201" lon="35.4208712932"><ele>952.32</ele><time>2015-11-27T08:13:17Z</time></trkpt><trkpt lat="29.5790467970" lon="35.4208267014"><ele>955.21</ele><time>2015-11-27T08:13:34Z</time></trkpt><trkpt lat="29.5784068387" lon="35.4206173215"><ele>956.65</ele><time>2015-11-27T08:13:51Z</time></trkpt><trkpt lat="29.5782975387" lon="35.4205592349"><ele>957.13</ele><time>2015-11-27T08:13:54Z</time></trkpt><trkpt lat="29.5782617480" lon="35.4205421358"><ele>957.13</ele><time>2015-11-27T08:13:55Z</time></trkpt><trkpt lat="29.5781172439" lon="35.4204663634"><ele>957.61</ele><time>2015-11-27T08:13:59Z</time></trkpt><trkpt lat="29.5780439023" lon="35.4204286449"><ele>957.61</ele><time>2015-11-27T08:14:01Z</time></trkpt><trkpt lat="29.5772823226" lon="35.4200307559"><ele>958.09</ele><time>2015-11-27T08:14:20Z</time></trkpt><trkpt lat="29.5767721161" lon="35.4198061209"><ele>958.57</ele><time>2015-11-27T08:14:34Z</time></trkpt><trkpt lat="29.5763668511" lon="35.4196302686"><ele>960.49</ele><time>2015-11-27T08:14:47Z</time></trkpt><trkpt lat="29.5757824648" lon="35.4193749558"><ele>962.90</ele><time>2015-11-27T08:15:06Z</time></trkpt><trkpt lat="29.5753181912" lon="35.4191537574"><ele>964.34</ele><time>2015-11-27T08:15:21Z</time></trkpt><trkpt lat="29.5747603755" lon="35.4189074133"><ele>966.26</ele><time>2015-11-27T08:15:37Z</time></trkpt><trkpt lat="29.5741756540" lon="35.4186501727"><ele>967.22</ele><time>2015-11-27T08:15:53Z</time></trkpt><trkpt lat="29.5736110490" lon="35.4183967877"><ele>968.67</ele><time>2015-11-27T08:16:09Z</time></trkpt><trkpt lat="29.5731757767" lon="35.4182212707"><ele>968.18</ele><time>2015-11-27T08:16:22Z</time></trkpt><trkpt lat="29.5728064701" lon="35.4182542115"><ele>967.70</ele><time>2015-11-27T08:16:33Z</time></trkpt><trkpt lat="29.5726575237" lon="35.4183267150"><ele>967.70</ele><time>2015-11-27T08:16:37Z</time></trkpt><trkpt lat="29.5725748781" lon="35.4183597397"><ele>967.70</ele><time>2015-11-27T08:16:39Z</time></trkpt><trkpt lat="29.5723587926" lon="35.4184920061"><ele>966.74</ele><time>2015-11-27T08:16:44Z</time></trkpt><trkpt lat="29.5717809442" lon="35.4187567905"><ele>963.86</ele><time>2015-11-27T08:16:54Z</time></trkpt><trkpt lat="29.5716745779" lon="35.4187669326"><ele>962.90</ele><time>2015-11-27T08:16:56Z</time></trkpt><trkpt lat="29.5715290681" lon="35.4187649209"><ele>961.94</ele><time>2015-11-27T08:17:00Z</time></trkpt><trkpt lat="29.5715252124" lon="35.4187826067"><ele>962.42</ele><time>2015-11-27T08:17:01Z</time></trkpt><trkpt lat="29.5715321694" lon="35.4188033100"><ele>962.42</ele><time>2015-11-27T08:17:02Z</time></trkpt><trkpt lat="29.5715500228" lon="35.4188189004"><ele>961.94</ele><time>2015-11-27T08:17:03Z</time></trkpt><trkpt lat="29.5715717319" lon="35.4188259412"><ele>962.42</ele><time>2015-11-27T08:17:04Z</time></trkpt><trkpt lat="29.5715949498" lon="35.4188246839"><ele>962.90</ele><time>2015-11-27T08:17:05Z</time></trkpt><trkpt lat="29.5716199279" lon="35.4188157152"><ele>962.90</ele><time>2015-11-27T08:17:06Z</time></trkpt><trkpt lat="29.5716433972" lon="35.4188052379"><ele>962.90</ele><time>2015-11-27T08:17:07Z</time></trkpt><trkpt lat="29.5716652740" lon="35.4187962692"><ele>962.90</ele><time>2015-11-27T08:17:08Z</time></trkpt><trkpt lat="29.5717227738" lon="35.4187690280"><ele>963.38</ele><time>2015-11-27T08:17:19Z</time></trkpt><trkpt lat="29.5716988854" lon="35.4187572096"><ele>962.90</ele><time>2015-11-27T08:17:23Z</time></trkpt><trkpt lat="29.5716041699" lon="35.4187593888"><ele>962.90</ele><time>2015-11-27T08:17:28Z</time></trkpt><trkpt lat="29.5714039262" lon="35.4187405296"><ele>961.94</ele><time>2015-11-27T08:17:34Z</time></trkpt><trkpt lat="29.5713636931" lon="35.4187323153"><ele>961.94</ele><time>2015-11-27T08:17:35Z</time></trkpt><trkpt lat="29.5712783653" lon="35.4187091812"><ele>961.46</ele><time>2015-11-27T08:17:37Z</time></trkpt><trkpt lat="29.5708364714" lon="35.4186447244"><ele>960.01</ele><time>2015-11-27T08:17:48Z</time></trkpt><trkpt lat="29.5707943104" lon="35.4186409526"><ele>960.01</ele><time>2015-11-27T08:17:49Z</time></trkpt><trkpt lat="29.5707500540" lon="35.4186323192"><ele>960.01</ele><time>2015-11-27T08:17:50Z</time></trkpt><trkpt lat="29.5703635644" lon="35.4185517691"><ele>959.05</ele><time>2015-11-27T08:17:58Z</time></trkpt><trkpt lat="29.5703154523" lon="35.4185499251"><ele>958.57</ele><time>2015-11-27T08:17:59Z</time></trkpt><trkpt lat="29.5702701900" lon="35.4185471591"><ele>958.57</ele><time>2015-11-27T08:18:00Z</time></trkpt><trkpt lat="29.5700346585" lon="35.4184883181"><ele>958.09</ele><time>2015-11-27T08:18:05Z</time></trkpt><trkpt lat="29.5697935112" lon="35.4184289742"><ele>957.61</ele><time>2015-11-27T08:18:10Z</time></trkpt><trkpt lat="29.5694632642" lon="35.4183785990"><ele>957.61</ele><time>2015-11-27T08:18:17Z</time></trkpt><trkpt lat="29.5689104777" lon="35.4182858951"><ele>957.61</ele><time>2015-11-27T08:18:30Z</time></trkpt><trkpt lat="29.5687837433" lon="35.4182710592"><ele>957.61</ele><time>2015-11-27T08:18:39Z</time></trkpt><trkpt lat="29.5686354674" lon="35.4182615876"><ele>958.09</ele><time>2015-11-27T08:18:54Z</time></trkpt><trkpt lat="29.5685111638" lon="35.4182471707"><ele>957.61</ele><time>2015-11-27T08:19:09Z</time></trkpt><trkpt lat="29.5682473015" lon="35.4182124697"><ele>957.61</ele><time>2015-11-27T08:19:22Z</time></trkpt><trkpt lat="29.5681817550" lon="35.4181906767"><ele>957.61</ele><time>2015-11-27T08:19:30Z</time></trkpt><trkpt lat="29.5680733770" lon="35.4181692190"><ele>957.61</ele><time>2015-11-27T08:19:48Z</time></trkpt><trkpt lat="29.5678914897" lon="35.4181711469"><ele>957.61</ele><time>2015-11-27T08:20:06Z</time></trkpt><trkpt lat="29.5678831078" lon="35.4181693867"><ele>957.61</ele><time>2015-11-27T08:20:12Z</time></trkpt><trkpt lat="29.5678173099" lon="35.4182039201"><ele>957.13</ele><time>2015-11-27T08:20:17Z</time></trkpt><trkpt lat="29.5675249491" lon="35.4182716459"><ele>956.65</ele><time>2015-11-27T08:20:29Z</time></trkpt><trkpt lat="29.5672446582" lon="35.4183503520"><ele>956.17</ele><time>2015-11-27T08:20:36Z</time></trkpt><trkpt lat="29.5666050352" lon="35.4184021521"><ele>955.69</ele><time>2015-11-27T08:20:52Z</time></trkpt><trkpt lat="29.5665234793" lon="35.4184195027"><ele>955.21</ele><time>2015-11-27T08:20:54Z</time></trkpt><trkpt lat="29.5658955909" lon="35.4185067583"><ele>955.21</ele><time>2015-11-27T08:21:09Z</time></trkpt><trkpt lat="29.5655866340" lon="35.4184498452"><ele>956.17</ele><time>2015-11-27T08:21:20Z</time></trkpt><trkpt lat="29.5653197542" lon="35.4184505157"><ele>956.65</ele><time>2015-11-27T08:21:33Z</time></trkpt><trkpt lat="29.5651822072" lon="35.4184837919"><ele>957.13</ele><time>2015-11-27T08:21:45Z</time></trkpt><trkpt lat="29.5649116393" lon="35.4185255338"><ele>957.61</ele><time>2015-11-27T08:21:56Z</time></trkpt><trkpt lat="29.5646423288" lon="35.4184381943"><ele>958.57</ele><time>2015-11-27T08:22:10Z</time></trkpt><trkpt lat="29.5644817315" lon="35.4183874838"><ele>959.05</ele><time>2015-11-27T08:22:17Z</time></trkpt><trkpt lat="29.5640726108" lon="35.4182669520"><ele>960.01</ele><time>2015-11-27T08:22:34Z</time></trkpt><trkpt lat="29.5637104288" lon="35.4181378707"><ele>960.49</ele><time>2015-11-27T08:22:49Z</time></trkpt><trkpt lat="29.5634772442" lon="35.4180304985"><ele>961.46</ele><time>2015-11-27T08:23:02Z</time></trkpt><trkpt lat="29.5632628351" lon="35.4179670475"><ele>961.94</ele><time>2015-11-27T08:23:14Z</time></trkpt><trkpt lat="29.5631798543" lon="35.4179374594"><ele>961.94</ele><time>2015-11-27T08:23:18Z</time></trkpt><trkpt lat="29.5631292276" lon="35.4178887606"><ele>962.42</ele><time>2015-11-27T08:23:29Z</time></trkpt><trkpt lat="29.5630149823" lon="35.4178032652"><ele>962.90</ele><time>2015-11-27T08:23:43Z</time></trkpt><trkpt lat="29.5628793631" lon="35.4177000839"><ele>963.38</ele><time>2015-11-27T08:23:59Z</time></trkpt><trkpt lat="29.5625583362" lon="35.4175603576"><ele>964.34</ele><time>2015-11-27T08:24:15Z</time></trkpt><trkpt lat="29.5621057972" lon="35.4173881095"><ele>964.82</ele><time>2015-11-27T08:24:30Z</time></trkpt><trkpt lat="29.5619418472" lon="35.4173041228"><ele>965.30</ele><time>2015-11-27T08:24:41Z</time></trkpt><trkpt lat="29.5619435236" lon="35.4173042066"><ele>968.18</ele><time>2015-11-27T08:24:44Z</time></trkpt><trkpt lat="29.5619431883" lon="35.4173041228"><ele>965.30</ele><time>2015-11-27T08:24:45Z</time></trkpt><trkpt lat="29.5619243290" lon="35.4173278436"><ele>965.78</ele><time>2015-11-27T08:25:20Z</time></trkpt><trkpt lat="29.5619218145" lon="35.4173234012"><ele>965.78</ele><time>2015-11-27T08:25:50Z</time></trkpt><trkpt lat="29.5617609657" lon="35.4172296077"><ele>965.78</ele><time>2015-11-27T08:26:05Z</time></trkpt><trkpt lat="29.5617199782" lon="35.4172113352"><ele>965.78</ele><time>2015-11-27T08:26:07Z</time></trkpt><trkpt lat="29.5614492428" lon="35.4170744587"><ele>967.22</ele><time>2015-11-27T08:26:21Z</time></trkpt><trkpt lat="29.5614123624" lon="35.4170441162"><ele>967.22</ele><time>2015-11-27T08:26:24Z</time></trkpt><trkpt lat="29.5612993743" lon="35.4170102533"><ele>967.70</ele><time>2015-11-27T08:26:30Z</time></trkpt><trkpt lat="29.5611720532" lon="35.4169504065"><ele>968.67</ele><time>2015-11-27T08:26:37Z</time></trkpt><trkpt lat="29.5610776730" lon="35.4169318825"><ele>968.67</ele><time>2015-11-27T08:26:43Z</time></trkpt><trkpt lat="29.5608337596" lon="35.4168636538"><ele>970.11</ele><time>2015-11-27T08:26:58Z</time></trkpt><trkpt lat="29.5606262237" lon="35.4167883843"><ele>970.59</ele><time>2015-11-27T08:27:12Z</time></trkpt><trkpt lat="29.5603682287" lon="35.4166942555"><ele>971.55</ele><time>2015-11-27T08:27:28Z</time></trkpt><trkpt lat="29.5601210464" lon="35.4165812675"><ele>972.51</ele><time>2015-11-27T08:27:43Z</time></trkpt><trkpt lat="29.5599135943" lon="35.4164669383"><ele>972.99</ele><time>2015-11-27T08:27:57Z</time></trkpt><trkpt lat="29.5596850198" lon="35.4163397010"><ele>974.43</ele><time>2015-11-27T08:28:12Z</time></trkpt><trkpt lat="29.5594110154" lon="35.4161806125"><ele>975.88</ele><time>2015-11-27T08:28:29Z</time></trkpt><trkpt lat="29.5591425430" lon="35.4160365276"><ele>977.32</ele><time>2015-11-27T08:28:45Z</time></trkpt><trkpt lat="29.5589070115" lon="35.4158452526"><ele>978.76</ele><time>2015-11-27T08:29:00Z</time></trkpt><trkpt lat="29.5588363521" lon="35.4157916922"><ele>979.24</ele><time>2015-11-27T08:29:06Z</time></trkpt><trkpt lat="29.5588035788" lon="35.4157912731"><ele>979.72</ele><time>2015-11-27T08:29:10Z</time></trkpt><trkpt lat="29.5587046724" lon="35.4157205299"><ele>979.72</ele><time>2015-11-27T08:29:17Z</time></trkpt><trkpt lat="29.5584485214" lon="35.4155773669"><ele>980.68</ele><time>2015-11-27T08:29:32Z</time></trkpt><trkpt lat="29.5581129938" lon="35.4153509717"><ele>980.68</ele><time>2015-11-27T08:29:48Z</time></trkpt><trkpt lat="29.5578896999" lon="35.4152302723"><ele>980.68</ele><time>2015-11-27T08:30:00Z</time></trkpt><trkpt lat="29.5577866863" lon="35.4151972476"><ele>980.68</ele><time>2015-11-27T08:30:14Z</time></trkpt><trkpt lat="29.5576675795" lon="35.4151301924"><ele>981.16</ele><time>2015-11-27T08:30:30Z</time></trkpt><trkpt lat="29.5575505681" lon="35.4150581919"><ele>981.16</ele><time>2015-11-27T08:30:46Z</time></trkpt><trkpt lat="29.5574360713" lon="35.4149799049"><ele>981.16</ele><time>2015-11-27T08:31:03Z</time></trkpt><trkpt lat="29.5573547669" lon="35.4148411006"><ele>981.64</ele><time>2015-11-27T08:31:22Z</time></trkpt><trkpt lat="29.5572881307" lon="35.4147716984"><ele>981.64</ele><time>2015-11-27T08:31:37Z</time></trkpt><trkpt lat="29.5571796689" lon="35.4147269391"><ele>981.64</ele><time>2015-11-27T08:31:54Z</time></trkpt><trkpt lat="29.5571785793" lon="35.4147307947"><ele>981.64</ele><time>2015-11-27T08:32:16Z</time></trkpt><trkpt lat="29.5571911521" lon="35.4147220775"><ele>981.64</ele><time>2015-11-27T08:32:48Z</time></trkpt><trkpt lat="29.5571967680" lon="35.4147135280"><ele>981.64</ele><time>2015-11-27T08:33:29Z</time></trkpt><trkpt lat="29.5571947563" lon="35.4147074092"><ele>981.64</ele><time>2015-11-27T08:34:15Z</time></trkpt><trkpt lat="29.5571933314" lon="35.4146989435"><ele>981.64</ele><time>2015-11-27T08:34:54Z</time></trkpt><trkpt lat="29.5571902301" lon="35.4146961775"><ele>981.64</ele><time>2015-11-27T08:35:06Z</time></trkpt><trkpt lat="29.5571139548" lon="35.4147083312"><ele>981.64</ele><time>2015-11-27T08:35:15Z</time></trkpt><trkpt lat="29.5569790900" lon="35.4147240892"><ele>981.16</ele><time>2015-11-27T08:35:28Z</time></trkpt><trkpt lat="29.5567811932" lon="35.4146789107"><ele>981.16</ele><time>2015-11-27T08:35:49Z</time></trkpt><trkpt lat="29.5566143095" lon="35.4146253504"><ele>981.64</ele><time>2015-11-27T08:36:10Z</time></trkpt><trkpt lat="29.5564275607" lon="35.4145474825"><ele>982.60</ele><time>2015-11-27T08:36:28Z</time></trkpt><trkpt lat="29.5562026743" lon="35.4144440498"><ele>983.57</ele><time>2015-11-27T08:36:41Z</time></trkpt><trkpt lat="29.5561481919" lon="35.4143868852"><ele>983.57</ele><time>2015-11-27T08:36:53Z</time></trkpt><trkpt lat="29.5559580904" lon="35.4143051617"><ele>984.05</ele><time>2015-11-27T08:37:15Z</time></trkpt><trkpt lat="29.5557636302" lon="35.4142447282"><ele>984.05</ele><time>2015-11-27T08:37:31Z</time></trkpt><trkpt lat="29.5553536713" lon="35.4140071850"><ele>984.53</ele><time>2015-11-27T08:37:46Z</time></trkpt><trkpt lat="29.5550615620" lon="35.4137531295"><ele>985.01</ele><time>2015-11-27T08:37:59Z</time></trkpt><trkpt lat="29.5548219234" lon="35.4136388004"><ele>984.53</ele><time>2015-11-27T08:38:08Z</time></trkpt><trkpt lat="29.5547037385" lon="35.4135638662"><ele>984.53</ele><time>2015-11-27T08:38:12Z</time></trkpt><trkpt lat="29.5545954444" lon="35.4135416541"><ele>984.53</ele><time>2015-11-27T08:38:16Z</time></trkpt><trkpt lat="29.5545423869" lon="35.4135305062"><ele>985.01</ele><time>2015-11-27T08:38:25Z</time></trkpt><trkpt lat="29.5542973839" lon="35.4134763591"><ele>984.53</ele><time>2015-11-27T08:38:40Z</time></trkpt><trkpt lat="29.5538694039" lon="35.4134194460"><ele>984.53</ele><time>2015-11-27T08:38:55Z</time></trkpt><trkpt lat="29.5537925418" lon="35.4133942164"><ele>984.53</ele><time>2015-11-27T08:39:04Z</time></trkpt><trkpt lat="29.5537093934" lon="35.4134002514"><ele>985.01</ele><time>2015-11-27T08:39:15Z</time></trkpt><trkpt lat="29.5535095688" lon="35.4134125728"><ele>985.01</ele><time>2015-11-27T08:39:32Z</time></trkpt><trkpt lat="29.5531634800" lon="35.4133980721"><ele>984.53</ele><time>2015-11-27T08:39:45Z</time></trkpt><trkpt lat="29.5528556965" lon="35.4133553244"><ele>984.05</ele><time>2015-11-27T08:39:57Z</time></trkpt><trkpt lat="29.5523855556" lon="35.4132569209"><ele>983.57</ele><time>2015-11-27T08:40:12Z</time></trkpt><trkpt lat="29.5518769417" lon="35.4131729342"><ele>982.60</ele><time>2015-11-27T08:40:25Z</time></trkpt><trkpt lat="29.5514156856" lon="35.4130481277"><ele>982.12</ele><time>2015-11-27T08:40:37Z</time></trkpt><trkpt lat="29.5509696845" lon="35.4129061382"><ele>981.16</ele><time>2015-11-27T08:40:49Z</time></trkpt><trkpt lat="29.5507932454" lon="35.4128402565"><ele>981.16</ele><time>2015-11-27T08:40:53Z</time></trkpt><trkpt lat="29.5502236113" lon="35.4127056431"><ele>980.20</ele><time>2015-11-27T08:41:04Z</time></trkpt><trkpt lat="29.5499645267" lon="35.4126225784"><ele>979.72</ele><time>2015-11-27T08:41:09Z</time></trkpt><trkpt lat="29.5495166816" lon="35.4124919884"><ele>978.76</ele><time>2015-11-27T08:41:19Z</time></trkpt><trkpt lat="29.5493547432" lon="35.4124318901"><ele>979.24</ele><time>2015-11-27T08:41:23Z</time></trkpt><trkpt lat="29.5487727877" lon="35.4122176487"><ele>979.72</ele><time>2015-11-27T08:41:38Z</time></trkpt><trkpt lat="29.5481374394" lon="35.4120137170"><ele>980.68</ele><time>2015-11-27T08:41:53Z</time></trkpt><trkpt lat="29.5475556515" lon="35.4117538780"><ele>983.09</ele><time>2015-11-27T08:42:10Z</time></trkpt><trkpt lat="29.5470975805" lon="35.4115675483"><ele>983.57</ele><time>2015-11-27T08:42:26Z</time></trkpt><trkpt lat="29.5466322172" lon="35.4114543926"><ele>984.05</ele><time>2015-11-27T08:42:41Z</time></trkpt><trkpt lat="29.5465916488" lon="35.4114517942"><ele>984.05</ele><time>2015-11-27T08:42:42Z</time></trkpt><trkpt lat="29.5461742301" lon="35.4112806357"><ele>984.05</ele><time>2015-11-27T08:42:55Z</time></trkpt><trkpt lat="29.5456051826" lon="35.4110308550"><ele>985.49</ele><time>2015-11-27T08:43:14Z</time></trkpt><trkpt lat="29.5453076251" lon="35.4108758736"><ele>985.49</ele><time>2015-11-27T08:43:23Z</time></trkpt><trkpt lat="29.5451807231" lon="35.4108482972"><ele>985.01</ele><time>2015-11-27T08:43:26Z</time></trkpt><trkpt lat="29.5450905338" lon="35.4108414240"><ele>985.01</ele><time>2015-11-27T08:43:28Z</time></trkpt><trkpt lat="29.5448354725" lon="35.4107685853"><ele>984.53</ele><time>2015-11-27T08:43:34Z</time></trkpt><trkpt lat="29.5443121903" lon="35.4105632287"><ele>985.97</ele><time>2015-11-27T08:43:50Z</time></trkpt><trkpt lat="29.5439408720" lon="35.4104202334"><ele>986.45</ele><time>2015-11-27T08:44:02Z</time></trkpt><trkpt lat="29.5436957013" lon="35.4103535973"><ele>986.93</ele><time>2015-11-27T08:44:14Z</time></trkpt><trkpt lat="29.5433446672" lon="35.4101813491"><ele>988.85</ele><time>2015-11-27T08:44:29Z</time></trkpt><trkpt lat="29.5429672301" lon="35.4100341629"><ele>990.30</ele><time>2015-11-27T08:44:47Z</time></trkpt><trkpt lat="29.5426063053" lon="35.4098866414"><ele>991.26</ele><time>2015-11-27T08:45:03Z</time></trkpt><trkpt lat="29.5422436204" lon="35.4097476695"><ele>991.26</ele><time>2015-11-27T08:45:17Z</time></trkpt><trkpt lat="29.5416657720" lon="35.4094394669"><ele>992.70</ele><time>2015-11-27T08:45:36Z</time></trkpt><trkpt lat="29.5411966369" lon="35.4092208669"><ele>991.74</ele><time>2015-11-27T08:45:50Z</time></trkpt><trkpt lat="29.5406067185" lon="35.4089109879"><ele>992.70</ele><time>2015-11-27T08:46:06Z</time></trkpt><trkpt lat="29.5400432870" lon="35.4086900409"><ele>994.62</ele><time>2015-11-27T08:46:23Z</time></trkpt><trkpt lat="29.5396158099" lon="35.4084258433"><ele>996.54</ele><time>2015-11-27T08:46:40Z</time></trkpt><trkpt lat="29.5392643567" lon="35.4082836024"><ele>997.51</ele><time>2015-11-27T08:46:56Z</time></trkpt><trkpt lat="29.5388828125" lon="35.4081038106"><ele>998.95</ele><time>2015-11-27T08:47:14Z</time></trkpt><trkpt lat="29.5385863446" lon="35.4078724701"><ele>999.91</ele><time>2015-11-27T08:47:31Z</time></trkpt><trkpt lat="29.5385062974" lon="35.4078267887"><ele>1000.87</ele><time>2015-11-27T08:47:44Z</time></trkpt><trkpt lat="29.5383393299" lon="35.4077227693"><ele>1001.35</ele><time>2015-11-27T08:47:58Z</time></trkpt><trkpt lat="29.5380671695" lon="35.4076119605"><ele>1002.31</ele><time>2015-11-27T08:48:13Z</time></trkpt><trkpt lat="29.5378314704" lon="35.4075305723"><ele>1002.79</ele><time>2015-11-27T08:48:26Z</time></trkpt><trkpt lat="29.5377096813" lon="35.4075049236"><ele>1003.27</ele><time>2015-11-27T08:48:34Z</time></trkpt><trkpt lat="29.5376512595" lon="35.4074994754"><ele>1003.27</ele><time>2015-11-27T08:48:46Z</time></trkpt><trkpt lat="29.5376307238" lon="35.4074985534"><ele>1003.27</ele><time>2015-11-27T08:49:05Z</time></trkpt><trkpt lat="29.5373811945" lon="35.4074918479"><ele>1003.75</ele><time>2015-11-27T08:49:19Z</time></trkpt><trkpt lat="29.5371218584" lon="35.4074225295"><ele>1004.23</ele><time>2015-11-27T08:49:33Z</time></trkpt><trkpt lat="29.5366883464" lon="35.4072598368"><ele>1004.23</ele><time>2015-11-27T08:49:51Z</time></trkpt><trkpt lat="29.5362616237" lon="35.4071691446"><ele>1004.72</ele><time>2015-11-27T08:50:07Z</time></trkpt><trkpt lat="29.5358978491" lon="35.4070605990"><ele>1004.72</ele><time>2015-11-27T08:50:22Z</time></trkpt><trkpt lat="29.5355858747" lon="35.4069088865"><ele>1005.20</ele><time>2015-11-27T08:50:35Z</time></trkpt><trkpt lat="29.5352207590" lon="35.4067543242"><ele>1005.20</ele><time>2015-11-27T08:50:50Z</time></trkpt><trkpt lat="29.5348950382" lon="35.4066226445"><ele>1005.20</ele><time>2015-11-27T08:51:04Z</time></trkpt><trkpt lat="29.5344968978" lon="35.4064837564"><ele>1004.72</ele><time>2015-11-27T08:51:18Z</time></trkpt><trkpt lat="29.5344148390" lon="35.4064473789"><ele>1004.72</ele><time>2015-11-27T08:51:27Z</time></trkpt><trkpt lat="29.5343161002" lon="35.4064029548"><ele>1004.72</ele><time>2015-11-27T08:51:43Z</time></trkpt><trkpt lat="29.5342706703" lon="35.4063911363"><ele>1004.72</ele><time>2015-11-27T08:52:02Z</time></trkpt><trkpt lat="29.5342383999" lon="35.4063794855"><ele>1004.72</ele><time>2015-11-27T08:52:06Z</time></trkpt><trkpt lat="29.5340691693" lon="35.4062744603"><ele>1004.23</ele><time>2015-11-27T08:52:17Z</time></trkpt><trkpt lat="29.5339887869" lon="35.4062426928"><ele>1004.23</ele><time>2015-11-27T08:52:30Z</time></trkpt><trkpt lat="29.5338979270" lon="35.4062058963"><ele>1004.23</ele><time>2015-11-27T08:52:41Z</time></trkpt><trkpt lat="29.5337408502" lon="35.4061596282"><ele>1003.75</ele><time>2015-11-27T08:52:57Z</time></trkpt><trkpt lat="29.5336323045" lon="35.4061538447"><ele>1003.75</ele><time>2015-11-27T08:53:08Z</time></trkpt><trkpt lat="29.5334139559" lon="35.4061004519"><ele>1003.27</ele><time>2015-11-27T08:53:19Z</time></trkpt><trkpt lat="29.5328838006" lon="35.4058720451"><ele>1003.75</ele><time>2015-11-27T08:53:37Z</time></trkpt><trkpt lat="29.5324171800" lon="35.4057302233"><ele>1004.72</ele><time>2015-11-27T08:53:53Z</time></trkpt><trkpt lat="29.5317747071" lon="35.4054788500"><ele>1005.68</ele><time>2015-11-27T08:54:16Z</time></trkpt><trkpt lat="29.5312826894" lon="35.4052724037"><ele>1007.60</ele><time>2015-11-27T08:54:35Z</time></trkpt><trkpt lat="29.5308099501" lon="35.4051351082"><ele>1008.56</ele><time>2015-11-27T08:54:53Z</time></trkpt><trkpt lat="29.5303320978" lon="35.4049553163"><ele>1009.04</ele><time>2015-11-27T08:55:10Z</time></trkpt><trkpt lat="29.5297093224" lon="35.4047518037"><ele>1010.96</ele><time>2015-11-27T08:55:31Z</time></trkpt><trkpt lat="29.5291995350" lon="35.4045927990"><ele>1012.89</ele><time>2015-11-27T08:55:49Z</time></trkpt><trkpt lat="29.5287996344" lon="35.4044977482"><ele>1013.85</ele><time>2015-11-27T08:56:04Z</time></trkpt><trkpt lat="29.5284998138" lon="35.4043808207"><ele>1014.81</ele><time>2015-11-27T08:56:19Z</time></trkpt><trkpt lat="29.5282761008" lon="35.4042970017"><ele>1015.77</ele><time>2015-11-27T08:56:32Z</time></trkpt><trkpt lat="29.5279337838" lon="35.4041747935"><ele>1017.21</ele><time>2015-11-27T08:56:50Z</time></trkpt><trkpt lat="29.5276407525" lon="35.4040840175"><ele>1018.17</ele><time>2015-11-27T08:57:07Z</time></trkpt><trkpt lat="29.5275818277" lon="35.4040818382"><ele>1018.65</ele><time>2015-11-27T08:57:18Z</time></trkpt><trkpt lat="29.5274801552" lon="35.4040653259"><ele>1019.13</ele><time>2015-11-27T08:57:30Z</time></trkpt><trkpt lat="29.5273363218" lon="35.4040487297"><ele>1019.62</ele><time>2015-11-27T08:57:40Z</time></trkpt><trkpt lat="29.5270795841" lon="35.4040400963"><ele>1020.58</ele><time>2015-11-27T08:57:55Z</time></trkpt><trkpt lat="29.5269129518" lon="35.4040341452"><ele>1020.58</ele><time>2015-11-27T08:58:07Z</time></trkpt><trkpt lat="29.5268256124" lon="35.4040361568"><ele>1020.58</ele><time>2015-11-27T08:58:19Z</time></trkpt><trkpt lat="29.5267327409" lon="35.4040267691"><ele>1020.58</ele><time>2015-11-27T08:58:34Z</time></trkpt><trkpt lat="29.5265852194" lon="35.4040266853"><ele>1021.06</ele><time>2015-11-27T08:58:52Z</time></trkpt><trkpt lat="29.5264534559" lon="35.4040434491"><ele>1021.06</ele><time>2015-11-27T08:59:07Z</time></trkpt><trkpt lat="29.5263431501" lon="35.4040747974"><ele>1021.06</ele><time>2015-11-27T08:59:20Z</time></trkpt><trkpt lat="29.5261821337" lon="35.4041022900"><ele>1021.54</ele><time>2015-11-27T08:59:39Z</time></trkpt><trkpt lat="29.5260028448" lon="35.4041088279"><ele>1021.54</ele><time>2015-11-27T08:59:54Z</time></trkpt><trkpt lat="29.5257292595" lon="35.4040894657"><ele>1022.50</ele><time>2015-11-27T09:00:08Z</time></trkpt><trkpt lat="29.5254852623" lon="35.4039981030"><ele>1023.46</ele><time>2015-11-27T09:00:22Z</time></trkpt><trkpt lat="29.5251975954" lon="35.4038606398"><ele>1023.94</ele><time>2015-11-27T09:00:38Z</time></trkpt><trkpt lat="29.5248974394" lon="35.4036786687"><ele>1023.94</ele><time>2015-11-27T09:00:52Z</time></trkpt><trkpt lat="29.5245806035" lon="35.4034842085"><ele>1023.46</ele><time>2015-11-27T09:01:06Z</time></trkpt><trkpt lat="29.5241594967" lon="35.4032501858"><ele>1022.98</ele><time>2015-11-27T09:01:22Z</time></trkpt><trkpt lat="29.5238502044" lon="35.4030327592"><ele>1022.50</ele><time>2015-11-27T09:01:35Z</time></trkpt><trkpt lat="29.5235236455" lon="35.4028063640"><ele>1023.94</ele><time>2015-11-27T09:01:51Z</time></trkpt><trkpt lat="29.5232114196" lon="35.4025616962"><ele>1024.42</ele><time>2015-11-27T09:02:08Z</time></trkpt><trkpt lat="29.5229411032" lon="35.4023622908"><ele>1024.90</ele><time>2015-11-27T09:02:23Z</time></trkpt><trkpt lat="29.5227468107" lon="35.4022347182"><ele>1025.38</ele><time>2015-11-27T09:02:35Z</time></trkpt><trkpt lat="29.5226182323" lon="35.4021914676"><ele>1024.90</ele><time>2015-11-27T09:02:41Z</time></trkpt><trkpt lat="29.5224985387" lon="35.4020400904"><ele>1025.38</ele><time>2015-11-27T09:02:49Z</time></trkpt><trkpt lat="29.5224493369" lon="35.4020131007"><ele>1025.86</ele><time>2015-11-27T09:02:57Z</time></trkpt><trkpt lat="29.5224229340" lon="35.4019886255"><ele>1025.86</ele><time>2015-11-27T09:03:01Z</time></trkpt><trkpt lat="29.5223600697" lon="35.4019028787"><ele>1025.86</ele><time>2015-11-27T09:03:07Z</time></trkpt><trkpt lat="29.5222213492" lon="35.4017696064"><ele>1026.34</ele><time>2015-11-27T09:03:22Z</time></trkpt><trkpt lat="29.5221575629" lon="35.4017245118"><ele>1026.34</ele><time>2015-11-27T09:03:39Z</time></trkpt><trkpt lat="29.5220071916" lon="35.4016208276"><ele>1027.31</ele><time>2015-11-27T09:03:58Z</time></trkpt><trkpt lat="29.5218470134" lon="35.4015173111"><ele>1027.31</ele><time>2015-11-27T09:04:18Z</time></trkpt><trkpt lat="29.5217279065" lon="35.4014438018"><ele>1027.79</ele><time>2015-11-27T09:04:35Z</time></trkpt><trkpt lat="29.5215999987" lon="35.4013653472"><ele>1028.27</ele><time>2015-11-27T09:04:53Z</time></trkpt><trkpt lat="29.5214400720" lon="35.4012734815"><ele>1028.75</ele><time>2015-11-27T09:05:12Z</time></trkpt><trkpt lat="29.5213745255" lon="35.4012417980"><ele>1028.75</ele><time>2015-11-27T09:05:21Z</time></trkpt><trkpt lat="29.5212858450" lon="35.4011778440"><ele>1029.23</ele><time>2015-11-27T09:05:28Z</time></trkpt><trkpt lat="29.5210650656" lon="35.4010645207"><ele>1029.71</ele><time>2015-11-27T09:05:42Z</time></trkpt><trkpt lat="29.5210076496" lon="35.4010480084"><ele>1029.23</ele><time>2015-11-27T09:05:58Z</time></trkpt><trkpt lat="29.5209904667" lon="35.4010472540"><ele>1029.71</ele><time>2015-11-27T09:06:12Z</time></trkpt><trkpt lat="29.5208658278" lon="35.4009833839"><ele>1030.19</ele><time>2015-11-27T09:06:28Z</time></trkpt><trkpt lat="29.5206747204" lon="35.4009019118"><ele>1031.15</ele><time>2015-11-27T09:06:49Z</time></trkpt><trkpt lat="29.5205152128" lon="35.4008262232"><ele>1031.15</ele><time>2015-11-27T09:07:07Z</time></trkpt><trkpt lat="29.5204092655" lon="35.4007600900"><ele>1031.15</ele><time>2015-11-27T09:07:25Z</time></trkpt><trkpt lat="29.5202545356" lon="35.4006735049"><ele>1031.63</ele><time>2015-11-27T09:07:42Z</time></trkpt><trkpt lat="29.5201647654" lon="35.4006209504"><ele>1031.63</ele><time>2015-11-27T09:08:03Z</time></trkpt><trkpt lat="29.5200885739" lon="35.4005745985"><ele>1032.11</ele><time>2015-11-27T09:08:19Z</time></trkpt><trkpt lat="29.5200007316" lon="35.4005219601"><ele>1032.59</ele><time>2015-11-27T09:08:39Z</time></trkpt><trkpt lat="29.5198385417" lon="35.4004544020"><ele>1032.11</ele><time>2015-11-27T09:08:59Z</time></trkpt><trkpt lat="29.5197559800" lon="35.4004081339"><ele>1032.59</ele><time>2015-11-27T09:09:13Z</time></trkpt><trkpt lat="29.5197313372" lon="35.4004058708"><ele>1032.11</ele><time>2015-11-27T09:09:30Z</time></trkpt><trkpt lat="29.5197339356" lon="35.4004069604"><ele>1032.59</ele><time>2015-11-27T09:10:10Z</time></trkpt><trkpt lat="29.5197355282" lon="35.4004094750"><ele>1032.11</ele><time>2015-11-27T09:10:38Z</time></trkpt><trkpt lat="29.5196141582" lon="35.4003471974"><ele>1032.59</ele><time>2015-11-27T09:10:54Z</time></trkpt><trkpt lat="29.5194989908" lon="35.4003041983"><ele>1032.59</ele><time>2015-11-27T09:11:09Z</time></trkpt><trkpt lat="29.5194456819" lon="35.4002487101"><ele>1033.07</ele><time>2015-11-27T09:11:23Z</time></trkpt><trkpt lat="29.5193485357" lon="35.4001666512"><ele>1033.07</ele><time>2015-11-27T09:11:38Z</time></trkpt><trkpt lat="29.5193220489" lon="35.4001217242"><ele>1033.07</ele><time>2015-11-27T09:11:56Z</time></trkpt><trkpt lat="29.5192989148" lon="35.4001173656"><ele>1033.07</ele><time>2015-11-27T09:12:07Z</time></trkpt><trkpt lat="29.5191526506" lon="35.4001447745"><ele>1033.07</ele><time>2015-11-27T09:12:25Z</time></trkpt><trkpt lat="29.5190570969" lon="35.4001890309"><ele>1032.59</ele><time>2015-11-27T09:12:39Z</time></trkpt><trkpt lat="29.5189544186" lon="35.4002536554"><ele>1032.11</ele><time>2015-11-27T09:12:55Z</time></trkpt><trkpt lat="29.5189000200" lon="35.4003079701"><ele>1032.11</ele><time>2015-11-27T09:13:10Z</time></trkpt><trkpt lat="29.5188951585" lon="35.4003417492"><ele>1032.11</ele><time>2015-11-27T09:13:30Z</time></trkpt><trkpt lat="29.5188123453" lon="35.4003186990"><ele>1031.63</ele><time>2015-11-27T09:13:50Z</time></trkpt><trkpt lat="29.5187063981" lon="35.4003076348"><ele>1031.63</ele><time>2015-11-27T09:14:08Z</time></trkpt><trkpt lat="29.5185637381" lon="35.4002933856"><ele>1031.63</ele><time>2015-11-27T09:14:24Z</time></trkpt><trkpt lat="29.5184425358" lon="35.4003612790"><ele>1031.15</ele><time>2015-11-27T09:14:40Z</time></trkpt><trkpt lat="29.5182955172" lon="35.4003140051"><ele>1031.15</ele><time>2015-11-27T09:14:57Z</time></trkpt><trkpt lat="29.5181536116" lon="35.4003113229"><ele>1031.15</ele><time>2015-11-27T09:15:16Z</time></trkpt><trkpt lat="29.5180210937" lon="35.4002812319"><ele>1031.15</ele><time>2015-11-27T09:15:35Z</time></trkpt><trkpt lat="29.5180073474" lon="35.4002728499"><ele>1031.63</ele><time>2015-11-27T09:15:50Z</time></trkpt><trkpt lat="29.5180086046" lon="35.4002551641"><ele>1031.63</ele><time>2015-11-27T09:16:21Z</time></trkpt><trkpt lat="29.5179145597" lon="35.4002042022"><ele>1031.63</ele><time>2015-11-27T09:16:35Z</time></trkpt><trkpt lat="29.5177851431" lon="35.4001211375"><ele>1031.63</ele><time>2015-11-27T09:16:52Z</time></trkpt><trkpt lat="29.5177610032" lon="35.4000942316"><ele>1032.11</ele><time>2015-11-27T09:17:08Z</time></trkpt><trkpt lat="29.5177169144" lon="35.4000450298"><ele>1032.11</ele><time>2015-11-27T09:17:16Z</time></trkpt><trkpt lat="29.5176757593" lon="35.4000021983"><ele>1032.11</ele><time>2015-11-27T09:17:20Z</time></trkpt><trkpt lat="29.5175681356" lon="35.3999280185"><ele>1032.11</ele><time>2015-11-27T09:17:31Z</time></trkpt><trkpt lat="29.5175238792" lon="35.3999484703"><ele>1032.59</ele><time>2015-11-27T09:17:42Z</time></trkpt><trkpt lat="29.5174026769" lon="35.3999581933"><ele>1032.11</ele><time>2015-11-27T09:17:51Z</time></trkpt><trkpt lat="29.5172159281" lon="35.3998019546"><ele>1032.59</ele><time>2015-11-27T09:18:06Z</time></trkpt><trkpt lat="29.5170808118" lon="35.3997080773"><ele>1032.59</ele><time>2015-11-27T09:18:16Z</time></trkpt><trkpt lat="29.5169999264" lon="35.3996773995"><ele>1033.07</ele><time>2015-11-27T09:18:29Z</time></trkpt><trkpt lat="29.5168741979" lon="35.3996324725"><ele>1033.07</ele><time>2015-11-27T09:18:47Z</time></trkpt><trkpt lat="29.5167269278" lon="35.3995642439"><ele>1033.07</ele><time>2015-11-27T09:19:06Z</time></trkpt><trkpt lat="29.5166463777" lon="35.3995277826"><ele>1033.55</ele><time>2015-11-27T09:19:19Z</time></trkpt><trkpt lat="29.5165177155" lon="35.3995353263"><ele>1033.55</ele><time>2015-11-27T09:19:35Z</time></trkpt><trkpt lat="29.5163190644" lon="35.3995107673"><ele>1033.55</ele><time>2015-11-27T09:19:58Z</time></trkpt><trkpt lat="29.5161734708" lon="35.3994907346"><ele>1033.55</ele><time>2015-11-27T09:20:15Z</time></trkpt><trkpt lat="29.5160027314" lon="35.3994607273"><ele>1033.55</ele><time>2015-11-27T09:20:36Z</time></trkpt><trkpt lat="29.5158360153" lon="35.3994292952"><ele>1033.55</ele><time>2015-11-27T09:20:55Z</time></trkpt><trkpt lat="29.5156659465" lon="35.3993603121"><ele>1034.04</ele><time>2015-11-27T09:21:16Z</time></trkpt><trkpt lat="29.5155308302" lon="35.3993058298"><ele>1034.52</ele><time>2015-11-27T09:21:33Z</time></trkpt><trkpt lat="29.5153945405" lon="35.3992458992"><ele>1034.52</ele><time>2015-11-27T09:21:51Z</time></trkpt><trkpt lat="29.5152942091" lon="35.3991799336"><ele>1035.00</ele><time>2015-11-27T09:22:07Z</time></trkpt><trkpt lat="29.5151556563" lon="35.3991117049"><ele>1035.00</ele><time>2015-11-27T09:22:29Z</time></trkpt><trkpt lat="29.5150186960" lon="35.3990462422"><ele>1035.48</ele><time>2015-11-27T09:22:47Z</time></trkpt><trkpt lat="29.5148256607" lon="35.3989586513"><ele>1035.48</ele><time>2015-11-27T09:23:07Z</time></trkpt><trkpt lat="29.5146088209" lon="35.3988582361"><ele>1035.48</ele><time>2015-11-27T09:23:26Z</time></trkpt><trkpt lat="29.5144739561" lon="35.3987923544"><ele>1035.48</ele><time>2015-11-27T09:23:43Z</time></trkpt><trkpt lat="29.5143684279" lon="35.3987243772"><ele>1035.48</ele><time>2015-11-27T09:23:58Z</time></trkpt><trkpt lat="29.5141966827" lon="35.3986362834"><ele>1035.96</ele><time>2015-11-27T09:24:19Z</time></trkpt><trkpt lat="29.5140488259" lon="35.3985940386"><ele>1035.96</ele><time>2015-11-27T09:24:38Z</time></trkpt><trkpt lat="29.5138816908" lon="35.3985416517"><ele>1035.96</ele><time>2015-11-27T09:24:57Z</time></trkpt><trkpt lat="29.5137003902" lon="35.3985101357"><ele>1035.96</ele><time>2015-11-27T09:25:18Z</time></trkpt><trkpt lat="29.5135243703" lon="35.3984991554"><ele>1035.00</ele><time>2015-11-27T09:25:37Z</time></trkpt><trkpt lat="29.5133331791" lon="35.3984591737"><ele>1035.48</ele><time>2015-11-27T09:25:58Z</time></trkpt><trkpt lat="29.5131678041" lon="35.3984149173"><ele>1035.00</ele><time>2015-11-27T09:26:17Z</time></trkpt><trkpt lat="29.5131209493" lon="35.3984057810"><ele>1035.00</ele><time>2015-11-27T09:26:33Z</time></trkpt><trkpt lat="29.5131289121" lon="35.3984017577"><ele>1035.48</ele><time>2015-11-27T09:27:02Z</time></trkpt><trkpt lat="29.5131023414" lon="35.3983973153"><ele>1035.48</ele><time>2015-11-27T09:27:38Z</time></trkpt><trkpt lat="29.5129761100" lon="35.3983678110"><ele>1035.48</ele><time>2015-11-27T09:27:54Z</time></trkpt><trkpt lat="29.5128544886" lon="35.3982751071"><ele>1035.96</ele><time>2015-11-27T09:28:13Z</time></trkpt><trkpt lat="29.5127351303" lon="35.3981832415"><ele>1035.48</ele><time>2015-11-27T09:28:30Z</time></trkpt><trkpt lat="29.5125201344" lon="35.3980112448"><ele>1035.48</ele><time>2015-11-27T09:28:55Z</time></trkpt><trkpt lat="29.5123951603" lon="35.3979130089"><ele>1035.48</ele><time>2015-11-27T09:29:13Z</time></trkpt><trkpt lat="29.5122328866" lon="35.3977901302"><ele>1035.48</ele><time>2015-11-27T09:29:33Z</time></trkpt><trkpt lat="29.5120726246" lon="35.3976896312"><ele>1035.00</ele><time>2015-11-27T09:29:53Z</time></trkpt><trkpt lat="29.5119347423" lon="35.3976068180"><ele>1035.00</ele><time>2015-11-27T09:30:10Z</time></trkpt><trkpt lat="29.5118085109" lon="35.3975152876"><ele>1034.52</ele><time>2015-11-27T09:30:28Z</time></trkpt><trkpt lat="29.5116564631" lon="35.3974154592"><ele>1035.00</ele><time>2015-11-27T09:30:47Z</time></trkpt><trkpt lat="29.5114973746" lon="35.3973017167"><ele>1035.00</ele><time>2015-11-27T09:31:06Z</time></trkpt><trkpt lat="29.5113232825" lon="35.3971712943"><ele>1034.52</ele><time>2015-11-27T09:31:27Z</time></trkpt><trkpt lat="29.5112937782" lon="35.3971258644"><ele>1035.00</ele><time>2015-11-27T09:31:46Z</time></trkpt><trkpt lat="29.5112650283" lon="35.3970908280"><ele>1035.00</ele><time>2015-11-27T09:31:54Z</time></trkpt><trkpt lat="29.5112236217" lon="35.3970820270"><ele>1035.00</ele><time>2015-11-27T09:31:58Z</time></trkpt><trkpt lat="29.5109994058" lon="35.3968908358"><ele>1035.00</ele><time>2015-11-27T09:32:11Z</time></trkpt><trkpt lat="29.5107080508" lon="35.3966465872"><ele>1035.00</ele><time>2015-11-27T09:32:27Z</time></trkpt><trkpt lat="29.5106818993" lon="35.3966506105"><ele>1035.00</ele><time>2015-11-27T09:32:32Z</time></trkpt><trkpt lat="29.5106169395" lon="35.3965979721"><ele>1035.00</ele><time>2015-11-27T09:32:37Z</time></trkpt><trkpt lat="29.5104591921" lon="35.3964521270"><ele>1035.00</ele><time>2015-11-27T09:32:47Z</time></trkpt><trkpt lat="29.5104140975" lon="35.3963854909"><ele>1035.00</ele><time>2015-11-27T09:32:59Z</time></trkpt><trkpt lat="29.5103749540" lon="35.3963419050"><ele>1035.00</ele><time>2015-11-27T09:33:06Z</time></trkpt><trkpt lat="29.5102013648" lon="35.3962506261"><ele>1035.00</ele><time>2015-11-27T09:33:23Z</time></trkpt><trkpt lat="29.5098394342" lon="35.3960996680"><ele>1034.52</ele><time>2015-11-27T09:33:40Z</time></trkpt><trkpt lat="29.5094688702" lon="35.3959555831"><ele>1034.04</ele><time>2015-11-27T09:33:55Z</time></trkpt><trkpt lat="29.5090791956" lon="35.3957236558"><ele>1034.04</ele><time>2015-11-27T09:34:10Z</time></trkpt><trkpt lat="29.5086619444" lon="35.3954994399"><ele>1033.55</ele><time>2015-11-27T09:34:25Z</time></trkpt><trkpt lat="29.5083014388" lon="35.3953454643"><ele>1033.07</ele><time>2015-11-27T09:34:37Z</time></trkpt><trkpt lat="29.5082087349" lon="35.3952884674"><ele>1033.07</ele><time>2015-11-27T09:34:41Z</time></trkpt><trkpt lat="29.5077658352" lon="35.3950873017"><ele>1032.11</ele><time>2015-11-27T09:34:57Z</time></trkpt><trkpt lat="29.5074156392" lon="35.3949164785"><ele>1031.63</ele><time>2015-11-27T09:35:09Z</time></trkpt><trkpt lat="29.5071486756" lon="35.3948260378"><ele>1031.15</ele><time>2015-11-27T09:35:21Z</time></trkpt><trkpt lat="29.5067127328" lon="35.3947045840"><ele>1030.67</ele><time>2015-11-27T09:35:36Z</time></trkpt><trkpt lat="29.5062407479" lon="35.3944949526"><ele>1029.71</ele><time>2015-11-27T09:35:50Z</time></trkpt><trkpt lat="29.5056705270" lon="35.3942552302"><ele>1028.75</ele><time>2015-11-27T09:36:06Z</time></trkpt><trkpt lat="29.5052235201" lon="35.3939999174"><ele>1027.79</ele><time>2015-11-27T09:36:19Z</time></trkpt><trkpt lat="29.5047763456" lon="35.3937586024"><ele>1027.31</ele><time>2015-11-27T09:36:34Z</time></trkpt><trkpt lat="29.5043604355" lon="35.3935099952"><ele>1027.31</ele><time>2015-11-27T09:36:50Z</time></trkpt><trkpt lat="29.5040075574" lon="35.3932734579"><ele>1026.34</ele><time>2015-11-27T09:37:04Z</time></trkpt><trkpt lat="29.5036561880" lon="35.3930297121"><ele>1025.86</ele><time>2015-11-27T09:37:17Z</time></trkpt><trkpt lat="29.5034199022" lon="35.3927334119"><ele>1025.86</ele><time>2015-11-27T09:37:30Z</time></trkpt><trkpt lat="29.5031958539" lon="35.3925635107"><ele>1025.38</ele><time>2015-11-27T09:37:40Z</time></trkpt><trkpt lat="29.5026907604" lon="35.3922643606"><ele>1025.38</ele><time>2015-11-27T09:37:58Z</time></trkpt><trkpt lat="29.5022999123" lon="35.3921313398"><ele>1024.90</ele><time>2015-11-27T09:38:11Z</time></trkpt><trkpt lat="29.5019291807" lon="35.3919953853"><ele>1023.94</ele><time>2015-11-27T09:38:24Z</time></trkpt><trkpt lat="29.5017579384" lon="35.3918433376"><ele>1023.94</ele><time>2015-11-27T09:38:35Z</time></trkpt><trkpt lat="29.5014187228" lon="35.3917125799"><ele>1023.94</ele><time>2015-11-27T09:38:49Z</time></trkpt><trkpt lat="29.5010629110" lon="35.3916496318"><ele>1023.46</ele><time>2015-11-27T09:39:02Z</time></trkpt><trkpt lat="29.5006516110" lon="35.3916544095"><ele>1023.46</ele><time>2015-11-27T09:39:16Z</time></trkpt><trkpt lat="29.5002302527" lon="35.3917138372"><ele>1023.94</ele><time>2015-11-27T09:39:31Z</time></trkpt><trkpt lat="29.4998864271" lon="35.3917031083"><ele>1024.42</ele><time>2015-11-27T09:39:45Z</time></trkpt><trkpt lat="29.4995028712" lon="35.3915492166"><ele>1023.94</ele><time>2015-11-27T09:40:00Z</time></trkpt><trkpt lat="29.4993438665" lon="35.3913357295"><ele>1023.94</ele><time>2015-11-27T09:40:12Z</time></trkpt><trkpt lat="29.4993322156" lon="35.3913379088"><ele>1023.46</ele><time>2015-11-27T09:40:32Z</time></trkpt><trkpt lat="29.4993301202" lon="35.3913224023"><ele>1023.94</ele><time>2015-11-27T09:41:00Z</time></trkpt><trkpt lat="29.4993330538" lon="35.3913259227"><ele>1023.46</ele><time>2015-11-27T09:41:27Z</time></trkpt><trkpt lat="29.4993260130" lon="35.3913374059"><ele>1022.98</ele><time>2015-11-27T09:41:55Z</time></trkpt><trkpt lat="29.4993324671" lon="35.3913415130"><ele>1022.98</ele><time>2015-11-27T09:42:31Z</time></trkpt><trkpt lat="29.4993416034" lon="35.3913352266"><ele>1022.50</ele><time>2015-11-27T09:43:15Z</time></trkpt><trkpt lat="29.4993309584" lon="35.3913413454"><ele>1022.50</ele><time>2015-11-27T09:44:06Z</time></trkpt><trkpt lat="29.4993284438" lon="35.3913430218"><ele>1022.50</ele><time>2015-11-27T09:44:49Z</time></trkpt><trkpt lat="29.4993232470" lon="35.3913522419"><ele>1022.50</ele><time>2015-11-27T09:45:35Z</time></trkpt><trkpt lat="29.4993299525" lon="35.3913479671"><ele>1022.02</ele><time>2015-11-27T09:46:19Z</time></trkpt><trkpt lat="29.4993187208" lon="35.3913501464"><ele>1022.50</ele><time>2015-11-27T09:46:47Z</time></trkpt><trkpt lat="29.4993269350" lon="35.3913452011"><ele>1022.02</ele><time>2015-11-27T09:47:28Z</time></trkpt><trkpt lat="29.4993251748" lon="35.3913541697"><ele>1022.02</ele><time>2015-11-27T09:48:12Z</time></trkpt><trkpt lat="29.4993190560" lon="35.3913525771"><ele>1021.54</ele><time>2015-11-27T09:48:55Z</time></trkpt><trkpt lat="29.4993185531" lon="35.3913554270"><ele>1021.54</ele><time>2015-11-27T09:49:29Z</time></trkpt><trkpt lat="29.4993318804" lon="35.3913275152"><ele>1021.54</ele><time>2015-11-27T09:50:18Z</time></trkpt><trkpt lat="29.4993338082" lon="35.3913105000"><ele>1021.06</ele><time>2015-11-27T09:50:54Z</time></trkpt><trkpt lat="29.4993273541" lon="35.3912916407"><ele>1021.06</ele><time>2015-11-27T09:51:31Z</time></trkpt><trkpt lat="29.4993307907" lon="35.3912944067"><ele>1021.06</ele><time>2015-11-27T09:52:11Z</time></trkpt><trkpt lat="29.4993326347" lon="35.3913047165"><ele>1021.06</ele><time>2015-11-27T09:52:49Z</time></trkpt><trkpt lat="29.4993251748" lon="35.3913019504"><ele>1021.06</ele><time>2015-11-27T09:53:25Z</time></trkpt><trkpt lat="29.4993255101" lon="35.3913076501"><ele>1021.06</ele><time>2015-11-27T09:54:00Z</time></trkpt><trkpt lat="29.4993302040" lon="35.3913150262"><ele>1021.06</ele><time>2015-11-27T09:54:35Z</time></trkpt><trkpt lat="29.4993290305" lon="35.3913138527"><ele>1021.54</ele><time>2015-11-27T09:55:02Z</time></trkpt><trkpt lat="29.4992854446" lon="35.3913189657"><ele>1022.02</ele><time>2015-11-27T09:55:27Z</time></trkpt><trkpt lat="29.4992437866" lon="35.3913371544"><ele>1022.02</ele><time>2015-11-27T09:55:32Z</time></trkpt><trkpt lat="29.4991385937" lon="35.3913904633"><ele>1021.54</ele><time>2015-11-27T09:55:48Z</time></trkpt><trkpt lat="29.4990233425" lon="35.3914162796"><ele>1021.54</ele><time>2015-11-27T09:56:06Z</time></trkpt><trkpt lat="29.4990012981" lon="35.3914190456"><ele>1021.54</ele><time>2015-11-27T09:56:09Z</time></trkpt><trkpt lat="29.4988439698" lon="35.3914399166"><ele>1021.54</ele><time>2015-11-27T09:56:26Z</time></trkpt><trkpt lat="29.4987336639" lon="35.3914710972"><ele>1021.54</ele><time>2015-11-27T09:56:43Z</time></trkpt><trkpt lat="29.4986397028" lon="35.3914721869"><ele>1021.54</ele><time>2015-11-27T09:56:59Z</time></trkpt><trkpt lat="29.4985089451" lon="35.3914529923"><ele>1022.50</ele><time>2015-11-27T09:57:17Z</time></trkpt><trkpt lat="29.4983145688" lon="35.3914192971"><ele>1022.98</ele><time>2015-11-27T09:57:38Z</time></trkpt><trkpt lat="29.4981160853" lon="35.3913861047"><ele>1023.46</ele><time>2015-11-27T09:58:00Z</time></trkpt><trkpt lat="29.4980393909" lon="35.3913694248"><ele>1023.46</ele><time>2015-11-27T09:58:16Z</time></trkpt><trkpt lat="29.4980369601" lon="35.3913366515"><ele>1022.98</ele><time>2015-11-27T09:58:32Z</time></trkpt><trkpt lat="29.4979881775" lon="35.3911413532"><ele>1022.50</ele><time>2015-11-27T09:58:51Z</time></trkpt><trkpt lat="29.4979771972" lon="35.3911233321"><ele>1022.50</ele><time>2015-11-27T09:58:53Z</time></trkpt><trkpt lat="29.4979477767" lon="35.3909358289"><ele>1022.02</ele><time>2015-11-27T09:59:10Z</time></trkpt><trkpt lat="29.4979401492" lon="35.3909209929"><ele>1022.02</ele><time>2015-11-27T09:59:13Z</time></trkpt><trkpt lat="29.4977644645" lon="35.3906774987"><ele>1021.06</ele><time>2015-11-27T09:59:25Z</time></trkpt><trkpt lat="29.4976216368" lon="35.3904209286"><ele>1020.58</ele><time>2015-11-27T09:59:35Z</time></trkpt><trkpt lat="29.4973624684" lon="35.3901643585"><ele>1019.62</ele><time>2015-11-27T09:59:47Z</time></trkpt><trkpt lat="29.4970810041" lon="35.3897916991"><ele>1018.17</ele><time>2015-11-27T10:00:00Z</time></trkpt><trkpt lat="29.4968928304" lon="35.3895501327"><ele>1017.21</ele><time>2015-11-27T10:00:11Z</time></trkpt><trkpt lat="29.4969075825" lon="35.3895067982"><ele>1017.21</ele><time>2015-11-27T10:00:15Z</time></trkpt><trkpt lat="29.4968676846" lon="35.3891588654"><ele>1015.77</ele><time>2015-11-27T10:00:26Z</time></trkpt><trkpt lat="29.4966272078" lon="35.3887919895"><ele>1014.81</ele><time>2015-11-27T10:00:37Z</time></trkpt><trkpt lat="29.4965832867" lon="35.3887216654"><ele>1014.81</ele><time>2015-11-27T10:00:45Z</time></trkpt><trkpt lat="29.4965751562" lon="35.3887114394"><ele>1014.81</ele><time>2015-11-27T10:01:02Z</time></trkpt><trkpt lat="29.4965950213" lon="35.3887042310"><ele>1014.81</ele><time>2015-11-27T10:01:15Z</time></trkpt><trkpt lat="29.4965908304" lon="35.3887153789"><ele>1014.33</ele><time>2015-11-27T10:01:39Z</time></trkpt><trkpt lat="29.4965951890" lon="35.3887082543"><ele>1014.33</ele><time>2015-11-27T10:02:18Z</time></trkpt><trkpt lat="29.4965946861" lon="35.3887081705"><ele>1013.85</ele><time>2015-11-27T10:02:58Z</time></trkpt><trkpt lat="29.4965930097" lon="35.3887056559"><ele>1013.85</ele><time>2015-11-27T10:03:28Z</time></trkpt><trkpt lat="29.4965959433" lon="35.3887070809"><ele>1013.85</ele><time>2015-11-27T10:04:07Z</time></trkpt><trkpt lat="29.4965944346" lon="35.3887066618"><ele>1013.85</ele><time>2015-11-27T10:04:42Z</time></trkpt><trkpt lat="29.4965958595" lon="35.3887060750"><ele>1013.85</ele><time>2015-11-27T10:05:12Z</time></trkpt><trkpt lat="29.4965986256" lon="35.3887115233"><ele>1013.37</ele><time>2015-11-27T10:05:52Z</time></trkpt><trkpt lat="29.4966085162" lon="35.3887261916"><ele>1013.37</ele><time>2015-11-27T10:06:35Z</time></trkpt><trkpt lat="29.4966047443" lon="35.3887247667"><ele>1013.37</ele><time>2015-11-27T10:07:12Z</time></trkpt><trkpt lat="29.4966027327" lon="35.3887214977"><ele>1013.37</ele><time>2015-11-27T10:07:43Z</time></trkpt><trkpt lat="29.4966029841" lon="35.3887146246"><ele>1013.37</ele><time>2015-11-27T10:08:26Z</time></trkpt><trkpt lat="29.4965976197" lon="35.3887257725"><ele>1013.37</ele><time>2015-11-27T10:09:05Z</time></trkpt><trkpt lat="29.4965987932" lon="35.3887246829"><ele>1012.89</ele><time>2015-11-27T10:09:56Z</time></trkpt><trkpt lat="29.4965983741" lon="35.3887108527"><ele>1013.37</ele><time>2015-11-27T10:10:36Z</time></trkpt><trkpt lat="29.4965976197" lon="35.3887084220"><ele>1013.37</ele><time>2015-11-27T10:11:17Z</time></trkpt><trkpt lat="29.4965890702" lon="35.3886907361"><ele>1013.37</ele><time>2015-11-27T10:11:51Z</time></trkpt><trkpt lat="29.4965780061" lon="35.3886805940"><ele>1013.85</ele><time>2015-11-27T10:12:06Z</time></trkpt><trkpt lat="29.4965926744" lon="35.3886777442"><ele>1013.85</ele><time>2015-11-27T10:12:27Z</time></trkpt><trkpt lat="29.4965687022" lon="35.3886629082"><ele>1013.85</ele><time>2015-11-27T10:12:51Z</time></trkpt><trkpt lat="29.4963036664" lon="35.3885369282"><ele>1014.33</ele><time>2015-11-27T10:13:04Z</time></trkpt><trkpt lat="29.4960093778" lon="35.3883882333"><ele>1014.33</ele><time>2015-11-27T10:13:18Z</time></trkpt><trkpt lat="29.4957042765" lon="35.3882503510"><ele>1014.81</ele><time>2015-11-27T10:13:32Z</time></trkpt><trkpt lat="29.4953496382" lon="35.3881289810"><ele>1015.29</ele><time>2015-11-27T10:13:46Z</time></trkpt><trkpt lat="29.4949988555" lon="35.3880364448"><ele>1015.77</ele><time>2015-11-27T10:14:00Z</time></trkpt><trkpt lat="29.4946477376" lon="35.3879527096"><ele>1015.77</ele><time>2015-11-27T10:14:14Z</time></trkpt><trkpt lat="29.4943646807" lon="35.3879032563"><ele>1015.29</ele><time>2015-11-27T10:14:26Z</time></trkpt><trkpt lat="29.4940318353" lon="35.3878861573"><ele>1016.25</ele><time>2015-11-27T10:14:38Z</time></trkpt><trkpt lat="29.4937234651" lon="35.3878519591"><ele>1018.65</ele><time>2015-11-27T10:14:52Z</time></trkpt><trkpt lat="29.4935767818" lon="35.3878377937"><ele>1019.62</ele><time>2015-11-27T10:15:04Z</time></trkpt><trkpt lat="29.4935412426" lon="35.3878444154"><ele>1019.62</ele><time>2015-11-27T10:15:17Z</time></trkpt><trkpt lat="29.4934162684" lon="35.3878330160"><ele>1019.62</ele><time>2015-11-27T10:15:34Z</time></trkpt><trkpt lat="29.4931819942" lon="35.3877647035"><ele>1018.17</ele><time>2015-11-27T10:15:47Z</time></trkpt><trkpt lat="29.4930056389" lon="35.3876633663"><ele>1017.21</ele><time>2015-11-27T10:15:51Z</time></trkpt><trkpt lat="29.4925804250" lon="35.3872512281"><ele>1014.33</ele><time>2015-11-27T10:16:00Z</time></trkpt><trkpt lat="29.4923354220" lon="35.3870865237"><ele>1013.37</ele><time>2015-11-27T10:16:04Z</time></trkpt><trkpt lat="29.4917422347" lon="35.3867832664"><ele>1010.96</ele><time>2015-11-27T10:16:15Z</time></trkpt><trkpt lat="29.4914792106" lon="35.3865708690"><ele>1010.00</ele><time>2015-11-27T10:16:21Z</time></trkpt><trkpt lat="29.4909660704" lon="35.3863077611"><ele>1008.08</ele><time>2015-11-27T10:16:35Z</time></trkpt><trkpt lat="29.4906068221" lon="35.3860640153"><ele>1007.12</ele><time>2015-11-27T10:16:49Z</time></trkpt><trkpt lat="29.4905662537" lon="35.3860690445"><ele>1007.60</ele><time>2015-11-27T10:16:57Z</time></trkpt><trkpt lat="29.4905327260" lon="35.3860972915"><ele>1007.60</ele><time>2015-11-27T10:17:04Z</time></trkpt><trkpt lat="29.4905051496" lon="35.3861043323"><ele>1008.08</ele><time>2015-11-27T10:17:08Z</time></trkpt><trkpt lat="29.4902359229" lon="35.3859556373"><ele>1007.12</ele><time>2015-11-27T10:17:23Z</time></trkpt><trkpt lat="29.4897272252" lon="35.3857370373"><ele>1005.68</ele><time>2015-11-27T10:17:38Z</time></trkpt><trkpt lat="29.4892356265" lon="35.3853958938"><ele>1004.72</ele><time>2015-11-27T10:17:54Z</time></trkpt><trkpt lat="29.4888286851" lon="35.3850225639"><ele>1003.27</ele><time>2015-11-27T10:18:08Z</time></trkpt><trkpt lat="29.4888282660" lon="35.3850149363"><ele>1002.79</ele><time>2015-11-27T10:18:12Z</time></trkpt><trkpt lat="29.4888244942" lon="35.3849940654"><ele>1002.79</ele><time>2015-11-27T10:18:14Z</time></trkpt><trkpt lat="29.4887547567" lon="35.3849053010"><ele>1002.79</ele><time>2015-11-27T10:18:29Z</time></trkpt><trkpt lat="29.4886657409" lon="35.3848104179"><ele>1002.31</ele><time>2015-11-27T10:18:47Z</time></trkpt><trkpt lat="29.4885223266" lon="35.3845977690"><ele>1001.83</ele><time>2015-11-27T10:19:08Z</time></trkpt><trkpt lat="29.4883951731" lon="35.3844393510"><ele>1001.35</ele><time>2015-11-27T10:19:25Z</time></trkpt><trkpt lat="29.4881843682" lon="35.3842035681"><ele>1001.83</ele><time>2015-11-27T10:19:38Z</time></trkpt><trkpt lat="29.4879374374" lon="35.3838599101"><ele>1001.83</ele><time>2015-11-27T10:19:50Z</time></trkpt><trkpt lat="29.4877047557" lon="35.3834849875"><ele>1000.87</ele><time>2015-11-27T10:20:02Z</time></trkpt><trkpt lat="29.4876151532" lon="35.3833281621"><ele>1000.39</ele><time>2015-11-27T10:20:07Z</time></trkpt><trkpt lat="29.4874169212" lon="35.3830504697"><ele>999.43</ele><time>2015-11-27T10:20:15Z</time></trkpt><trkpt lat="29.4869114086" lon="35.3825395089"><ele>997.51</ele><time>2015-11-27T10:20:30Z</time></trkpt><trkpt lat="29.4865964167" lon="35.3822285403"><ele>996.54</ele><time>2015-11-27T10:20:41Z</time></trkpt><trkpt lat="29.4863618910" lon="35.3819533624"><ele>995.58</ele><time>2015-11-27T10:20:53Z</time></trkpt><trkpt lat="29.4863840193" lon="35.3819448967"><ele>995.58</ele><time>2015-11-27T10:21:22Z</time></trkpt><trkpt lat="29.4863743801" lon="35.3819630854"><ele>995.58</ele><time>2015-11-27T10:21:54Z</time></trkpt><trkpt lat="29.4863732904" lon="35.3819770832"><ele>995.10</ele><time>2015-11-27T10:22:13Z</time></trkpt><trkpt lat="29.4863726199" lon="35.3819678631"><ele>995.10</ele><time>2015-11-27T10:22:48Z</time></trkpt><trkpt lat="29.4863759726" lon="35.3819715511"><ele>994.62</ele><time>2015-11-27T10:23:22Z</time></trkpt><trkpt lat="29.4863722008" lon="35.3819727246"><ele>995.10</ele><time>2015-11-27T10:24:03Z</time></trkpt><trkpt lat="29.4863653276" lon="35.3819600679"><ele>995.58</ele><time>2015-11-27T10:24:30Z</time></trkpt><trkpt lat="29.4863628969" lon="35.3819575533"><ele>995.58</ele><time>2015-11-27T10:24:57Z</time></trkpt><trkpt lat="29.4863521680" lon="35.3819446452"><ele>995.10</ele><time>2015-11-27T10:25:18Z</time></trkpt><trkpt lat="29.4863617234" lon="35.3819566313"><ele>995.10</ele><time>2015-11-27T10:25:58Z</time></trkpt><trkpt lat="29.4863634836" lon="35.3819500096"><ele>995.10</ele><time>2015-11-27T10:26:35Z</time></trkpt><trkpt lat="29.4863574486" lon="35.3819224332"><ele>995.10</ele><time>2015-11-27T10:27:00Z</time></trkpt><trkpt lat="29.4863271900" lon="35.3818696272"><ele>995.10</ele><time>2015-11-27T10:27:12Z</time></trkpt><trkpt lat="29.4861991983" lon="35.3815841395"><ele>994.62</ele><time>2015-11-27T10:27:25Z</time></trkpt><trkpt lat="29.4860531017" lon="35.3813839797"><ele>994.14</ele><time>2015-11-27T10:27:36Z</time></trkpt><trkpt lat="29.4860691950" lon="35.3813721612"><ele>993.66</ele><time>2015-11-27T10:27:53Z</time></trkpt><trkpt lat="29.4861097634" lon="35.3812669683"><ele>993.18</ele><time>2015-11-27T10:28:08Z</time></trkpt><trkpt lat="29.4861286227" lon="35.3812181018"><ele>993.18</ele><time>2015-11-27T10:28:14Z</time></trkpt><trkpt lat="29.4861338194" lon="35.3810516372"><ele>992.70</ele><time>2015-11-27T10:28:23Z</time></trkpt><trkpt lat="29.4860947598" lon="35.3805115912"><ele>990.78</ele><time>2015-11-27T10:28:38Z</time></trkpt><trkpt lat="29.4859092683" lon="35.3801340703"><ele>988.37</ele><time>2015-11-27T10:28:49Z</time></trkpt><trkpt lat="29.4858004712" lon="35.3798221797"><ele>985.97</ele><time>2015-11-27T10:29:00Z</time></trkpt><trkpt lat="29.4858090207" lon="35.3798075113"><ele>985.97</ele><time>2015-11-27T10:29:03Z</time></trkpt><trkpt lat="29.4858740643" lon="35.3797096107"><ele>986.93</ele><time>2015-11-27T10:29:16Z</time></trkpt><trkpt lat="29.4859816879" lon="35.3794504423"><ele>986.93</ele><time>2015-11-27T10:29:28Z</time></trkpt><trkpt lat="29.4861520082" lon="35.3792711534"><ele>986.93</ele><time>2015-11-27T10:29:40Z</time></trkpt><trkpt lat="29.4861731306" lon="35.3792593349"><ele>986.93</ele><time>2015-11-27T10:29:41Z</time></trkpt><trkpt lat="29.4862178061" lon="35.3792518750"><ele>986.93</ele><time>2015-11-27T10:29:46Z</time></trkpt><trkpt lat="29.4862510823" lon="35.3792089596"><ele>986.93</ele><time>2015-11-27T10:29:50Z</time></trkpt><trkpt lat="29.4862974342" lon="35.3791450057"><ele>986.45</ele><time>2015-11-27T10:29:56Z</time></trkpt><trkpt lat="29.4863368291" lon="35.3790612705"><ele>986.45</ele><time>2015-11-27T10:30:02Z</time></trkpt><trkpt lat="29.4864481408" lon="35.3788659722"><ele>985.49</ele><time>2015-11-27T10:30:13Z</time></trkpt><trkpt lat="29.4864996057" lon="35.3788557462"><ele>985.49</ele><time>2015-11-27T10:30:25Z</time></trkpt><trkpt lat="29.4865388330" lon="35.3788331989"><ele>985.01</ele><time>2015-11-27T10:30:36Z</time></trkpt><trkpt lat="29.4866064750" lon="35.3787678201"><ele>985.01</ele><time>2015-11-27T10:30:47Z</time></trkpt><trkpt lat="29.4867357239" lon="35.3786391579"><ele>984.53</ele><time>2015-11-27T10:31:06Z</time></trkpt><trkpt lat="29.4867876917" lon="35.3785900399"><ele>984.05</ele><time>2015-11-27T10:31:15Z</time></trkpt><trkpt lat="29.4868618716" lon="35.3785403352"><ele>984.53</ele><time>2015-11-27T10:31:24Z</time></trkpt><trkpt lat="29.4869612809" lon="35.3784192167"><ele>984.53</ele><time>2015-11-27T10:31:40Z</time></trkpt><trkpt lat="29.4870485365" lon="35.3783374093"><ele>984.53</ele><time>2015-11-27T10:31:55Z</time></trkpt><trkpt lat="29.4870643783" lon="35.3783127666"><ele>984.53</ele><time>2015-11-27T10:31:59Z</time></trkpt><trkpt lat="29.4871041086" lon="35.3782633971"><ele>984.53</ele><time>2015-11-27T10:32:03Z</time></trkpt><trkpt lat="29.4871851616" lon="35.3782135248"><ele>984.53</ele><time>2015-11-27T10:32:14Z</time></trkpt><trkpt lat="29.4872223772" lon="35.3781751357"><ele>984.53</ele><time>2015-11-27T10:32:27Z</time></trkpt><trkpt lat="29.4872886781" lon="35.3780509997"><ele>984.05</ele><time>2015-11-27T10:32:47Z</time></trkpt><trkpt lat="29.4873600919" lon="35.3779641632"><ele>983.57</ele><time>2015-11-27T10:33:07Z</time></trkpt><trkpt lat="29.4874847308" lon="35.3778621554"><ele>983.57</ele><time>2015-11-27T10:33:24Z</time></trkpt><trkpt lat="29.4874945376" lon="35.3778496664"><ele>983.57</ele><time>2015-11-27T10:33:47Z</time></trkpt><trkpt lat="29.4875190128" lon="35.3778168093"><ele>983.57</ele><time>2015-11-27T10:34:26Z</time></trkpt><trkpt lat="29.4876406342" lon="35.3776764125"><ele>983.57</ele><time>2015-11-27T10:34:43Z</time></trkpt><trkpt lat="29.4877320807" lon="35.3775578924"><ele>984.05</ele><time>2015-11-27T10:35:00Z</time></trkpt><trkpt lat="29.4878126308" lon="35.3774000611"><ele>984.53</ele><time>2015-11-27T10:35:17Z</time></trkpt><trkpt lat="29.4878174085" lon="35.3773892485"><ele>984.53</ele><time>2015-11-27T10:35:18Z</time></trkpt><trkpt lat="29.4878488407" lon="35.3771778569"><ele>983.09</ele><time>2015-11-27T10:35:36Z</time></trkpt><trkpt lat="29.4878321607" lon="35.3771082871"><ele>982.60</ele><time>2015-11-27T10:35:42Z</time></trkpt><trkpt lat="29.4878063444" lon="35.3769194428"><ele>982.12</ele><time>2015-11-27T10:35:59Z</time></trkpt><trkpt lat="29.4878221862" lon="35.3768216260"><ele>981.64</ele><time>2015-11-27T10:36:15Z</time></trkpt><trkpt lat="29.4878148939" lon="35.3766016010"><ele>982.12</ele><time>2015-11-27T10:36:35Z</time></trkpt><trkpt lat="29.4878505170" lon="35.3764140978"><ele>982.60</ele><time>2015-11-27T10:36:52Z</time></trkpt><trkpt lat="29.4879332464" lon="35.3763555922"><ele>982.60</ele><time>2015-11-27T10:37:04Z</time></trkpt><trkpt lat="29.4879793469" lon="35.3763266746"><ele>982.60</ele><time>2015-11-27T10:37:09Z</time></trkpt><trkpt lat="29.4880199153" lon="35.3762773890"><ele>982.60</ele><time>2015-11-27T10:37:12Z</time></trkpt><trkpt lat="29.4880729727" lon="35.3761361539"><ele>982.60</ele><time>2015-11-27T10:37:18Z</time></trkpt><trkpt lat="29.4882453885" lon="35.3759098426"><ele>983.09</ele><time>2015-11-27T10:37:29Z</time></trkpt><trkpt lat="29.4883069955" lon="35.3758230899"><ele>983.09</ele><time>2015-11-27T10:37:34Z</time></trkpt><trkpt lat="29.4884408545" lon="35.3757365048"><ele>984.05</ele><time>2015-11-27T10:37:47Z</time></trkpt><trkpt lat="29.4884730410" lon="35.3757070005"><ele>984.05</ele><time>2015-11-27T10:37:59Z</time></trkpt><trkpt lat="29.4885335583" lon="35.3756601457"><ele>984.05</ele><time>2015-11-27T10:38:09Z</time></trkpt><trkpt lat="29.4885624759" lon="35.3756170627"><ele>984.05</ele><time>2015-11-27T10:38:13Z</time></trkpt><trkpt lat="29.4885839336" lon="35.3755705431"><ele>984.05</ele><time>2015-11-27T10:38:17Z</time></trkpt><trkpt lat="29.4886213169" lon="35.3755370155"><ele>984.05</ele><time>2015-11-27T10:38:23Z</time></trkpt><trkpt lat="29.4886583649" lon="35.3754083533"><ele>983.57</ele><time>2015-11-27T10:38:37Z</time></trkpt><trkpt lat="29.4886690937" lon="35.3752885759"><ele>984.05</ele><time>2015-11-27T10:38:51Z</time></trkpt><trkpt lat="29.4886151981" lon="35.3752444033"><ele>984.05</ele><time>2015-11-27T10:39:01Z</time></trkpt><trkpt lat="29.4884699397" lon="35.3751585726"><ele>983.57</ele><time>2015-11-27T10:39:13Z</time></trkpt><trkpt lat="29.4881950971" lon="35.3749448340"><ele>983.57</ele><time>2015-11-27T10:39:27Z</time></trkpt><trkpt lat="29.4881798420" lon="35.3749127313"><ele>983.09</ele><time>2015-11-27T10:39:29Z</time></trkpt><trkpt lat="29.4880365953" lon="35.3747230489"><ele>982.60</ele><time>2015-11-27T10:39:41Z</time></trkpt><trkpt lat="29.4880457316" lon="35.3747298382"><ele>982.12</ele><time>2015-11-27T10:39:56Z</time></trkpt><trkpt lat="29.4879764132" lon="35.3746670578"><ele>982.60</ele><time>2015-11-27T10:40:09Z</time></trkpt><trkpt lat="29.4879431371" lon="35.3746647108"><ele>982.12</ele><time>2015-11-27T10:40:12Z</time></trkpt><trkpt lat="29.4878552947" lon="35.3745818976"><ele>982.12</ele><time>2015-11-27T10:40:20Z</time></trkpt><trkpt lat="29.4875247963" lon="35.3742440231"><ele>981.16</ele><time>2015-11-27T10:40:34Z</time></trkpt><trkpt lat="29.4874605909" lon="35.3741986770"><ele>980.68</ele><time>2015-11-27T10:40:44Z</time></trkpt><trkpt lat="29.4874387980" lon="35.3741756268"><ele>981.16</ele><time>2015-11-27T10:40:48Z</time></trkpt><trkpt lat="29.4872355368" lon="35.3739735391"><ele>980.20</ele><time>2015-11-27T10:40:59Z</time></trkpt><trkpt lat="29.4872278254" lon="35.3739332221"><ele>980.20</ele><time>2015-11-27T10:41:07Z</time></trkpt><trkpt lat="29.4872457627" lon="35.3738662507"><ele>980.20</ele><time>2015-11-27T10:41:14Z</time></trkpt><trkpt lat="29.4871951360" lon="35.3736582119"><ele>980.20</ele><time>2015-11-27T10:41:31Z</time></trkpt><trkpt lat="29.4870755263" lon="35.3734000493"><ele>979.72</ele><time>2015-11-27T10:41:41Z</time></trkpt><trkpt lat="29.4870245643" lon="35.3730541281"><ele>979.24</ele><time>2015-11-27T10:41:49Z</time></trkpt><trkpt lat="29.4870665576" lon="35.3723565862"><ele>979.24</ele><time>2015-11-27T10:42:05Z</time></trkpt><trkpt lat="29.4869904500" lon="35.3717033006"><ele>978.28</ele><time>2015-11-27T10:42:21Z</time></trkpt><trkpt lat="29.4866654836" lon="35.3712174855"><ele>976.84</ele><time>2015-11-27T10:42:36Z</time></trkpt><trkpt lat="29.4862928241" lon="35.3709722310"><ele>975.88</ele><time>2015-11-27T10:42:51Z</time></trkpt><trkpt lat="29.4860302191" lon="35.3708147351"><ele>974.91</ele><time>2015-11-27T10:43:02Z</time></trkpt><trkpt lat="29.4860176463" lon="35.3707779385"><ele>974.91</ele><time>2015-11-27T10:43:06Z</time></trkpt><trkpt lat="29.4860544428" lon="35.3705077060"><ele>974.43</ele><time>2015-11-27T10:43:19Z</time></trkpt><trkpt lat="29.4860002119" lon="35.3702585958"><ele>974.43</ele><time>2015-11-27T10:43:31Z</time></trkpt><trkpt lat="29.4860054925" lon="35.3698986769"><ele>973.95</ele><time>2015-11-27T10:43:44Z</time></trkpt><trkpt lat="29.4861847814" lon="35.3694614768"><ele>973.47</ele><time>2015-11-27T10:43:58Z</time></trkpt><trkpt lat="29.4862007070" lon="35.3694189806"><ele>973.95</ele><time>2015-11-27T10:44:06Z</time></trkpt><trkpt lat="29.4862168003" lon="35.3693955112"><ele>974.43</ele><time>2015-11-27T10:44:20Z</time></trkpt><trkpt lat="29.4862240925" lon="35.3693952598"><ele>974.43</ele><time>2015-11-27T10:44:33Z</time></trkpt><trkpt lat="29.4862225838" lon="35.3694014624"><ele>974.43</ele><time>2015-11-27T10:44:56Z</time></trkpt><trkpt lat="29.4862803351" lon="35.3693137038"><ele>974.91</ele><time>2015-11-27T10:45:10Z</time></trkpt><trkpt lat="29.4863602147" lon="35.3690567985"><ele>974.91</ele><time>2015-11-27T10:45:24Z</time></trkpt><trkpt lat="29.4863873720" lon="35.3686204366"><ele>974.91</ele><time>2015-11-27T10:45:39Z</time></trkpt><trkpt lat="29.4861635752" lon="35.3682917822"><ele>973.47</ele><time>2015-11-27T10:45:52Z</time></trkpt><trkpt lat="29.4860339910" lon="35.3679078072"><ele>972.51</ele><time>2015-11-27T10:46:03Z</time></trkpt><trkpt lat="29.4858448114" lon="35.3675445355"><ele>971.55</ele><time>2015-11-27T10:46:15Z</time></trkpt><trkpt lat="29.4856503513" lon="35.3672406916"><ele>970.59</ele><time>2015-11-27T10:46:26Z</time></trkpt><trkpt lat="29.4855584856" lon="35.3667440638"><ele>970.11</ele><time>2015-11-27T10:46:40Z</time></trkpt><trkpt lat="29.4854720682" lon="35.3661231324"><ele>968.18</ele><time>2015-11-27T10:46:57Z</time></trkpt><trkpt lat="29.4854127243" lon="35.3655786440"><ele>966.74</ele><time>2015-11-27T10:47:12Z</time></trkpt><trkpt lat="29.4853742514" lon="35.3650930803"><ele>966.26</ele><time>2015-11-27T10:47:26Z</time></trkpt><trkpt lat="29.4852694776" lon="35.3645952791"><ele>965.78</ele><time>2015-11-27T10:47:40Z</time></trkpt><trkpt lat="29.4852108881" lon="35.3642892558"><ele>964.82</ele><time>2015-11-27T10:47:52Z</time></trkpt><trkpt lat="29.4851067849" lon="35.3639662173"><ele>964.34</ele><time>2015-11-27T10:48:04Z</time></trkpt><trkpt lat="29.4849445112" lon="35.3637543228"><ele>963.38</ele><time>2015-11-27T10:48:14Z</time></trkpt><trkpt lat="29.4849458523" lon="35.3637589328"><ele>962.90</ele><time>2015-11-27T10:48:37Z</time></trkpt><trkpt lat="29.4849581737" lon="35.3637319431"><ele>963.38</ele><time>2015-11-27T10:49:11Z</time></trkpt><trkpt lat="29.4849599339" lon="35.3637222201"><ele>963.38</ele><time>2015-11-27T10:49:38Z</time></trkpt><trkpt lat="29.4849592634" lon="35.3637126647"><ele>962.90</ele><time>2015-11-27T10:49:46Z</time></trkpt><trkpt lat="29.4849799667" lon="35.3633850161"><ele>962.90</ele><time>2015-11-27T10:50:00Z</time></trkpt><trkpt lat="29.4850839023" lon="35.3629637416"><ele>962.42</ele><time>2015-11-27T10:50:12Z</time></trkpt><trkpt lat="29.4851563219" lon="35.3626135457"><ele>962.90</ele><time>2015-11-27T10:50:25Z</time></trkpt><trkpt lat="29.4852299988" lon="35.3622955363"><ele>962.42</ele><time>2015-11-27T10:50:35Z</time></trkpt><trkpt lat="29.4852064457" lon="35.3621431533"><ele>962.42</ele><time>2015-11-27T10:50:43Z</time></trkpt><trkpt lat="29.4851982314" lon="35.3621274792"><ele>962.42</ele><time>2015-11-27T10:50:45Z</time></trkpt><trkpt lat="29.4851924479" lon="35.3620563168"><ele>962.42</ele><time>2015-11-27T10:50:49Z</time></trkpt><trkpt lat="29.4853370357" lon="35.3615690768"><ele>962.90</ele><time>2015-11-27T10:51:04Z</time></trkpt><trkpt lat="29.4854128920" lon="35.3611838445"><ele>962.90</ele><time>2015-11-27T10:51:16Z</time></trkpt><trkpt lat="29.4854979683" lon="35.3606680222"><ele>962.90</ele><time>2015-11-27T10:51:31Z</time></trkpt><trkpt lat="29.4856742397" lon="35.3602311574"><ele>963.38</ele><time>2015-11-27T10:51:45Z</time></trkpt><trkpt lat="29.4857678656" lon="35.3598991502"><ele>962.90</ele><time>2015-11-27T10:51:55Z</time></trkpt><trkpt lat="29.4858270418" lon="35.3597833961"><ele>962.90</ele><time>2015-11-27T10:52:02Z</time></trkpt><trkpt lat="29.4858126249" lon="35.3596883453"><ele>962.90</ele><time>2015-11-27T10:52:12Z</time></trkpt><trkpt lat="29.4857979566" lon="35.3595337830"><ele>962.90</ele><time>2015-11-27T10:52:28Z</time></trkpt><trkpt lat="29.4857573882" lon="35.3591659013"><ele>962.42</ele><time>2015-11-27T10:52:39Z</time></trkpt><trkpt lat="29.4857253693" lon="35.3588245064"><ele>961.94</ele><time>2015-11-27T10:52:52Z</time></trkpt><trkpt lat="29.4857351761" lon="35.3583810199"><ele>961.46</ele><time>2015-11-27T10:53:08Z</time></trkpt><trkpt lat="29.4857511856" lon="35.3578873258"><ele>960.49</ele><time>2015-11-27T10:53:24Z</time></trkpt><trkpt lat="29.4857805222" lon="35.3573373891"><ele>959.05</ele><time>2015-11-27T10:53:42Z</time></trkpt><trkpt lat="29.4858132116" lon="35.3567677550"><ele>958.09</ele><time>2015-11-27T10:54:01Z</time></trkpt><trkpt lat="29.4858393632" lon="35.3561797645"><ele>957.13</ele><time>2015-11-27T10:54:17Z</time></trkpt><trkpt lat="29.4858726393" lon="35.3557118867"><ele>955.21</ele><time>2015-11-27T10:54:30Z</time></trkpt><trkpt lat="29.4859105255" lon="35.3551394027"><ele>953.28</ele><time>2015-11-27T10:54:47Z</time></trkpt><trkpt lat="29.4859220088" lon="35.3548886999"><ele>952.32</ele><time>2015-11-27T10:54:58Z</time></trkpt><trkpt lat="29.4858546183" lon="35.3548615426"><ele>952.80</ele><time>2015-11-27T10:55:07Z</time></trkpt><trkpt lat="29.4858088531" lon="35.3547651507"><ele>952.80</ele><time>2015-11-27T10:55:15Z</time></trkpt><trkpt lat="29.4858150557" lon="35.3543018829"><ele>951.36</ele><time>2015-11-27T10:55:31Z</time></trkpt><trkpt lat="29.4858081825" lon="35.3537726495"><ele>949.92</ele><time>2015-11-27T10:55:46Z</time></trkpt><trkpt lat="29.4858139660" lon="35.3533994034"><ele>948.96</ele><time>2015-11-27T10:55:56Z</time></trkpt><trkpt lat="29.4857705478" lon="35.3529208805"><ele>948.00</ele><time>2015-11-27T10:56:08Z</time></trkpt><trkpt lat="29.4858332444" lon="35.3525887057"><ele>946.56</ele><time>2015-11-27T10:56:19Z</time></trkpt><trkpt lat="29.4858421292" lon="35.3525139391"><ele>946.56</ele><time>2015-11-27T10:56:30Z</time></trkpt><trkpt lat="29.4858552888" lon="35.3524598759"><ele>946.56</ele><time>2015-11-27T10:56:45Z</time></trkpt><trkpt lat="29.4858704600" lon="35.3522860352"><ele>946.07</ele><time>2015-11-27T10:57:03Z</time></trkpt><trkpt lat="29.4859067537" lon="35.3520712070"><ele>946.07</ele><time>2015-11-27T10:57:24Z</time></trkpt><trkpt lat="29.4859444723" lon="35.3519403655"><ele>945.59</ele><time>2015-11-27T10:57:45Z</time></trkpt><trkpt lat="29.4859493338" lon="35.3518847097"><ele>945.59</ele><time>2015-11-27T10:57:59Z</time></trkpt><trkpt lat="29.4859386049" lon="35.3518237732"><ele>945.59</ele><time>2015-11-27T10:58:04Z</time></trkpt><trkpt lat="29.4858972821" lon="35.3516944405"><ele>945.59</ele><time>2015-11-27T10:58:15Z</time></trkpt><trkpt lat="29.4859025627" lon="35.3516556323"><ele>945.59</ele><time>2015-11-27T10:58:19Z</time></trkpt><trkpt lat="29.4859214220" lon="35.3514747508"><ele>945.11</ele><time>2015-11-27T10:58:38Z</time></trkpt><trkpt lat="29.4859255292" lon="35.3512654547"><ele>944.63</ele><time>2015-11-27T10:58:48Z</time></trkpt><trkpt lat="29.4859337434" lon="35.3511421569"><ele>944.63</ele><time>2015-11-27T10:58:52Z</time></trkpt><trkpt lat="29.4859244395" lon="35.3510379698"><ele>944.15</ele><time>2015-11-27T10:59:05Z</time></trkpt><trkpt lat="29.4859263673" lon="35.3510225471"><ele>944.15</ele><time>2015-11-27T10:59:09Z</time></trkpt><trkpt lat="29.4859608170" lon="35.3509197850"><ele>943.67</ele><time>2015-11-27T10:59:19Z</time></trkpt><trkpt lat="29.4859778322" lon="35.3508751094"><ele>943.19</ele><time>2015-11-27T10:59:23Z</time></trkpt><trkpt lat="29.4860092644" lon="35.3508011810"><ele>943.67</ele><time>2015-11-27T10:59:31Z</time></trkpt><trkpt lat="29.4861593843" lon="35.3507363889"><ele>943.19</ele><time>2015-11-27T10:59:48Z</time></trkpt><trkpt lat="29.4861756451" lon="35.3507318627"><ele>943.19</ele><time>2015-11-27T10:59:50Z</time></trkpt><trkpt lat="29.4862359110" lon="35.3507171944"><ele>943.19</ele><time>2015-11-27T10:59:56Z</time></trkpt><trkpt lat="29.4862681814" lon="35.3506805655"><ele>943.19</ele><time>2015-11-27T11:00:02Z</time></trkpt><trkpt lat="29.4864538405" lon="35.3502971772"><ele>942.23</ele><time>2015-11-27T11:00:15Z</time></trkpt><trkpt lat="29.4865571056" lon="35.3498434648"><ele>941.27</ele><time>2015-11-27T11:00:27Z</time></trkpt><trkpt lat="29.4866395835" lon="35.3494069353"><ele>940.31</ele><time>2015-11-27T11:00:38Z</time></trkpt><trkpt lat="29.4867109135" lon="35.3491839767"><ele>939.83</ele><time>2015-11-27T11:00:49Z</time></trkpt><trkpt lat="29.4867156073" lon="35.3490978945"><ele>939.83</ele><time>2015-11-27T11:01:02Z</time></trkpt><trkpt lat="29.4867451955" lon="35.3488982376"><ele>939.35</ele><time>2015-11-27T11:01:18Z</time></trkpt><trkpt lat="29.4867763761" lon="35.3488068748"><ele>939.35</ele><time>2015-11-27T11:01:32Z</time></trkpt><trkpt lat="29.4868368935" lon="35.3486679029"><ele>939.35</ele><time>2015-11-27T11:01:48Z</time></trkpt><trkpt lat="29.4868979976" lon="35.3485588543"><ele>938.86</ele><time>2015-11-27T11:02:06Z</time></trkpt><trkpt lat="29.4869174436" lon="35.3485596925"><ele>938.86</ele><time>2015-11-27T11:02:09Z</time></trkpt><trkpt lat="29.4870419987" lon="35.3485121671"><ele>938.38</ele><time>2015-11-27T11:02:23Z</time></trkpt><trkpt lat="29.4871265721" lon="35.3484854288"><ele>938.38</ele><time>2015-11-27T11:02:35Z</time></trkpt><trkpt lat="29.4872373808" lon="35.3484560084"><ele>938.38</ele><time>2015-11-27T11:02:50Z</time></trkpt><trkpt lat="29.4872782845" lon="35.3484251630"><ele>938.38</ele><time>2015-11-27T11:02:56Z</time></trkpt><trkpt lat="29.4873560686" lon="35.3483555932"><ele>938.38</ele><time>2015-11-27T11:03:03Z</time></trkpt><trkpt lat="29.4875574857" lon="35.3481374122"><ele>937.42</ele><time>2015-11-27T11:03:16Z</time></trkpt><trkpt lat="29.4876642711" lon="35.3479023837"><ele>936.94</ele><time>2015-11-27T11:03:26Z</time></trkpt><trkpt lat="29.4876955356" lon="35.3478131164"><ele>936.46</ele><time>2015-11-27T11:03:29Z</time></trkpt><trkpt lat="29.4878240302" lon="35.3476429638"><ele>935.98</ele><time>2015-11-27T11:03:38Z</time></trkpt><trkpt lat="29.4878690410" lon="35.3475745674"><ele>935.98</ele><time>2015-11-27T11:03:48Z</time></trkpt><trkpt lat="29.4879334979" lon="35.3474592324"><ele>935.50</ele><time>2015-11-27T11:04:03Z</time></trkpt><trkpt lat="29.4879607391" lon="35.3474077675"><ele>935.50</ele><time>2015-11-27T11:04:13Z</time></trkpt><trkpt lat="29.4880077615" lon="35.3473441489"><ele>935.50</ele><time>2015-11-27T11:04:18Z</time></trkpt><trkpt lat="29.4883074146" lon="35.3472238686"><ele>935.50</ele><time>2015-11-27T11:04:32Z</time></trkpt><trkpt lat="29.4884381723" lon="35.3471618425"><ele>935.50</ele><time>2015-11-27T11:04:38Z</time></trkpt><trkpt lat="29.4886167068" lon="35.3466289211"><ele>934.54</ele><time>2015-11-27T11:04:52Z</time></trkpt><trkpt lat="29.4888104964" lon="35.3459825087"><ele>933.58</ele><time>2015-11-27T11:05:05Z</time></trkpt><trkpt lat="29.4890519790" lon="35.3451806121"><ele>931.65</ele><time>2015-11-27T11:05:21Z</time></trkpt><trkpt lat="29.4891086407" lon="35.3449705616"><ele>931.17</ele><time>2015-11-27T11:05:25Z</time></trkpt><trkpt lat="29.4893122371" lon="35.3444769513"><ele>930.21</ele><time>2015-11-27T11:05:35Z</time></trkpt><trkpt lat="29.4893353712" lon="35.3442298528"><ele>929.25</ele><time>2015-11-27T11:05:39Z</time></trkpt><trkpt lat="29.4895211980" lon="35.3435715381"><ele>927.81</ele><time>2015-11-27T11:05:52Z</time></trkpt><trkpt lat="29.4896592479" lon="35.3432936780"><ele>926.85</ele><time>2015-11-27T11:06:01Z</time></trkpt><trkpt lat="29.4896446634" lon="35.3432812728"><ele>926.85</ele><time>2015-11-27T11:06:06Z</time></trkpt><trkpt lat="29.4896226190" lon="35.3432288021"><ele>927.33</ele><time>2015-11-27T11:06:11Z</time></trkpt><trkpt lat="29.4895603415" lon="35.3430385329"><ele>927.33</ele><time>2015-11-27T11:06:27Z</time></trkpt><trkpt lat="29.4896319229" lon="35.3428004868"><ele>926.37</ele><time>2015-11-27T11:06:36Z</time></trkpt><trkpt lat="29.4896543026" lon="35.3427735809"><ele>926.37</ele><time>2015-11-27T11:06:42Z</time></trkpt><trkpt lat="29.4896783587" lon="35.3426681366"><ele>926.37</ele><time>2015-11-27T11:06:54Z</time></trkpt><trkpt lat="29.4897092041" lon="35.3425807133"><ele>925.89</ele><time>2015-11-27T11:07:02Z</time></trkpt><trkpt lat="29.4897269737" lon="35.3425642010"><ele>926.37</ele><time>2015-11-27T11:07:04Z</time></trkpt><trkpt lat="29.4898000639" lon="35.3425118141"><ele>926.37</ele><time>2015-11-27T11:07:13Z</time></trkpt><trkpt lat="29.4898199290" lon="35.3424380533"><ele>926.37</ele><time>2015-11-27T11:07:18Z</time></trkpt><trkpt lat="29.4898219407" lon="35.3419028688"><ele>926.85</ele><time>2015-11-27T11:07:33Z</time></trkpt><trkpt lat="29.4898177497" lon="35.3413048200"><ele>926.85</ele><time>2015-11-27T11:07:48Z</time></trkpt><trkpt lat="29.4898185879" lon="35.3408894967"><ele>926.37</ele><time>2015-11-27T11:08:00Z</time></trkpt><trkpt lat="29.4898169953" lon="35.3403673042"><ele>926.85</ele><time>2015-11-27T11:08:15Z</time></trkpt><trkpt lat="29.4898255449" lon="35.3399797250"><ele>926.85</ele><time>2015-11-27T11:08:26Z</time></trkpt><trkpt lat="29.4898051769" lon="35.3395455424"><ele>926.85</ele><time>2015-11-27T11:08:38Z</time></trkpt><trkpt lat="29.4898202643" lon="35.3393397667"><ele>926.37</ele><time>2015-11-27T11:08:43Z</time></trkpt><trkpt lat="29.4899785984" lon="35.3388155624"><ele>926.85</ele><time>2015-11-27T11:08:58Z</time></trkpt><trkpt lat="29.4902050775" lon="35.3381573316"><ele>926.85</ele><time>2015-11-27T11:09:15Z</time></trkpt><trkpt lat="29.4904532656" lon="35.3374209814"><ele>926.85</ele><time>2015-11-27T11:09:32Z</time></trkpt><trkpt lat="29.4906701893" lon="35.3367597330"><ele>925.89</ele><time>2015-11-27T11:09:49Z</time></trkpt><trkpt lat="29.4908477180" lon="35.3362150770"><ele>925.41</ele><time>2015-11-27T11:10:02Z</time></trkpt><trkpt lat="29.4910257496" lon="35.3355819918"><ele>925.89</ele><time>2015-11-27T11:10:18Z</time></trkpt><trkpt lat="29.4911914598" lon="35.3351463005"><ele>924.93</ele><time>2015-11-27T11:10:29Z</time></trkpt><trkpt lat="29.4913373049" lon="35.3346553724"><ele>923.96</ele><time>2015-11-27T11:10:42Z</time></trkpt><trkpt lat="29.4915506244" lon="35.3340106364"><ele>922.52</ele><time>2015-11-27T11:10:57Z</time></trkpt><trkpt lat="29.4917441625" lon="35.3334783018"><ele>921.56</ele><time>2015-11-27T11:11:09Z</time></trkpt><trkpt lat="29.4918959588" lon="35.3329916485"><ele>921.56</ele><time>2015-11-27T11:11:20Z</time></trkpt><trkpt lat="29.4921746571" lon="35.3321791906"><ele>920.60</ele><time>2015-11-27T11:11:38Z</time></trkpt><trkpt lat="29.4923634175" lon="35.3314775415"><ele>918.20</ele><time>2015-11-27T11:11:52Z</time></trkpt><trkpt lat="29.4925255235" lon="35.3309664130"><ele>918.20</ele><time>2015-11-27T11:12:06Z</time></trkpt><trkpt lat="29.4925455563" lon="35.3308506589"><ele>918.68</ele><time>2015-11-27T11:12:15Z</time></trkpt><trkpt lat="29.4925230928" lon="35.3307461366"><ele>918.20</ele><time>2015-11-27T11:12:29Z</time></trkpt><trkpt lat="29.4924893975" lon="35.3306033090"><ele>918.68</ele><time>2015-11-27T11:12:46Z</time></trkpt><trkpt lat="29.4925589673" lon="35.3303818591"><ele>919.16</ele><time>2015-11-27T11:13:00Z</time></trkpt><trkpt lat="29.4927188940" lon="35.3299689665"><ele>919.64</ele><time>2015-11-27T11:13:14Z</time></trkpt><trkpt lat="29.4928926509" lon="35.3296080418"><ele>921.08</ele><time>2015-11-27T11:13:27Z</time></trkpt><trkpt lat="29.4929567724" lon="35.3291850071"><ele>920.60</ele><time>2015-11-27T11:13:40Z</time></trkpt><trkpt lat="29.4929576106" lon="35.3291949816"><ele>920.60</ele><time>2015-11-27T11:13:55Z</time></trkpt><trkpt lat="29.4929953292" lon="35.3291046247"><ele>920.60</ele><time>2015-11-27T11:14:20Z</time></trkpt><trkpt lat="29.4930415973" lon="35.3290082328"><ele>921.08</ele><time>2015-11-27T11:14:35Z</time></trkpt><trkpt lat="29.4931389950" lon="35.3289108351"><ele>921.56</ele><time>2015-11-27T11:14:51Z</time></trkpt><trkpt lat="29.4932736084" lon="35.3286407702"><ele>921.56</ele><time>2015-11-27T11:15:07Z</time></trkpt><trkpt lat="29.4935229700" lon="35.3278394602"><ele>922.04</ele><time>2015-11-27T11:15:28Z</time></trkpt><trkpt lat="29.4935456011" lon="35.3277688846"><ele>922.04</ele><time>2015-11-27T11:15:30Z</time></trkpt><trkpt lat="29.4935604371" lon="35.3277135640"><ele>922.04</ele><time>2015-11-27T11:15:36Z</time></trkpt><trkpt lat="29.4936807174" lon="35.3273320198"><ele>922.04</ele><time>2015-11-27T11:15:49Z</time></trkpt><trkpt lat="29.4939132314" lon="35.3266283590"><ele>923.00</ele><time>2015-11-27T11:16:08Z</time></trkpt><trkpt lat="29.4941566419" lon="35.3258883208"><ele>923.00</ele><time>2015-11-27T11:16:28Z</time></trkpt><trkpt lat="29.4942708872" lon="35.3255480994"><ele>923.00</ele><time>2015-11-27T11:16:36Z</time></trkpt><trkpt lat="29.4944533613" lon="35.3249529004"><ele>922.52</ele><time>2015-11-27T11:16:51Z</time></trkpt><trkpt lat="29.4945671037" lon="35.3246051352"><ele>922.52</ele><time>2015-11-27T11:17:03Z</time></trkpt><trkpt lat="29.4947598036" lon="35.3240093496"><ele>923.00</ele><time>2015-11-27T11:17:19Z</time></trkpt><trkpt lat="29.4948659185" lon="35.3236667812"><ele>923.00</ele><time>2015-11-27T11:17:30Z</time></trkpt><trkpt lat="29.4949991070" lon="35.3232309222"><ele>923.00</ele><time>2015-11-27T11:17:42Z</time></trkpt><trkpt lat="29.4950526673" lon="35.3231226280"><ele>922.04</ele><time>2015-11-27T11:17:46Z</time></trkpt><trkpt lat="29.4951709360" lon="35.3227691632"><ele>922.52</ele><time>2015-11-27T11:17:57Z</time></trkpt><trkpt lat="29.4953554217" lon="35.3222138621"><ele>921.56</ele><time>2015-11-27T11:18:13Z</time></trkpt><trkpt lat="29.4954495504" lon="35.3219142929"><ele>922.52</ele><time>2015-11-27T11:18:23Z</time></trkpt><trkpt lat="29.4956046995" lon="35.3214433976"><ele>922.52</ele><time>2015-11-27T11:18:37Z</time></trkpt><trkpt lat="29.4956910331" lon="35.3212150745"><ele>921.56</ele><time>2015-11-27T11:18:43Z</time></trkpt><trkpt lat="29.4958339445" lon="35.3207852505"><ele>922.04</ele><time>2015-11-27T11:18:54Z</time></trkpt><trkpt lat="29.4959103037" lon="35.3204785567"><ele>920.60</ele><time>2015-11-27T11:19:04Z</time></trkpt><trkpt lat="29.4960791990" lon="35.3199312184"><ele>920.60</ele><time>2015-11-27T11:19:21Z</time></trkpt><trkpt lat="29.4962133095" lon="35.3194926772"><ele>919.64</ele><time>2015-11-27T11:19:35Z</time></trkpt><trkpt lat="29.4962186739" lon="35.3194640111"><ele>919.64</ele><time>2015-11-27T11:19:36Z</time></trkpt><trkpt lat="29.4962353539" lon="35.3193975426"><ele>920.12</ele><time>2015-11-27T11:19:40Z</time></trkpt><trkpt lat="29.4963305723" lon="35.3190054372"><ele>919.64</ele><time>2015-11-27T11:19:51Z</time></trkpt><trkpt lat="29.4964091945" lon="35.3186611086"><ele>920.12</ele><time>2015-11-27T11:20:03Z</time></trkpt><trkpt lat="29.4965495914" lon="35.3180180490"><ele>920.12</ele><time>2015-11-27T11:20:19Z</time></trkpt><trkpt lat="29.4967068359" lon="35.3174355067"><ele>918.68</ele><time>2015-11-27T11:20:32Z</time></trkpt><trkpt lat="29.4969168026" lon="35.3167916089"><ele>918.68</ele><time>2015-11-27T11:20:48Z</time></trkpt><trkpt lat="29.4971677568" lon="35.3163521457"><ele>920.12</ele><time>2015-11-27T11:21:02Z</time></trkpt><trkpt lat="29.4974049646" lon="35.3159384150"><ele>921.08</ele><time>2015-11-27T11:21:17Z</time></trkpt><trkpt lat="29.4977710862" lon="35.3152671922"><ele>921.08</ele><time>2015-11-27T11:21:38Z</time></trkpt><trkpt lat="29.4980158377" lon="35.3147382941"><ele>919.64</ele><time>2015-11-27T11:21:52Z</time></trkpt><trkpt lat="29.4980432466" lon="35.3142730985"><ele>919.16</ele><time>2015-11-27T11:22:05Z</time></trkpt><trkpt lat="29.4980061147" lon="35.3139885329"><ele>920.60</ele><time>2015-11-27T11:22:15Z</time></trkpt><trkpt lat="29.4980688114" lon="35.3134945035"><ele>920.12</ele><time>2015-11-27T11:22:29Z</time></trkpt><trkpt lat="29.4981076196" lon="35.3131645918"><ele>919.16</ele><time>2015-11-27T11:22:41Z</time></trkpt><trkpt lat="29.4980987348" lon="35.3131159768"><ele>919.64</ele><time>2015-11-27T11:22:43Z</time></trkpt><trkpt lat="29.4981343579" lon="35.3126317542"><ele>919.64</ele><time>2015-11-27T11:22:58Z</time></trkpt><trkpt lat="29.4981842302" lon="35.3121448494"><ele>919.64</ele><time>2015-11-27T11:23:13Z</time></trkpt><trkpt lat="29.4982459210" lon="35.3116563521"><ele>919.16</ele><time>2015-11-27T11:23:26Z</time></trkpt><trkpt lat="29.4984123856" lon="35.3110813536"><ele>920.12</ele><time>2015-11-27T11:23:43Z</time></trkpt><trkpt lat="29.4985309057" lon="35.3106806148"><ele>920.60</ele><time>2015-11-27T11:23:56Z</time></trkpt><trkpt lat="29.4986465760" lon="35.3102502041"><ele>920.12</ele><time>2015-11-27T11:24:09Z</time></trkpt><trkpt lat="29.4987791777" lon="35.3097893670"><ele>919.16</ele><time>2015-11-27T11:24:22Z</time></trkpt><trkpt lat="29.4989835285" lon="35.3090733010"><ele>918.68</ele><time>2015-11-27T11:24:40Z</time></trkpt><trkpt lat="29.4991652481" lon="35.3084820416"><ele>920.12</ele><time>2015-11-27T11:24:57Z</time></trkpt><trkpt lat="29.4993462972" lon="35.3079032712"><ele>920.60</ele><time>2015-11-27T11:25:13Z</time></trkpt><trkpt lat="29.4994830061" lon="35.3074214794"><ele>920.12</ele><time>2015-11-27T11:25:27Z</time></trkpt><trkpt lat="29.4996435195" lon="35.3068546113"><ele>919.64</ele><time>2015-11-27T11:25:41Z</time></trkpt><trkpt lat="29.4998626225" lon="35.3062373679"><ele>918.68</ele><time>2015-11-27T11:25:56Z</time></trkpt><trkpt lat="29.4999597687" lon="35.3058470227"><ele>918.68</ele><time>2015-11-27T11:26:06Z</time></trkpt><trkpt lat="29.5001072902" lon="35.3053516522"><ele>918.68</ele><time>2015-11-27T11:26:19Z</time></trkpt><trkpt lat="29.5002227928" lon="35.3049283661"><ele>920.60</ele><time>2015-11-27T11:26:31Z</time></trkpt><trkpt lat="29.5003574900" lon="35.3044634219"><ele>921.56</ele><time>2015-11-27T11:26:47Z</time></trkpt><trkpt lat="29.5005133934" lon="35.3039360326"><ele>921.56</ele><time>2015-11-27T11:27:02Z</time></trkpt><trkpt lat="29.5006579813" lon="35.3034580965"><ele>921.56</ele><time>2015-11-27T11:27:15Z</time></trkpt><trkpt lat="29.5007998869" lon="35.3028799128"><ele>921.08</ele><time>2015-11-27T11:27:31Z</time></trkpt><trkpt lat="29.5009180717" lon="35.3024054132"><ele>921.56</ele><time>2015-11-27T11:27:46Z</time></trkpt><trkpt lat="29.5010066684" lon="35.3020684607"><ele>922.52</ele><time>2015-11-27T11:27:58Z</time></trkpt><trkpt lat="29.5011898130" lon="35.3014429193"><ele>923.00</ele><time>2015-11-27T11:28:18Z</time></trkpt><trkpt lat="29.5012863725" lon="35.3011232335"><ele>923.00</ele><time>2015-11-27T11:28:33Z</time></trkpt><trkpt lat="29.5012934972" lon="35.3011383209"><ele>923.48</ele><time>2015-11-27T11:28:52Z</time></trkpt><trkpt lat="29.5013621449" lon="35.3008893784"><ele>923.96</ele><time>2015-11-27T11:29:11Z</time></trkpt><trkpt lat="29.5014358219" lon="35.3006285336"><ele>924.45</ele><time>2015-11-27T11:29:31Z</time></trkpt><trkpt lat="29.5014681760" lon="35.3003769089"><ele>924.93</ele><time>2015-11-27T11:29:49Z</time></trkpt><trkpt lat="29.5014903042" lon="35.2999413013"><ele>925.41</ele><time>2015-11-27T11:30:02Z</time></trkpt><trkpt lat="29.5015558507" lon="35.2993605193"><ele>924.93</ele><time>2015-11-27T11:30:19Z</time></trkpt><trkpt lat="29.5015825890" lon="35.2987993509"><ele>923.96</ele><time>2015-11-27T11:30:33Z</time></trkpt><trkpt lat="29.5015964191" lon="35.2986633126"><ele>923.96</ele><time>2015-11-27T11:30:36Z</time></trkpt><trkpt lat="29.5016234089" lon="35.2982779127"><ele>923.96</ele><time>2015-11-27T11:30:48Z</time></trkpt><trkpt lat="29.5016679168" lon="35.2977616712"><ele>923.48</ele><time>2015-11-27T11:31:02Z</time></trkpt><trkpt lat="29.5016987622" lon="35.2972842380"><ele>923.00</ele><time>2015-11-27T11:31:15Z</time></trkpt><trkpt lat="29.5018304419" lon="35.2969021071"><ele>921.56</ele><time>2015-11-27T11:31:25Z</time></trkpt><trkpt lat="29.5017607883" lon="35.2966513205"><ele>921.08</ele><time>2015-11-27T11:31:34Z</time></trkpt><trkpt lat="29.5017444436" lon="35.2966231573"><ele>921.08</ele><time>2015-11-27T11:31:43Z</time></trkpt><trkpt lat="29.5017572679" lon="35.2966039628"><ele>920.60</ele><time>2015-11-27T11:32:00Z</time></trkpt><trkpt lat="29.5017721877" lon="35.2966194693"><ele>920.12</ele><time>2015-11-27T11:32:42Z</time></trkpt><trkpt lat="29.5017695054" lon="35.2966212295"><ele>920.12</ele><time>2015-11-27T11:33:20Z</time></trkpt><trkpt lat="29.5017737802" lon="35.2966188826"><ele>920.12</ele><time>2015-11-27T11:33:58Z</time></trkpt><trkpt lat="29.5017610397" lon="35.2966265101"><ele>920.60</ele><time>2015-11-27T11:34:39Z</time></trkpt><trkpt lat="29.5017359778" lon="35.2966093272"><ele>919.64</ele><time>2015-11-27T11:35:05Z</time></trkpt><trkpt lat="29.5017692540" lon="35.2966079861"><ele>919.16</ele><time>2015-11-27T11:35:47Z</time></trkpt><trkpt lat="29.5017624646" lon="35.2966120932"><ele>919.16</ele><time>2015-11-27T11:36:33Z</time></trkpt><trkpt lat="29.5017661527" lon="35.2966133505"><ele>918.68</ele><time>2015-11-27T11:37:24Z</time></trkpt><trkpt lat="29.5017624646" lon="35.2966133505"><ele>918.20</ele><time>2015-11-27T11:38:17Z</time></trkpt><trkpt lat="29.5017615426" lon="35.2966120094"><ele>917.72</ele><time>2015-11-27T11:39:15Z</time></trkpt><trkpt lat="29.5017668232" lon="35.2966013644"><ele>917.24</ele><time>2015-11-27T11:40:03Z</time></trkpt><trkpt lat="29.5017664880" lon="35.2966118418"><ele>917.24</ele><time>2015-11-27T11:40:43Z</time></trkpt><trkpt lat="29.5017540827" lon="35.2966168709"><ele>916.75</ele><time>2015-11-27T11:41:17Z</time></trkpt><trkpt lat="29.5017705951" lon="35.2966061421"><ele>916.75</ele><time>2015-11-27T11:41:58Z</time></trkpt><trkpt lat="29.5017386600" lon="35.2966003586"><ele>916.75</ele><time>2015-11-27T11:42:35Z</time></trkpt><trkpt lat="29.5017499756" lon="35.2965960000"><ele>916.27</ele><time>2015-11-27T11:43:07Z</time></trkpt><trkpt lat="29.5017711818" lon="35.2966053877"><ele>915.79</ele><time>2015-11-27T11:43:54Z</time></trkpt><trkpt lat="29.5017662365" lon="35.2966102492"><ele>915.79</ele><time>2015-11-27T11:44:33Z</time></trkpt><trkpt lat="29.5017700922" lon="35.2966066450"><ele>915.31</ele><time>2015-11-27T11:45:26Z</time></trkpt><trkpt lat="29.5017817430" lon="35.2966200560"><ele>914.83</ele><time>2015-11-27T11:46:03Z</time></trkpt><trkpt lat="29.5017635543" lon="35.2966209780"><ele>914.35</ele><time>2015-11-27T11:46:36Z</time></trkpt><trkpt lat="29.5017679967" lon="35.2966160327"><ele>914.35</ele><time>2015-11-27T11:47:16Z</time></trkpt><trkpt lat="29.5017499756" lon="35.2966071479"><ele>913.87</ele><time>2015-11-27T11:47:59Z</time></trkpt><trkpt lat="29.5017489698" lon="35.2966214810"><ele>913.87</ele><time>2015-11-27T11:48:36Z</time></trkpt><trkpt lat="29.5017536636" lon="35.2966203913"><ele>913.87</ele><time>2015-11-27T11:49:10Z</time></trkpt><trkpt lat="29.5017493889" lon="35.2966070641"><ele>913.39</ele><time>2015-11-27T11:49:45Z</time></trkpt><trkpt lat="29.5017422643" lon="35.2966148593"><ele>912.91</ele><time>2015-11-27T11:50:07Z</time></trkpt><trkpt lat="29.5017322898" lon="35.2966234926"><ele>912.91</ele><time>2015-11-27T11:50:49Z</time></trkpt><trkpt lat="29.5017282665" lon="35.2966153622"><ele>913.39</ele><time>2015-11-27T11:51:25Z</time></trkpt><trkpt lat="29.5017459523" lon="35.2966195531"><ele>912.91</ele><time>2015-11-27T11:51:55Z</time></trkpt><trkpt lat="29.5017229859" lon="35.2966156136"><ele>912.43</ele><time>2015-11-27T11:52:41Z</time></trkpt><trkpt lat="29.5017404202" lon="35.2966039628"><ele>912.43</ele><time>2015-11-27T11:53:17Z</time></trkpt><trkpt lat="29.5017467067" lon="35.2966040466"><ele>912.43</ele><time>2015-11-27T11:53:43Z</time></trkpt><trkpt lat="29.5017225668" lon="35.2966115903"><ele>912.43</ele><time>2015-11-27T11:54:22Z</time></trkpt><trkpt lat="29.5017277636" lon="35.2966100816"><ele>912.91</ele><time>2015-11-27T11:54:45Z</time></trkpt><trkpt lat="29.5017581061" lon="35.2966457047"><ele>912.91</ele><time>2015-11-27T11:54:59Z</time></trkpt><trkpt lat="29.5017967466" lon="35.2966918051"><ele>912.91</ele><time>2015-11-27T11:55:17Z</time></trkpt><trkpt lat="29.5018201321" lon="35.2967934776"><ele>912.91</ele><time>2015-11-27T11:55:34Z</time></trkpt><trkpt lat="29.5018709265" lon="35.2967780549"><ele>913.39</ele><time>2015-11-27T11:55:52Z</time></trkpt><trkpt lat="29.5019668993" lon="35.2966607083"><ele>913.39</ele><time>2015-11-27T11:56:08Z</time></trkpt><trkpt lat="29.5019772090" lon="35.2966562659"><ele>913.87</ele><time>2015-11-27T11:56:31Z</time></trkpt><trkpt lat="29.5019804779" lon="35.2966627199"><ele>913.87</ele><time>2015-11-27T11:56:55Z</time></trkpt><trkpt lat="29.5019788854" lon="35.2966378257"><ele>913.87</ele><time>2015-11-27T11:57:20Z</time></trkpt><trkpt lat="29.5021068770" lon="35.2963703591"><ele>912.43</ele><time>2015-11-27T11:57:30Z</time></trkpt><trkpt lat="29.5021208748" lon="35.2962940000"><ele>912.43</ele><time>2015-11-27T11:57:34Z</time></trkpt><trkpt lat="29.5021283347" lon="35.2961804252"><ele>911.95</ele><time>2015-11-27T11:57:40Z</time></trkpt><trkpt lat="29.5021578390" lon="35.2961168066"><ele>911.95</ele><time>2015-11-27T11:57:43Z</time></trkpt><trkpt lat="29.5021347888" lon="35.2955877408"><ele>911.47</ele><time>2015-11-27T11:57:57Z</time></trkpt><trkpt lat="29.5021528099" lon="35.2951095533"><ele>910.51</ele><time>2015-11-27T11:58:08Z</time></trkpt><trkpt lat="29.5021751057" lon="35.2949488722"><ele>910.03</ele><time>2015-11-27T11:58:11Z</time></trkpt><trkpt lat="29.5021431707" lon="35.2942915633"><ele>908.58</ele><time>2015-11-27T11:58:24Z</time></trkpt><trkpt lat="29.5021674782" lon="35.2937327418"><ele>907.14</ele><time>2015-11-27T11:58:37Z</time></trkpt><trkpt lat="29.5022010896" lon="35.2930978965"><ele>906.18</ele><time>2015-11-27T11:58:52Z</time></trkpt><trkpt lat="29.5022471901" lon="35.2923737839"><ele>904.26</ele><time>2015-11-27T11:59:08Z</time></trkpt><trkpt lat="29.5022642054" lon="35.2919639926"><ele>903.30</ele><time>2015-11-27T11:59:19Z</time></trkpt><trkpt lat="29.5022316836" lon="35.2918314748"><ele>903.30</ele><time>2015-11-27T11:59:25Z</time></trkpt><trkpt lat="29.5022402331" lon="35.2916859649"><ele>902.33</ele><time>2015-11-27T11:59:28Z</time></trkpt><trkpt lat="29.5022827294" lon="35.2912811190"><ele>901.37</ele><time>2015-11-27T11:59:37Z</time></trkpt><trkpt lat="29.5023232140" lon="35.2908129059"><ele>900.41</ele><time>2015-11-27T11:59:48Z</time></trkpt><trkpt lat="29.5023537241" lon="35.2903099917"><ele>898.97</ele><time>2015-11-27T12:00:01Z</time></trkpt><trkpt lat="29.5023784507" lon="35.2897963487"><ele>898.01</ele><time>2015-11-27T12:00:13Z</time></trkpt><trkpt lat="29.5023774449" lon="35.2894210909"><ele>897.05</ele><time>2015-11-27T12:00:22Z</time></trkpt><trkpt lat="29.5024123974" lon="35.2891967073"><ele>896.57</ele><time>2015-11-27T12:00:27Z</time></trkpt><trkpt lat="29.5024324302" lon="35.2885980718"><ele>895.12</ele><time>2015-11-27T12:00:41Z</time></trkpt><trkpt lat="29.5024377946" lon="35.2881147712"><ele>893.20</ele><time>2015-11-27T12:00:53Z</time></trkpt><trkpt lat="29.5025216974" lon="35.2877435368"><ele>893.20</ele><time>2015-11-27T12:01:04Z</time></trkpt><trkpt lat="29.5025450829" lon="35.2872470766"><ele>891.76</ele><time>2015-11-27T12:01:16Z</time></trkpt><trkpt lat="29.5025610924" lon="35.2867686376"><ele>890.32</ele><time>2015-11-27T12:01:28Z</time></trkpt><trkpt lat="29.5025405567" lon="35.2865600120"><ele>890.32</ele><time>2015-11-27T12:01:34Z</time></trkpt><trkpt lat="29.5025274809" lon="35.2863700781"><ele>889.84</ele><time>2015-11-27T12:01:38Z</time></trkpt><trkpt lat="29.5025423169" lon="35.2862238977"><ele>888.88</ele><time>2015-11-27T12:01:41Z</time></trkpt><trkpt lat="29.5025658701" lon="35.2859431040"><ele>888.40</ele><time>2015-11-27T12:01:47Z</time></trkpt><trkpt lat="29.5025009103" lon="35.2851573844"><ele>885.99</ele><time>2015-11-27T12:02:04Z</time></trkpt><trkpt lat="29.5025401376" lon="35.2843471896"><ele>883.59</ele><time>2015-11-27T12:02:21Z</time></trkpt><trkpt lat="29.5025785267" lon="35.2837297786"><ele>881.67</ele><time>2015-11-27T12:02:35Z</time></trkpt><trkpt lat="29.5026389603" lon="35.2830381040"><ele>879.26</ele><time>2015-11-27T12:02:50Z</time></trkpt><trkpt lat="29.5027517807" lon="35.2823399752"><ele>877.82</ele><time>2015-11-27T12:03:07Z</time></trkpt><trkpt lat="29.5028070174" lon="35.2820694074"><ele>876.86</ele><time>2015-11-27T12:03:13Z</time></trkpt><trkpt lat="29.5028210152" lon="35.2815623023"><ele>875.42</ele><time>2015-11-27T12:03:23Z</time></trkpt><trkpt lat="29.5028674509" lon="35.2812333964"><ele>874.46</ele><time>2015-11-27T12:03:33Z</time></trkpt><trkpt lat="29.5028175786" lon="35.2807992138"><ele>873.98</ele><time>2015-11-27T12:03:44Z</time></trkpt><trkpt lat="29.5028561354" lon="35.2802326810"><ele>872.53</ele><time>2015-11-27T12:03:56Z</time></trkpt><trkpt lat="29.5028959494" lon="35.2798082214"><ele>871.57</ele><time>2015-11-27T12:04:05Z</time></trkpt><trkpt lat="29.5029376075" lon="35.2794472128"><ele>870.61</ele><time>2015-11-27T12:04:13Z</time></trkpt><trkpt lat="29.5029840432" lon="35.2787265368"><ele>868.69</ele><time>2015-11-27T12:04:29Z</time></trkpt><trkpt lat="29.5029721409" lon="35.2785065118"><ele>867.73</ele><time>2015-11-27T12:04:34Z</time></trkpt><trkpt lat="29.5029824506" lon="35.2783618402"><ele>867.25</ele><time>2015-11-27T12:04:37Z</time></trkpt><trkpt lat="29.5029775053" lon="35.2782042604"><ele>867.25</ele><time>2015-11-27T12:04:40Z</time></trkpt><trkpt lat="29.5030547865" lon="35.2775165252"><ele>865.80</ele><time>2015-11-27T12:04:52Z</time></trkpt><trkpt lat="29.5031328220" lon="35.2768373396"><ele>863.88</ele><time>2015-11-27T12:05:04Z</time></trkpt><trkpt lat="29.5032065827" lon="35.2762710582"><ele>861.96</ele><time>2015-11-27T12:05:16Z</time></trkpt><trkpt lat="29.5032474026" lon="35.2762211859"><ele>862.44</ele><time>2015-11-27T12:05:29Z</time></trkpt><trkpt lat="29.5033571217" lon="35.2761265542"><ele>861.96</ele><time>2015-11-27T12:05:44Z</time></trkpt><trkpt lat="29.5033500809" lon="35.2761140652"><ele>861.96</ele><time>2015-11-27T12:06:00Z</time></trkpt><trkpt lat="29.5033121947" lon="35.2758511249"><ele>861.96</ele><time>2015-11-27T12:06:13Z</time></trkpt><trkpt lat="29.5034327265" lon="35.2755633742"><ele>861.00</ele><time>2015-11-27T12:06:23Z</time></trkpt><trkpt lat="29.5034402702" lon="35.2752377372"><ele>861.00</ele><time>2015-11-27T12:06:34Z</time></trkpt><trkpt lat="29.5034810062" lon="35.2749178838"><ele>860.52</ele><time>2015-11-27T12:06:45Z</time></trkpt><trkpt lat="29.5034892205" lon="35.2746485732"><ele>859.56</ele><time>2015-11-27T12:06:56Z</time></trkpt><trkpt lat="29.5034801681" lon="35.2745636646"><ele>859.08</ele><time>2015-11-27T12:07:05Z</time></trkpt><trkpt lat="29.5034680981" lon="35.2745517623"><ele>859.08</ele><time>2015-11-27T12:07:07Z</time></trkpt><trkpt lat="29.5034388453" lon="35.2745297179"><ele>859.08</ele><time>2015-11-27T12:07:11Z</time></trkpt><trkpt lat="29.5034192316" lon="35.2744859643"><ele>859.08</ele><time>2015-11-27T12:07:17Z</time></trkpt><trkpt lat="29.5034367498" lon="35.2741371933"><ele>859.08</ele><time>2015-11-27T12:07:30Z</time></trkpt><trkpt lat="29.5034524240" lon="35.2738519572"><ele>858.11</ele><time>2015-11-27T12:07:39Z</time></trkpt><trkpt lat="29.5035357401" lon="35.2731293533"><ele>857.15</ele><time>2015-11-27T12:07:56Z</time></trkpt><trkpt lat="29.5035232510" lon="35.2729908004"><ele>856.19</ele><time>2015-11-27T12:08:01Z</time></trkpt><trkpt lat="29.5035359077" lon="35.2729466278"><ele>855.71</ele><time>2015-11-27T12:08:08Z</time></trkpt><trkpt lat="29.5035441220" lon="35.2728222404"><ele>855.71</ele><time>2015-11-27T12:08:20Z</time></trkpt><trkpt lat="29.5035393443" lon="35.2727242559"><ele>855.23</ele><time>2015-11-27T12:08:35Z</time></trkpt><trkpt lat="29.5035148691" lon="35.2725881338"><ele>854.75</ele><time>2015-11-27T12:08:48Z</time></trkpt><trkpt lat="29.5035354048" lon="35.2724473178"><ele>854.75</ele><time>2015-11-27T12:09:00Z</time></trkpt><trkpt lat="29.5035545155" lon="35.2722960245"><ele>854.27</ele><time>2015-11-27T12:09:13Z</time></trkpt><trkpt lat="29.5035826787" lon="35.2719677053"><ele>854.27</ele><time>2015-11-27T12:09:23Z</time></trkpt><trkpt lat="29.5036113448" lon="35.2714777831"><ele>852.83</ele><time>2015-11-27T12:09:38Z</time></trkpt><trkpt lat="29.5036804955" lon="35.2712565009"><ele>852.35</ele><time>2015-11-27T12:09:49Z</time></trkpt><trkpt lat="29.5037303679" lon="35.2711214684"><ele>851.87</ele><time>2015-11-27T12:09:58Z</time></trkpt><trkpt lat="29.5037537534" lon="35.2710612025"><ele>851.87</ele><time>2015-11-27T12:10:11Z</time></trkpt><trkpt lat="29.5037678350" lon="35.2710089833"><ele>851.87</ele><time>2015-11-27T12:10:17Z</time></trkpt><trkpt lat="29.5037843473" lon="35.2709932253"><ele>851.87</ele><time>2015-11-27T12:10:20Z</time></trkpt><trkpt lat="29.5038299449" lon="35.2709578536"><ele>851.38</ele><time>2015-11-27T12:10:27Z</time></trkpt><trkpt lat="29.5038574375" lon="35.2709020302"><ele>851.38</ele><time>2015-11-27T12:10:33Z</time></trkpt><trkpt lat="29.5039063878" lon="35.2707193885"><ele>851.38</ele><time>2015-11-27T12:10:48Z</time></trkpt><trkpt lat="29.5039696712" lon="35.2705424465"><ele>850.90</ele><time>2015-11-27T12:11:05Z</time></trkpt><trkpt lat="29.5040250756" lon="35.2703744732"><ele>850.42</ele><time>2015-11-27T12:11:21Z</time></trkpt><trkpt lat="29.5039914642" lon="35.2702206653"><ele>850.42</ele><time>2015-11-27T12:11:35Z</time></trkpt><trkpt lat="29.5040544961" lon="35.2698419709"><ele>849.94</ele><time>2015-11-27T12:11:47Z</time></trkpt><trkpt lat="29.5040447731" lon="35.2697667014"><ele>849.46</ele><time>2015-11-27T12:11:55Z</time></trkpt><trkpt lat="29.5040388219" lon="35.2697036695"><ele>848.98</ele><time>2015-11-27T12:12:04Z</time></trkpt><trkpt lat="29.5040529873" lon="35.2695526276"><ele>848.98</ele><time>2015-11-27T12:12:18Z</time></trkpt><trkpt lat="29.5040884428" lon="35.2693248913"><ele>848.02</ele><time>2015-11-27T12:12:40Z</time></trkpt><trkpt lat="29.5041010156" lon="35.2692611050"><ele>848.02</ele><time>2015-11-27T12:12:57Z</time></trkpt><trkpt lat="29.5041276701" lon="35.2690667287"><ele>847.54</ele><time>2015-11-27T12:13:16Z</time></trkpt><trkpt lat="29.5041269995" lon="35.2689180337"><ele>847.54</ele><time>2015-11-27T12:13:33Z</time></trkpt><trkpt lat="29.5041295979" lon="35.2689158544"><ele>847.54</ele><time>2015-11-27T12:13:54Z</time></trkpt><trkpt lat="29.5041273348" lon="35.2689187881"><ele>847.54</ele><time>2015-11-27T12:14:19Z</time></trkpt><trkpt lat="29.5041327830" lon="35.2688413393"><ele>847.06</ele><time>2015-11-27T12:14:36Z</time></trkpt><trkpt lat="29.5041306037" lon="35.2688483801"><ele>847.06</ele><time>2015-11-27T12:15:02Z</time></trkpt><trkpt lat="29.5041313581" lon="35.2688337956"><ele>847.06</ele><time>2015-11-27T12:15:18Z</time></trkpt><trkpt lat="29.5041454397" lon="35.2687687520"><ele>847.06</ele><time>2015-11-27T12:15:22Z</time></trkpt><trkpt lat="29.5042195357" lon="35.2684729546"><ele>846.58</ele><time>2015-11-27T12:15:33Z</time></trkpt><trkpt lat="29.5041236468" lon="35.2681584656"><ele>845.62</ele><time>2015-11-27T12:15:43Z</time></trkpt><trkpt lat="29.5041368902" lon="35.2681191545"><ele>846.10</ele><time>2015-11-27T12:15:54Z</time></trkpt><trkpt lat="29.5041741058" lon="35.2680844534"><ele>846.10</ele><time>2015-11-27T12:16:05Z</time></trkpt><trkpt lat="29.5041826554" lon="35.2680565417"><ele>846.10</ele><time>2015-11-27T12:16:13Z</time></trkpt><trkpt lat="29.5041922946" lon="35.2679836191"><ele>846.10</ele><time>2015-11-27T12:16:21Z</time></trkpt><trkpt lat="29.5041796379" lon="35.2677775919"><ele>845.62</ele><time>2015-11-27T12:16:32Z</time></trkpt><trkpt lat="29.5041156001" lon="35.2674231213"><ele>844.66</ele><time>2015-11-27T12:16:44Z</time></trkpt><trkpt lat="29.5041172765" lon="35.2669601887"><ele>844.18</ele><time>2015-11-27T12:16:57Z</time></trkpt><trkpt lat="29.5040576812" lon="35.2665956598"><ele>843.21</ele><time>2015-11-27T12:17:09Z</time></trkpt><trkpt lat="29.5040734392" lon="35.2662917320"><ele>842.25</ele><time>2015-11-27T12:17:19Z</time></trkpt><trkpt lat="29.5041059610" lon="35.2660006285"><ele>841.77</ele><time>2015-11-27T12:17:29Z</time></trkpt><trkpt lat="29.5041229762" lon="35.2656670287"><ele>841.29</ele><time>2015-11-27T12:17:42Z</time></trkpt><trkpt lat="29.5041134208" lon="35.2656112053"><ele>840.81</ele><time>2015-11-27T12:17:52Z</time></trkpt><trkpt lat="29.5040658955" lon="35.2654508594"><ele>840.33</ele><time>2015-11-27T12:18:05Z</time></trkpt><trkpt lat="29.5040533226" lon="35.2654255461"><ele>840.81</ele><time>2015-11-27T12:18:06Z</time></trkpt><trkpt lat="29.5040407497" lon="35.2653433196"><ele>840.33</ele><time>2015-11-27T12:18:15Z</time></trkpt><trkpt lat="29.5040908735" lon="35.2649591770"><ele>839.85</ele><time>2015-11-27T12:18:28Z</time></trkpt><trkpt lat="29.5041253231" lon="35.2645039558"><ele>838.89</ele><time>2015-11-27T12:18:40Z</time></trkpt><trkpt lat="29.5041194558" lon="35.2639385965"><ele>837.93</ele><time>2015-11-27T12:18:54Z</time></trkpt><trkpt lat="29.5039917994" lon="35.2635766659"><ele>837.45</ele><time>2015-11-27T12:19:07Z</time></trkpt><trkpt lat="29.5037410129" lon="35.2632324211"><ele>836.48</ele><time>2015-11-27T12:19:19Z</time></trkpt><trkpt lat="29.5035771467" lon="35.2627656329"><ele>835.52</ele><time>2015-11-27T12:19:31Z</time></trkpt><trkpt lat="29.5033217501" lon="35.2620167937"><ele>834.08</ele><time>2015-11-27T12:19:48Z</time></trkpt><trkpt lat="29.5031904895" lon="35.2616779972"><ele>833.12</ele><time>2015-11-27T12:19:59Z</time></trkpt><trkpt lat="29.5031935908" lon="35.2616753988"><ele>833.12</ele><time>2015-11-27T12:20:00Z</time></trkpt><trkpt lat="29.5031775814" lon="35.2615906578"><ele>833.12</ele><time>2015-11-27T12:20:05Z</time></trkpt><trkpt lat="29.5031360071" lon="35.2612674516"><ele>832.64</ele><time>2015-11-27T12:20:19Z</time></trkpt><trkpt lat="29.5031341631" lon="35.2610816248"><ele>832.64</ele><time>2015-11-27T12:20:35Z</time></trkpt><trkpt lat="29.5030446444" lon="35.2606306784"><ele>831.68</ele><time>2015-11-27T12:20:48Z</time></trkpt><trkpt lat="29.5030292217" lon="35.2606043592"><ele>831.20</ele><time>2015-11-27T12:20:49Z</time></trkpt><trkpt lat="29.5029937662" lon="35.2605380584"><ele>830.72</ele><time>2015-11-27T12:20:59Z</time></trkpt><trkpt lat="29.5029815286" lon="35.2604667284"><ele>830.72</ele><time>2015-11-27T12:21:13Z</time></trkpt><trkpt lat="29.5029741526" lon="35.2604564186"><ele>830.72</ele><time>2015-11-27T12:21:35Z</time></trkpt><trkpt lat="29.5029749908" lon="35.2604540717"><ele>830.72</ele><time>2015-11-27T12:22:01Z</time></trkpt><trkpt lat="29.5029821154" lon="35.2604561672"><ele>831.20</ele><time>2015-11-27T12:22:27Z</time></trkpt><trkpt lat="29.5029838756" lon="35.2604491264"><ele>831.20</ele><time>2015-11-27T12:22:47Z</time></trkpt><trkpt lat="29.5029936824" lon="35.2604449354"><ele>830.72</ele><time>2015-11-27T12:23:15Z</time></trkpt><trkpt lat="29.5029668603" lon="35.2604117431"><ele>831.20</ele><time>2015-11-27T12:23:40Z</time></trkpt><trkpt lat="29.5029218495" lon="35.2603475377"><ele>830.72</ele><time>2015-11-27T12:23:52Z</time></trkpt><trkpt lat="29.5028796047" lon="35.2602318674"><ele>831.20</ele><time>2015-11-27T12:24:03Z</time></trkpt><trkpt lat="29.5027658623" lon="35.2601203881"><ele>830.72</ele><time>2015-11-27T12:24:19Z</time></trkpt><trkpt lat="29.5027029142" lon="35.2598077431"><ele>830.24</ele><time>2015-11-27T12:24:33Z</time></trkpt><trkpt lat="29.5026223641" lon="35.2594015561"><ele>829.27</ele><time>2015-11-27T12:24:45Z</time></trkpt><trkpt lat="29.5025761798" lon="35.2588900924"><ele>828.31</ele><time>2015-11-27T12:25:00Z</time></trkpt><trkpt lat="29.5025278162" lon="35.2584493719"><ele>827.35</ele><time>2015-11-27T12:25:14Z</time></trkpt><trkpt lat="29.5024916064" lon="35.2584280819"><ele>827.35</ele><time>2015-11-27T12:25:25Z</time></trkpt><trkpt lat="29.5024797879" lon="35.2583673969"><ele>827.35</ele><time>2015-11-27T12:25:39Z</time></trkpt><trkpt lat="29.5024676342" lon="35.2583072986"><ele>827.35</ele><time>2015-11-27T12:25:45Z</time></trkpt><trkpt lat="29.5024491940" lon="35.2582344599"><ele>827.35</ele><time>2015-11-27T12:25:52Z</time></trkpt><trkpt lat="29.5024195220" lon="35.2580617927"><ele>826.87</ele><time>2015-11-27T12:26:08Z</time></trkpt><trkpt lat="29.5023946278" lon="35.2578810789"><ele>826.39</ele><time>2015-11-27T12:26:23Z</time></trkpt><trkpt lat="29.5023888443" lon="35.2578755468"><ele>826.39</ele><time>2015-11-27T12:26:25Z</time></trkpt><trkpt lat="29.5022744313" lon="35.2576829307"><ele>825.43</ele><time>2015-11-27T12:26:43Z</time></trkpt><trkpt lat="29.5021911990" lon="35.2574822679"><ele>824.95</ele><time>2015-11-27T12:27:00Z</time></trkpt><trkpt lat="29.5021441765" lon="35.2574126143"><ele>824.95</ele><time>2015-11-27T12:27:09Z</time></trkpt><trkpt lat="29.5020567533" lon="35.2572067548"><ele>824.47</ele><time>2015-11-27T12:27:26Z</time></trkpt><trkpt lat="29.5020502154" lon="35.2571713831"><ele>824.47</ele><time>2015-11-27T12:27:28Z</time></trkpt><trkpt lat="29.5020098146" lon="35.2570528630"><ele>823.99</ele><time>2015-11-27T12:27:39Z</time></trkpt><trkpt lat="29.5019960683" lon="35.2570002247"><ele>823.51</ele><time>2015-11-27T12:27:51Z</time></trkpt><trkpt lat="29.5019938890" lon="35.2569886576"><ele>823.99</ele><time>2015-11-27T12:27:55Z</time></trkpt><trkpt lat="29.5019870996" lon="35.2569361869"><ele>823.51</ele><time>2015-11-27T12:28:00Z</time></trkpt><trkpt lat="29.5019209664" lon="35.2566663735"><ele>823.03</ele><time>2015-11-27T12:28:21Z</time></trkpt><trkpt lat="29.5018878579" lon="35.2564546466"><ele>822.55</ele><time>2015-11-27T12:28:41Z</time></trkpt><trkpt lat="29.5018347166" lon="35.2562278323"><ele>822.06</ele><time>2015-11-27T12:28:59Z</time></trkpt><trkpt lat="29.5017759595" lon="35.2559596114"><ele>821.58</ele><time>2015-11-27T12:29:20Z</time></trkpt><trkpt lat="29.5017734449" lon="35.2559448592"><ele>821.10</ele><time>2015-11-27T12:29:21Z</time></trkpt><trkpt lat="29.5017334633" lon="35.2557224035"><ele>820.62</ele><time>2015-11-27T12:29:38Z</time></trkpt><trkpt lat="29.5016924758" lon="35.2555338945"><ele>820.14</ele><time>2015-11-27T12:29:54Z</time></trkpt><trkpt lat="29.5016871113" lon="35.2554993611"><ele>820.14</ele><time>2015-11-27T12:29:57Z</time></trkpt><trkpt lat="29.5017277636" lon="35.2553656697"><ele>820.14</ele><time>2015-11-27T12:30:09Z</time></trkpt><trkpt lat="29.5017380733" lon="35.2553451341"><ele>820.14</ele><time>2015-11-27T12:30:11Z</time></trkpt><trkpt lat="29.5017720200" lon="35.2551554516"><ele>819.66</ele><time>2015-11-27T12:30:28Z</time></trkpt><trkpt lat="29.5017636381" lon="35.2548780106"><ele>819.18</ele><time>2015-11-27T12:30:47Z</time></trkpt><trkpt lat="29.5017408393" lon="35.2545833867"><ele>818.22</ele><time>2015-11-27T12:31:07Z</time></trkpt><trkpt lat="29.5017357264" lon="35.2544969693"><ele>818.70</ele><time>2015-11-27T12:31:14Z</time></trkpt><trkpt lat="29.5017454494" lon="35.2543873340"><ele>817.74</ele><time>2015-11-27T12:31:29Z</time></trkpt><trkpt lat="29.5017277636" lon="35.2543312591"><ele>817.26</ele><time>2015-11-27T12:31:43Z</time></trkpt><trkpt lat="29.5017182920" lon="35.2541900240"><ele>817.26</ele><time>2015-11-27T12:31:56Z</time></trkpt><trkpt lat="29.5017229859" lon="35.2541212924"><ele>817.26</ele><time>2015-11-27T12:31:59Z</time></trkpt><trkpt lat="29.5017004386" lon="35.2540784609"><ele>816.78</ele><time>2015-11-27T12:32:09Z</time></trkpt><trkpt lat="29.5016623847" lon="35.2540128306"><ele>816.78</ele><time>2015-11-27T12:32:19Z</time></trkpt><trkpt lat="29.5016607083" lon="35.2539839130"><ele>817.26</ele><time>2015-11-27T12:32:24Z</time></trkpt><trkpt lat="29.5016187988" lon="35.2537974995"><ele>816.78</ele><time>2015-11-27T12:32:40Z</time></trkpt><trkpt lat="29.5015959162" lon="35.2537612896"><ele>816.30</ele><time>2015-11-27T12:32:44Z</time></trkpt><trkpt lat="29.5015551802" lon="35.2535674162"><ele>816.30</ele><time>2015-11-27T12:33:01Z</time></trkpt><trkpt lat="29.5015237480" lon="35.2534354012"><ele>815.82</ele><time>2015-11-27T12:33:12Z</time></trkpt><trkpt lat="29.5015048049" lon="35.2533697709"><ele>815.82</ele><time>2015-11-27T12:33:20Z</time></trkpt><trkpt lat="29.5014530886" lon="35.2532216627"><ele>815.34</ele><time>2015-11-27T12:33:28Z</time></trkpt><trkpt lat="29.5014032163" lon="35.2531155478"><ele>815.34</ele><time>2015-11-27T12:33:33Z</time></trkpt><trkpt lat="29.5013483986" lon="35.2530649211"><ele>814.85</ele><time>2015-11-27T12:33:43Z</time></trkpt><trkpt lat="29.5011991169" lon="35.2528464887"><ele>814.37</ele><time>2015-11-27T12:33:55Z</time></trkpt><trkpt lat="29.5011743065" lon="35.2528155595"><ele>814.37</ele><time>2015-11-27T12:34:05Z</time></trkpt><trkpt lat="29.5011220034" lon="35.2527067624"><ele>813.89</ele><time>2015-11-27T12:34:21Z</time></trkpt><trkpt lat="29.5011141244" lon="35.2526847180"><ele>813.41</ele><time>2015-11-27T12:34:32Z</time></trkpt><trkpt lat="29.5010412019" lon="35.2526374441"><ele>813.89</ele><time>2015-11-27T12:34:40Z</time></trkpt><trkpt lat="29.5009393618" lon="35.2523491904"><ele>813.89</ele><time>2015-11-27T12:34:56Z</time></trkpt><trkpt lat="29.5008054189" lon="35.2519440092"><ele>812.45</ele><time>2015-11-27T12:35:10Z</time></trkpt><trkpt lat="29.5006741583" lon="35.2515795641"><ele>811.49</ele><time>2015-11-27T12:35:22Z</time></trkpt><trkpt lat="29.5005660318" lon="35.2511412743"><ele>810.53</ele><time>2015-11-27T12:35:35Z</time></trkpt><trkpt lat="29.5005449094" lon="35.2508634981"><ele>810.53</ele><time>2015-11-27T12:35:45Z</time></trkpt><trkpt lat="29.5003947895" lon="35.2504630946"><ele>809.09</ele><time>2015-11-27T12:35:58Z</time></trkpt><trkpt lat="29.5003919397" lon="35.2504175808"><ele>809.09</ele><time>2015-11-27T12:36:00Z</time></trkpt><trkpt lat="29.5004270598" lon="35.2503059339"><ele>808.61</ele><time>2015-11-27T12:36:05Z</time></trkpt><trkpt lat="29.5004162472" lon="35.2502671257"><ele>808.61</ele><time>2015-11-27T12:36:15Z</time></trkpt><trkpt lat="29.5003661234" lon="35.2501758467"><ele>808.13</ele><time>2015-11-27T12:36:29Z</time></trkpt><trkpt lat="29.5003442466" lon="35.2500712406"><ele>808.13</ele><time>2015-11-27T12:36:40Z</time></trkpt><trkpt lat="29.5003631897" lon="35.2500078734"><ele>808.13</ele><time>2015-11-27T12:36:47Z</time></trkpt><trkpt lat="29.5003233757" lon="35.2499400638"><ele>807.64</ele><time>2015-11-27T12:36:56Z</time></trkpt><trkpt lat="29.5002923626" lon="35.2498478629"><ele>808.13</ele><time>2015-11-27T12:37:01Z</time></trkpt><trkpt lat="29.5002206136" lon="35.2497238945"><ele>807.64</ele><time>2015-11-27T12:37:06Z</time></trkpt><trkpt lat="29.5001629461" lon="35.2495701704"><ele>807.16</ele><time>2015-11-27T12:37:11Z</time></trkpt><trkpt lat="29.4999182783" lon="35.2492084075"><ele>806.20</ele><time>2015-11-27T12:37:24Z</time></trkpt><trkpt lat="29.4999022689" lon="35.2492009476"><ele>806.20</ele><time>2015-11-27T12:37:25Z</time></trkpt><trkpt lat="29.4997962378" lon="35.2489902265"><ele>806.20</ele><time>2015-11-27T12:37:38Z</time></trkpt><trkpt lat="29.4998075534" lon="35.2488978580"><ele>805.72</ele><time>2015-11-27T12:37:54Z</time></trkpt><trkpt lat="29.4996500574" lon="35.2487530187"><ele>805.72</ele><time>2015-11-27T12:38:05Z</time></trkpt><trkpt lat="29.4993939064" lon="35.2483591530"><ele>804.28</ele><time>2015-11-27T12:38:21Z</time></trkpt><trkpt lat="29.4992887136" lon="35.2481888328"><ele>803.32</ele><time>2015-11-27T12:38:32Z</time></trkpt><trkpt lat="29.4992931560" lon="35.2481931914"><ele>803.80</ele><time>2015-11-27T12:38:36Z</time></trkpt><trkpt lat="29.4994368218" lon="35.2479823865"><ele>803.80</ele><time>2015-11-27T12:38:51Z</time></trkpt><trkpt lat="29.4993172120" lon="35.2475526463"><ele>803.32</ele><time>2015-11-27T12:39:03Z</time></trkpt><trkpt lat="29.4990185648" lon="35.2471672464"><ele>802.36</ele><time>2015-11-27T12:39:16Z</time></trkpt><trkpt lat="29.4987131283" lon="35.2468265221"><ele>801.40</ele><time>2015-11-27T12:39:28Z</time></trkpt><trkpt lat="29.4984050095" lon="35.2464167308"><ele>800.44</ele><time>2015-11-27T12:39:42Z</time></trkpt><trkpt lat="29.4983136468" lon="35.2462088596"><ele>799.95</ele><time>2015-11-27T12:39:51Z</time></trkpt><trkpt lat="29.4982980564" lon="35.2461878210"><ele>799.47</ele><time>2015-11-27T12:39:52Z</time></trkpt><trkpt lat="29.4979742635" lon="35.2458942868"><ele>798.51</ele><time>2015-11-27T12:40:05Z</time></trkpt><trkpt lat="29.4977328647" lon="35.2455996629"><ele>798.03</ele><time>2015-11-27T12:40:15Z</time></trkpt><trkpt lat="29.4976051245" lon="35.2454740182"><ele>797.55</ele><time>2015-11-27T12:40:23Z</time></trkpt><trkpt lat="29.4975662325" lon="35.2454353776"><ele>797.55</ele><time>2015-11-27T12:40:30Z</time></trkpt><trkpt lat="29.4975050446" lon="35.2453574259"><ele>797.07</ele><time>2015-11-27T12:40:35Z</time></trkpt><trkpt lat="29.4972298667" lon="35.2449937351"><ele>797.07</ele><time>2015-11-27T12:40:49Z</time></trkpt><trkpt lat="29.4971184712" lon="35.2448388375"><ele>796.11</ele><time>2015-11-27T12:40:59Z</time></trkpt><trkpt lat="29.4970728736" lon="35.2448468842"><ele>795.63</ele><time>2015-11-27T12:41:07Z</time></trkpt><trkpt lat="29.4969543535" lon="35.2447692677"><ele>796.11</ele><time>2015-11-27T12:41:16Z</time></trkpt><trkpt lat="29.4969492406" lon="35.2447672561"><ele>796.11</ele><time>2015-11-27T12:41:17Z</time></trkpt><trkpt lat="29.4969356619" lon="35.2447361592"><ele>795.63</ele><time>2015-11-27T12:41:21Z</time></trkpt><trkpt lat="29.4968059938" lon="35.2445018012"><ele>795.15</ele><time>2015-11-27T12:41:35Z</time></trkpt><trkpt lat="29.4965475798" lon="35.2442566305"><ele>794.67</ele><time>2015-11-27T12:41:47Z</time></trkpt><trkpt lat="29.4964625873" lon="35.2441947721"><ele>794.19</ele><time>2015-11-27T12:41:50Z</time></trkpt><trkpt lat="29.4963581488" lon="35.2440594044"><ele>793.71</ele><time>2015-11-27T12:41:54Z</time></trkpt><trkpt lat="29.4962588232" lon="35.2439885773"><ele>793.71</ele><time>2015-11-27T12:41:57Z</time></trkpt><trkpt lat="29.4962178357" lon="35.2439592406"><ele>793.22</ele><time>2015-11-27T12:42:06Z</time></trkpt><trkpt lat="29.4961841404" lon="35.2439584862"><ele>793.71</ele><time>2015-11-27T12:42:14Z</time></trkpt><trkpt lat="29.4961370341" lon="35.2439461648"><ele>793.22</ele><time>2015-11-27T12:42:22Z</time></trkpt><trkpt lat="29.4960666262" lon="35.2438860666"><ele>793.22</ele><time>2015-11-27T12:42:27Z</time></trkpt><trkpt lat="29.4957203697" lon="35.2435592562"><ele>792.26</ele><time>2015-11-27T12:42:42Z</time></trkpt><trkpt lat="29.4955213834" lon="35.2432407439"><ele>791.30</ele><time>2015-11-27T12:42:53Z</time></trkpt><trkpt lat="29.4952384103" lon="35.2429679129"><ele>790.34</ele><time>2015-11-27T12:43:04Z</time></trkpt><trkpt lat="29.4947655872" lon="35.2426547650"><ele>789.38</ele><time>2015-11-27T12:43:19Z</time></trkpt><trkpt lat="29.4947154634" lon="35.2426360734"><ele>788.90</ele><time>2015-11-27T12:43:26Z</time></trkpt><trkpt lat="29.4945954345" lon="35.2425802499"><ele>788.42</ele><time>2015-11-27T12:43:33Z</time></trkpt><trkpt lat="29.4942206796" lon="35.2423301339"><ele>787.94</ele><time>2015-11-27T12:43:47Z</time></trkpt><trkpt lat="29.4938134868" lon="35.2420770004"><ele>786.50</ele><time>2015-11-27T12:44:00Z</time></trkpt><trkpt lat="29.4936484471" lon="35.2419538703"><ele>786.50</ele><time>2015-11-27T12:44:06Z</time></trkpt><trkpt lat="29.4932257477" lon="35.2416212764"><ele>785.05</ele><time>2015-11-27T12:44:20Z</time></trkpt><trkpt lat="29.4930450339" lon="35.2415052708"><ele>784.57</ele><time>2015-11-27T12:44:30Z</time></trkpt><trkpt lat="29.4930273481" lon="35.2414986491"><ele>784.57</ele><time>2015-11-27T12:44:31Z</time></trkpt><trkpt lat="29.4926842768" lon="35.2412111498"><ele>783.61</ele><time>2015-11-27T12:44:46Z</time></trkpt><trkpt lat="29.4922826160" lon="35.2410088945"><ele>782.65</ele><time>2015-11-27T12:45:00Z</time></trkpt><trkpt lat="29.4922465738" lon="35.2410004288"><ele>782.65</ele><time>2015-11-27T12:45:10Z</time></trkpt><trkpt lat="29.4922378566" lon="35.2409295179"><ele>783.13</ele><time>2015-11-27T12:45:25Z</time></trkpt><trkpt lat="29.4922557101" lon="35.2407036256"><ele>782.65</ele><time>2015-11-27T12:45:42Z</time></trkpt><trkpt lat="29.4922567997" lon="35.2405587863"><ele>782.65</ele><time>2015-11-27T12:45:55Z</time></trkpt><trkpt lat="29.4921113737" lon="35.2402791660"><ele>782.17</ele><time>2015-11-27T12:46:07Z</time></trkpt><trkpt lat="29.4921003096" lon="35.2401252743"><ele>782.17</ele><time>2015-11-27T12:46:17Z</time></trkpt><trkpt lat="29.4917891733" lon="35.2398389485"><ele>781.69</ele><time>2015-11-27T12:46:28Z</time></trkpt><trkpt lat="29.4915025122" lon="35.2396239527"><ele>780.73</ele><time>2015-11-27T12:46:39Z</time></trkpt><trkpt lat="29.4912158512" lon="35.2394189313"><ele>780.25</ele><time>2015-11-27T12:46:49Z</time></trkpt><trkpt lat="29.4910360593" lon="35.2390818112"><ele>779.29</ele><time>2015-11-27T12:46:59Z</time></trkpt><trkpt lat="29.4908631407" lon="35.2389268298"><ele>779.29</ele><time>2015-11-27T12:47:05Z</time></trkpt><trkpt lat="29.4903881382" lon="35.2384048048"><ele>777.84</ele><time>2015-11-27T12:47:21Z</time></trkpt><trkpt lat="29.4900626689" lon="35.2381556947"><ele>776.88</ele><time>2015-11-27T12:47:29Z</time></trkpt><trkpt lat="29.4899788499" lon="35.2381014638"><ele>776.40</ele><time>2015-11-27T12:47:31Z</time></trkpt><trkpt lat="29.4898653589" lon="35.2380038984"><ele>775.92</ele><time>2015-11-27T12:47:34Z</time></trkpt><trkpt lat="29.4894861616" lon="35.2377141360"><ele>774.48</ele><time>2015-11-27T12:47:44Z</time></trkpt><trkpt lat="29.4889842533" lon="35.2375862282"><ele>773.52</ele><time>2015-11-27T12:47:56Z</time></trkpt><trkpt lat="29.4888439402" lon="35.2375167422"><ele>773.04</ele><time>2015-11-27T12:48:00Z</time></trkpt><trkpt lat="29.4882333186" lon="35.2370219585"><ele>771.60</ele><time>2015-11-27T12:48:16Z</time></trkpt><trkpt lat="29.4879728090" lon="35.2367279213"><ele>771.11</ele><time>2015-11-27T12:48:27Z</time></trkpt><trkpt lat="29.4876485970" lon="35.2364830859"><ele>770.15</ele><time>2015-11-27T12:48:39Z</time></trkpt><trkpt lat="29.4875631854" lon="35.2364014462"><ele>769.67</ele><time>2015-11-27T12:48:43Z</time></trkpt><trkpt lat="29.4872743450" lon="35.2362042200"><ele>769.67</ele><time>2015-11-27T12:48:56Z</time></trkpt><trkpt lat="29.4870449323" lon="35.2358904853"><ele>769.19</ele><time>2015-11-27T12:49:07Z</time></trkpt><trkpt lat="29.4868977461" lon="35.2356977854"><ele>768.23</ele><time>2015-11-27T12:49:15Z</time></trkpt><trkpt lat="29.4868617877" lon="35.2356505953"><ele>767.75</ele><time>2015-11-27T12:49:27Z</time></trkpt><trkpt lat="29.4868618716" lon="35.2356534451"><ele>767.75</ele><time>2015-11-27T12:49:48Z</time></trkpt><trkpt lat="29.4868730195" lon="35.2356519364"><ele>768.23</ele><time>2015-11-27T12:50:20Z</time></trkpt><trkpt lat="29.4868641347" lon="35.2356369328"><ele>767.27</ele><time>2015-11-27T12:50:43Z</time></trkpt><trkpt lat="29.4868751988" lon="35.2356390283"><ele>767.27</ele><time>2015-11-27T12:51:26Z</time></trkpt><trkpt lat="29.4868795574" lon="35.2356341667"><ele>766.79</ele><time>2015-11-27T12:52:00Z</time></trkpt><trkpt lat="29.4868770428" lon="35.2356376033"><ele>767.27</ele><time>2015-11-27T12:52:39Z</time></trkpt><trkpt lat="29.4868766237" lon="35.2356355079"><ele>766.79</ele><time>2015-11-27T12:53:16Z</time></trkpt><trkpt lat="29.4868777972" lon="35.2356384415"><ele>766.79</ele><time>2015-11-27T12:53:48Z</time></trkpt><trkpt lat="29.4868769590" lon="35.2356376871"><ele>766.79</ele><time>2015-11-27T12:54:15Z</time></trkpt><trkpt lat="29.4868797250" lon="35.2356391959"><ele>766.79</ele><time>2015-11-27T12:54:46Z</time></trkpt><trkpt lat="29.4868774619" lon="35.2356408723"><ele>766.31</ele><time>2015-11-27T12:55:13Z</time></trkpt><trkpt lat="29.4868815690" lon="35.2356357593"><ele>766.31</ele><time>2015-11-27T12:55:37Z</time></trkpt><trkpt lat="29.4868842512" lon="35.2356365975"><ele>766.31</ele><time>2015-11-27T12:56:10Z</time></trkpt><trkpt lat="29.4868876040" lon="35.2356327418"><ele>766.31</ele><time>2015-11-27T12:56:35Z</time></trkpt><trkpt lat="29.4868778810" lon="35.2356312331"><ele>766.31</ele><time>2015-11-27T12:57:06Z</time></trkpt><trkpt lat="29.4868866820" lon="35.2356251143"><ele>766.31</ele><time>2015-11-27T12:57:43Z</time></trkpt><trkpt lat="29.4868846703" lon="35.2356251981"><ele>765.83</ele><time>2015-11-27T12:58:12Z</time></trkpt><trkpt lat="29.4868891127" lon="35.2356295567"><ele>765.83</ele><time>2015-11-27T12:58:54Z</time></trkpt><trkpt lat="29.4868940581" lon="35.2356242761"><ele>765.83</ele><time>2015-11-27T12:59:27Z</time></trkpt><trkpt lat="29.4868928846" lon="35.2356360946"><ele>765.83</ele><time>2015-11-27T13:00:03Z</time></trkpt><trkpt lat="29.4868944772" lon="35.2356281318"><ele>765.83</ele><time>2015-11-27T13:00:35Z</time></trkpt><trkpt lat="29.4868965726" lon="35.2356248628"><ele>765.35</ele><time>2015-11-27T13:01:17Z</time></trkpt><trkpt lat="29.4868986681" lon="35.2356233541"><ele>765.83</ele><time>2015-11-27T13:01:43Z</time></trkpt><trkpt lat="29.4868979976" lon="35.2356303111"><ele>765.83</ele><time>2015-11-27T13:02:25Z</time></trkpt><trkpt lat="29.4868940581" lon="35.2356301434"><ele>765.83</ele><time>2015-11-27T13:03:08Z</time></trkpt><trkpt lat="29.4868896157" lon="35.2356416266"><ele>766.79</ele><time>2015-11-27T13:03:42Z</time></trkpt><trkpt lat="29.4868824910" lon="35.2356608212"><ele>766.79</ele><time>2015-11-27T13:04:07Z</time></trkpt><trkpt lat="29.4868442696" lon="35.2356727235"><ele>766.79</ele><time>2015-11-27T13:04:27Z</time></trkpt><trkpt lat="29.4864904694" lon="35.2356827818"><ele>765.83</ele><time>2015-11-27T13:04:41Z</time></trkpt><trkpt lat="29.4860326499" lon="35.2356015611"><ele>764.87</ele><time>2015-11-27T13:04:54Z</time></trkpt><trkpt lat="29.4856001437" lon="35.2354775928"><ele>763.90</ele><time>2015-11-27T13:05:07Z</time></trkpt><trkpt lat="29.4851027615" lon="35.2353041712"><ele>762.94</ele><time>2015-11-27T13:05:23Z</time></trkpt><trkpt lat="29.4846834987" lon="35.2352164965"><ele>761.98</ele><time>2015-11-27T13:05:35Z</time></trkpt><trkpt lat="29.4840758108" lon="35.2350393031"><ele>761.02</ele><time>2015-11-27T13:05:51Z</time></trkpt><trkpt lat="29.4837122038" lon="35.2348831482"><ele>760.06</ele><time>2015-11-27T13:06:04Z</time></trkpt><trkpt lat="29.4832854811" lon="35.2346874308"><ele>759.58</ele><time>2015-11-27T13:06:17Z</time></trkpt><trkpt lat="29.4827963971" lon="35.2343584411"><ele>758.62</ele><time>2015-11-27T13:06:31Z</time></trkpt><trkpt lat="29.4824093208" lon="35.2341422718"><ele>757.66</ele><time>2015-11-27T13:06:43Z</time></trkpt><trkpt lat="29.4820801634" lon="35.2339827642"><ele>756.69</ele><time>2015-11-27T13:06:52Z</time></trkpt><trkpt lat="29.4817900658" lon="35.2338455524"><ele>756.21</ele><time>2015-11-27T13:07:00Z</time></trkpt><trkpt lat="29.4813467469" lon="35.2336061653"><ele>755.25</ele><time>2015-11-27T13:07:13Z</time></trkpt><trkpt lat="29.4807150867" lon="35.2332439832"><ele>753.33</ele><time>2015-11-27T13:07:32Z</time></trkpt><trkpt lat="29.4802118372" lon="35.2329724096"><ele>752.85</ele><time>2015-11-27T13:07:47Z</time></trkpt><trkpt lat="29.4801320415" lon="35.2329220343"><ele>752.85</ele><time>2015-11-27T13:07:49Z</time></trkpt><trkpt lat="29.4799281936" lon="35.2328543086"><ele>751.89</ele><time>2015-11-27T13:07:54Z</time></trkpt><trkpt lat="29.4795924146" lon="35.2327129059"><ele>751.41</ele><time>2015-11-27T13:08:03Z</time></trkpt><trkpt lat="29.4793282170" lon="35.2324112412"><ele>750.45</ele><time>2015-11-27T13:08:13Z</time></trkpt><trkpt lat="29.4789013267" lon="35.2321146894"><ele>749.00</ele><time>2015-11-27T13:08:27Z</time></trkpt><trkpt lat="29.4788404740" lon="35.2321023680"><ele>749.00</ele><time>2015-11-27T13:08:32Z</time></trkpt><trkpt lat="29.4787770230" lon="35.2320835926"><ele>749.00</ele><time>2015-11-27T13:08:36Z</time></trkpt><trkpt lat="29.4785754383" lon="35.2320163697"><ele>748.52</ele><time>2015-11-27T13:08:42Z</time></trkpt><trkpt lat="29.4779151119" lon="35.2318902221"><ele>747.08</ele><time>2015-11-27T13:09:00Z</time></trkpt><trkpt lat="29.4773793407" lon="35.2316966001"><ele>746.60</ele><time>2015-11-27T13:09:15Z</time></trkpt><trkpt lat="29.4768503588" lon="35.2315741405"><ele>745.16</ele><time>2015-11-27T13:09:30Z</time></trkpt><trkpt lat="29.4762516394" lon="35.2313527744"><ele>744.20</ele><time>2015-11-27T13:09:46Z</time></trkpt><trkpt lat="29.4757789839" lon="35.2310594916"><ele>743.24</ele><time>2015-11-27T13:10:02Z</time></trkpt><trkpt lat="29.4755437877" lon="35.2308760956"><ele>742.76</ele><time>2015-11-27T13:10:09Z</time></trkpt><trkpt lat="29.4750257023" lon="35.2305846568"><ele>741.79</ele><time>2015-11-27T13:10:24Z</time></trkpt><trkpt lat="29.4746694714" lon="35.2301648073"><ele>740.83</ele><time>2015-11-27T13:10:38Z</time></trkpt><trkpt lat="29.4741379749" lon="35.2294673491"><ele>739.87</ele><time>2015-11-27T13:10:57Z</time></trkpt><trkpt lat="29.4740187842" lon="35.2293216716"><ele>739.39</ele><time>2015-11-27T13:11:01Z</time></trkpt><trkpt lat="29.4739229791" lon="35.2291750722"><ele>739.39</ele><time>2015-11-27T13:11:05Z</time></trkpt><trkpt lat="29.4733945839" lon="35.2286128141"><ele>737.47</ele><time>2015-11-27T13:11:24Z</time></trkpt><trkpt lat="29.4731034804" lon="35.2282625344"><ele>737.47</ele><time>2015-11-27T13:11:37Z</time></trkpt><trkpt lat="29.4729414582" lon="35.2280683257"><ele>736.51</ele><time>2015-11-27T13:11:45Z</time></trkpt><trkpt lat="29.4727011491" lon="35.2278482169"><ele>736.03</ele><time>2015-11-27T13:11:58Z</time></trkpt><trkpt lat="29.4724790286" lon="35.2273152955"><ele>734.58</ele><time>2015-11-27T13:12:13Z</time></trkpt><trkpt lat="29.4721720833" lon="35.2267121337"><ele>733.62</ele><time>2015-11-27T13:12:30Z</time></trkpt><trkpt lat="29.4719589315" lon="35.2259006817"><ele>731.70</ele><time>2015-11-27T13:12:49Z</time></trkpt><trkpt lat="29.4719186984" lon="35.2252568677"><ele>730.26</ele><time>2015-11-27T13:13:04Z</time></trkpt><trkpt lat="29.4717280101" lon="35.2246686257"><ele>729.30</ele><time>2015-11-27T13:13:20Z</time></trkpt><trkpt lat="29.4716827478" lon="35.2243001573"><ele>728.82</ele><time>2015-11-27T13:13:32Z</time></trkpt><trkpt lat="29.4716177043" lon="35.2238283399"><ele>728.34</ele><time>2015-11-27T13:13:47Z</time></trkpt><trkpt lat="29.4715571031" lon="35.2235959936"><ele>728.34</ele><time>2015-11-27T13:13:56Z</time></trkpt><trkpt lat="29.4714046363" lon="35.2229259443"><ele>727.37</ele><time>2015-11-27T13:14:14Z</time></trkpt><trkpt lat="29.4712447096" lon="35.2224506903"><ele>726.89</ele><time>2015-11-27T13:14:28Z</time></trkpt><trkpt lat="29.4710761495" lon="35.2219076268"><ele>725.93</ele><time>2015-11-27T13:14:45Z</time></trkpt><trkpt lat="29.4709748123" lon="35.2215765417"><ele>724.49</ele><time>2015-11-27T13:14:56Z</time></trkpt><trkpt lat="29.4709028117" lon="35.2211775631"><ele>724.01</ele><time>2015-11-27T13:15:10Z</time></trkpt><trkpt lat="29.4708214235" lon="35.2208051551"><ele>723.53</ele><time>2015-11-27T13:15:22Z</time></trkpt><trkpt lat="29.4706509355" lon="35.2203566395"><ele>723.05</ele><time>2015-11-27T13:15:36Z</time></trkpt><trkpt lat="29.4705219381" lon="35.2198926173"><ele>722.09</ele><time>2015-11-27T13:15:51Z</time></trkpt><trkpt lat="29.4704905059" lon="35.2198118996"><ele>722.09</ele><time>2015-11-27T13:15:54Z</time></trkpt><trkpt lat="29.4703655317" lon="35.2196150087"><ele>721.61</ele><time>2015-11-27T13:16:04Z</time></trkpt><trkpt lat="29.4702948723" lon="35.2195989992"><ele>721.61</ele><time>2015-11-27T13:16:16Z</time></trkpt><trkpt lat="29.4702844787" lon="35.2195907850"><ele>721.61</ele><time>2015-11-27T13:16:24Z</time></trkpt><trkpt lat="29.4701318443" lon="35.2193065546"><ele>722.09</ele><time>2015-11-27T13:16:38Z</time></trkpt><trkpt lat="29.4698489551" lon="35.2189799119"><ele>721.13</ele><time>2015-11-27T13:16:51Z</time></trkpt><trkpt lat="29.4695449434" lon="35.2187101822"><ele>720.65</ele><time>2015-11-27T13:17:03Z</time></trkpt><trkpt lat="29.4693104178" lon="35.2184189111"><ele>719.20</ele><time>2015-11-27T13:17:14Z</time></trkpt><trkpt lat="29.4692774769" lon="35.2183347568"><ele>719.20</ele><time>2015-11-27T13:17:17Z</time></trkpt><trkpt lat="29.4691026304" lon="35.2180659492"><ele>718.72</ele><time>2015-11-27T13:17:29Z</time></trkpt><trkpt lat="29.4690417778" lon="35.2179414779"><ele>718.24</ele><time>2015-11-27T13:17:34Z</time></trkpt><trkpt lat="29.4689808413" lon="35.2178869117"><ele>718.24</ele><time>2015-11-27T13:17:44Z</time></trkpt><trkpt lat="29.4689050689" lon="35.2178237960"><ele>717.76</ele><time>2015-11-27T13:17:57Z</time></trkpt><trkpt lat="29.4688418694" lon="35.2177332714"><ele>717.76</ele><time>2015-11-27T13:18:07Z</time></trkpt><trkpt lat="29.4688181486" lon="35.2175695729"><ele>717.28</ele><time>2015-11-27T13:18:19Z</time></trkpt><trkpt lat="29.4688479882" lon="35.2174679004"><ele>717.28</ele><time>2015-11-27T13:18:28Z</time></trkpt><trkpt lat="29.4687924162" lon="35.2173472848"><ele>717.28</ele><time>2015-11-27T13:18:41Z</time></trkpt><trkpt lat="29.4686477445" lon="35.2170568518"><ele>716.80</ele><time>2015-11-27T13:18:53Z</time></trkpt><trkpt lat="29.4684829563" lon="35.2167145349"><ele>716.32</ele><time>2015-11-27T13:19:06Z</time></trkpt><trkpt lat="29.4684029091" lon="35.2166117728"><ele>715.84</ele><time>2015-11-27T13:19:16Z</time></trkpt><trkpt lat="29.4683146477" lon="35.2164415363"><ele>715.84</ele><time>2015-11-27T13:19:29Z</time></trkpt><trkpt lat="29.4680687226" lon="35.2161080204"><ele>715.36</ele><time>2015-11-27T13:19:43Z</time></trkpt><trkpt lat="29.4679475203" lon="35.2159284800"><ele>714.88</ele><time>2015-11-27T13:19:51Z</time></trkpt><trkpt lat="29.4679035153" lon="35.2157942019"><ele>714.88</ele><time>2015-11-27T13:19:56Z</time></trkpt><trkpt lat="29.4675720949" lon="35.2152383979"><ele>714.40</ele><time>2015-11-27T13:20:15Z</time></trkpt><trkpt lat="29.4673512317" lon="35.2149286866"><ele>713.92</ele><time>2015-11-27T13:20:27Z</time></trkpt><trkpt lat="29.4671819173" lon="35.2147167083"><ele>713.44</ele><time>2015-11-27T13:20:39Z</time></trkpt><trkpt lat="29.4672193844" lon="35.2146452107"><ele>713.44</ele><time>2015-11-27T13:20:52Z</time></trkpt><trkpt lat="29.4672296941" lon="35.2146501560"><ele>712.95</ele><time>2015-11-27T13:21:13Z</time></trkpt><trkpt lat="29.4672209769" lon="35.2146285307"><ele>712.95</ele><time>2015-11-27T13:21:22Z</time></trkpt><trkpt lat="29.4671711884" lon="35.2144585457"><ele>712.95</ele><time>2015-11-27T13:21:32Z</time></trkpt><trkpt lat="29.4669426978" lon="35.2141590603"><ele>711.99</ele><time>2015-11-27T13:21:46Z</time></trkpt><trkpt lat="29.4668681826" lon="35.2140899934"><ele>711.99</ele><time>2015-11-27T13:21:56Z</time></trkpt><trkpt lat="29.4668526761" lon="35.2140883170"><ele>711.99</ele><time>2015-11-27T13:21:58Z</time></trkpt><trkpt lat="29.4668194000" lon="35.2140582260"><ele>711.99</ele><time>2015-11-27T13:22:02Z</time></trkpt><trkpt lat="29.4667284563" lon="35.2138859779"><ele>711.51</ele><time>2015-11-27T13:22:19Z</time></trkpt><trkpt lat="29.4666980300" lon="35.2138503548"><ele>711.51</ele><time>2015-11-27T13:22:24Z</time></trkpt><trkpt lat="29.4666655920" lon="35.2138294838"><ele>711.51</ele><time>2015-11-27T13:22:28Z</time></trkpt><trkpt lat="29.4666298013" lon="35.2137876581"><ele>711.51</ele><time>2015-11-27T13:22:33Z</time></trkpt><trkpt lat="29.4665594772" lon="35.2135661244"><ele>711.51</ele><time>2015-11-27T13:22:53Z</time></trkpt><trkpt lat="29.4665244408" lon="35.2134470176"><ele>711.03</ele><time>2015-11-27T13:23:11Z</time></trkpt><trkpt lat="29.4665003009" lon="35.2134398930"><ele>711.03</ele><time>2015-11-27T13:23:40Z</time></trkpt><trkpt lat="29.4664632529" lon="35.2132342011"><ele>711.03</ele><time>2015-11-27T13:23:51Z</time></trkpt><trkpt lat="29.4664778374" lon="35.2130430099"><ele>710.55</ele><time>2015-11-27T13:24:02Z</time></trkpt><trkpt lat="29.4665020611" lon="35.2129025292"><ele>710.55</ele><time>2015-11-27T13:24:16Z</time></trkpt><trkpt lat="29.4665511791" lon="35.2127162833"><ele>710.07</ele><time>2015-11-27T13:24:33Z</time></trkpt><trkpt lat="29.4665593095" lon="35.2126993518"><ele>710.07</ele><time>2015-11-27T13:24:47Z</time></trkpt><trkpt lat="29.4665507600" lon="35.2126840129"><ele>710.07</ele><time>2015-11-27T13:25:06Z</time></trkpt><trkpt lat="29.4666023087" lon="35.2125585359"><ele>710.07</ele><time>2015-11-27T13:25:26Z</time></trkpt><trkpt lat="29.4666413683" lon="35.2124008723"><ele>709.59</ele><time>2015-11-27T13:25:41Z</time></trkpt><trkpt lat="29.4666266162" lon="35.2123164665"><ele>709.59</ele><time>2015-11-27T13:25:50Z</time></trkpt><trkpt lat="29.4666855410" lon="35.2120660990"><ele>709.59</ele><time>2015-11-27T13:26:09Z</time></trkpt><trkpt lat="29.4667849503" lon="35.2119218465"><ele>709.11</ele><time>2015-11-27T13:26:24Z</time></trkpt><trkpt lat="29.4668481499" lon="35.2118607424"><ele>709.11</ele><time>2015-11-27T13:26:33Z</time></trkpt><trkpt lat="29.4669459667" lon="35.2116584033"><ele>709.11</ele><time>2015-11-27T13:26:52Z</time></trkpt><trkpt lat="29.4670436997" lon="35.2114382107"><ele>708.15</ele><time>2015-11-27T13:27:11Z</time></trkpt><trkpt lat="29.4671339728" lon="35.2112509590"><ele>708.15</ele><time>2015-11-27T13:27:27Z</time></trkpt><trkpt lat="29.4671818335" lon="35.2110326942"><ele>707.67</ele><time>2015-11-27T13:27:44Z</time></trkpt><trkpt lat="29.4672567677" lon="35.2107710112"><ele>707.19</ele><time>2015-11-27T13:28:05Z</time></trkpt><trkpt lat="29.4673079811" lon="35.2106090728"><ele>707.19</ele><time>2015-11-27T13:28:18Z</time></trkpt><trkpt lat="29.4673001859" lon="35.2102993615"><ele>706.71</ele><time>2015-11-27T13:28:30Z</time></trkpt><trkpt lat="29.4673116691" lon="35.2102600504"><ele>706.23</ele><time>2015-11-27T13:28:42Z</time></trkpt><trkpt lat="29.4673152734" lon="35.2101880498"><ele>706.71</ele><time>2015-11-27T13:28:48Z</time></trkpt><trkpt lat="29.4674165267" lon="35.2100798395"><ele>706.23</ele><time>2015-11-27T13:29:03Z</time></trkpt><trkpt lat="29.4676422514" lon="35.2098017279"><ele>705.75</ele><time>2015-11-27T13:29:16Z</time></trkpt><trkpt lat="29.4678202830" lon="35.2094990574"><ele>705.26</ele><time>2015-11-27T13:29:28Z</time></trkpt><trkpt lat="29.4680097979" lon="35.2091733366"><ele>704.78</ele><time>2015-11-27T13:29:41Z</time></trkpt><trkpt lat="29.4681937806" lon="35.2088787965"><ele>703.82</ele><time>2015-11-27T13:29:54Z</time></trkpt><trkpt lat="29.4683630951" lon="35.2086018585"><ele>703.82</ele><time>2015-11-27T13:30:08Z</time></trkpt><trkpt lat="29.4683755841" lon="35.2085795626"><ele>703.34</ele><time>2015-11-27T13:30:28Z</time></trkpt><trkpt lat="29.4685066771" lon="35.2085471246"><ele>703.82</ele><time>2015-11-27T13:30:43Z</time></trkpt><trkpt lat="29.4685234409" lon="35.2085153572"><ele>704.30</ele><time>2015-11-27T13:31:06Z</time></trkpt><trkpt lat="29.4687205832" lon="35.2083803248"><ele>703.82</ele><time>2015-11-27T13:31:27Z</time></trkpt><trkpt lat="29.4687939249" lon="35.2082729526"><ele>703.34</ele><time>2015-11-27T13:31:42Z</time></trkpt><trkpt lat="29.4688950107" lon="35.2081100922"><ele>703.34</ele><time>2015-11-27T13:31:55Z</time></trkpt><trkpt lat="29.4691328891" lon="35.2078046557"><ele>702.86</ele><time>2015-11-27T13:32:07Z</time></trkpt><trkpt lat="29.4692952465" lon="35.2073293179"><ele>701.90</ele><time>2015-11-27T13:32:20Z</time></trkpt><trkpt lat="29.4694307819" lon="35.2068683971"><ele>701.90</ele><time>2015-11-27T13:32:33Z</time></trkpt><trkpt lat="29.4697037805" lon="35.2064163610"><ele>701.42</ele><time>2015-11-27T13:32:48Z</time></trkpt><trkpt lat="29.4698434230" lon="35.2060198970"><ele>701.42</ele><time>2015-11-27T13:33:00Z</time></trkpt><trkpt lat="29.4698787946" lon="35.2056069206"><ele>699.98</ele><time>2015-11-27T13:33:11Z</time></trkpt><trkpt lat="29.4699670561" lon="35.2055112831"><ele>699.98</ele><time>2015-11-27T13:33:15Z</time></trkpt><trkpt lat="29.4700470194" lon="35.2053229418"><ele>699.98</ele><time>2015-11-27T13:33:22Z</time></trkpt><trkpt lat="29.4701163378" lon="35.2050777711"><ele>699.50</ele><time>2015-11-27T13:33:33Z</time></trkpt><trkpt lat="29.4701512065" lon="35.2046654653"><ele>698.53</ele><time>2015-11-27T13:33:46Z</time></trkpt><trkpt lat="29.4702144060" lon="35.2042545844"><ele>697.57</ele><time>2015-11-27T13:34:00Z</time></trkpt><trkpt lat="29.4701795373" lon="35.2041104995"><ele>697.09</ele><time>2015-11-27T13:34:11Z</time></trkpt><trkpt lat="29.4701701496" lon="35.2040994354"><ele>697.09</ele><time>2015-11-27T13:34:25Z</time></trkpt><trkpt lat="29.4701806270" lon="35.2041177079"><ele>697.09</ele><time>2015-11-27T13:34:42Z</time></trkpt><trkpt lat="29.4701828063" lon="35.2040804084"><ele>697.09</ele><time>2015-11-27T13:34:51Z</time></trkpt><trkpt lat="29.4701403938" lon="35.2037960105"><ele>696.61</ele><time>2015-11-27T13:35:06Z</time></trkpt><trkpt lat="29.4700674713" lon="35.2036803402"><ele>696.13</ele><time>2015-11-27T13:35:17Z</time></trkpt><trkpt lat="29.4700311776" lon="35.2036698628"><ele>696.61</ele><time>2015-11-27T13:35:42Z</time></trkpt><trkpt lat="29.4700310938" lon="35.2036650851"><ele>696.13</ele><time>2015-11-27T13:36:08Z</time></trkpt><trkpt lat="29.4700029306" lon="35.2035857923"><ele>691.81</ele><time>2015-11-27T13:36:21Z</time></trkpt><trkpt lat="29.4699991588" lon="35.2035799250"><ele>699.50</ele><time>2015-11-27T13:36:22Z</time></trkpt><trkpt lat="29.4699962251" lon="35.2035759855"><ele>696.13</ele><time>2015-11-27T13:36:23Z</time></trkpt><trkpt lat="29.4700095523" lon="35.2035188209"><ele>696.13</ele><time>2015-11-27T13:36:43Z</time></trkpt><trkpt lat="29.4699931238" lon="35.2034628298"><ele>695.65</ele><time>2015-11-27T13:36:49Z</time></trkpt><trkpt lat="29.4699621107" lon="35.2031994704"><ele>695.65</ele><time>2015-11-27T13:37:10Z</time></trkpt><trkpt lat="29.4699497893" lon="35.2029472589"><ele>695.17</ele><time>2015-11-27T13:37:29Z</time></trkpt><trkpt lat="29.4699444249" lon="35.2029207721"><ele>695.17</ele><time>2015-11-27T13:37:34Z</time></trkpt><trkpt lat="29.4699489512" lon="35.2028237097"><ele>695.17</ele><time>2015-11-27T13:37:40Z</time></trkpt><trkpt lat="29.4699552376" lon="35.2024821471"><ele>694.69</ele><time>2015-11-27T13:37:54Z</time></trkpt><trkpt lat="29.4699861668" lon="35.2020556759"><ele>694.69</ele><time>2015-11-27T13:38:10Z</time></trkpt><trkpt lat="29.4700306747" lon="35.2017670870"><ele>693.73</ele><time>2015-11-27T13:38:21Z</time></trkpt><trkpt lat="29.4700364582" lon="35.2017000318"><ele>693.73</ele><time>2015-11-27T13:38:26Z</time></trkpt><trkpt lat="29.4700186048" lon="35.2016267739"><ele>693.73</ele><time>2015-11-27T13:38:30Z</time></trkpt><trkpt lat="29.4701254740" lon="35.2010650188"><ele>692.77</ele><time>2015-11-27T13:38:46Z</time></trkpt><trkpt lat="29.4701777771" lon="35.2007710654"><ele>692.29</ele><time>2015-11-27T13:38:58Z</time></trkpt><trkpt lat="29.4701551460" lon="35.2004834823"><ele>692.29</ele><time>2015-11-27T13:39:10Z</time></trkpt><trkpt lat="29.4702171721" lon="35.2000717632"><ele>691.33</ele><time>2015-11-27T13:39:25Z</time></trkpt><trkpt lat="29.4703158271" lon="35.1997778937"><ele>690.84</ele><time>2015-11-27T13:39:39Z</time></trkpt><trkpt lat="29.4704082794" lon="35.1994577050"><ele>689.88</ele><time>2015-11-27T13:39:51Z</time></trkpt><trkpt lat="29.4704807829" lon="35.1991467364"><ele>689.88</ele><time>2015-11-27T13:40:02Z</time></trkpt><trkpt lat="29.4706279691" lon="35.1986996457"><ele>688.92</ele><time>2015-11-27T13:40:15Z</time></trkpt><trkpt lat="29.4707472436" lon="35.1981612761"><ele>687.96</ele><time>2015-11-27T13:40:29Z</time></trkpt><trkpt lat="29.4708808511" lon="35.1975663286"><ele>687.00</ele><time>2015-11-27T13:40:46Z</time></trkpt><trkpt lat="29.4709598087" lon="35.1970527694"><ele>686.52</ele><time>2015-11-27T13:41:00Z</time></trkpt><trkpt lat="29.4711162988" lon="35.1965540461"><ele>686.04</ele><time>2015-11-27T13:41:14Z</time></trkpt><trkpt lat="29.4712457992" lon="35.1962127350"><ele>685.08</ele><time>2015-11-27T13:41:26Z</time></trkpt><trkpt lat="29.4713689294" lon="35.1957048755"><ele>684.60</ele><time>2015-11-27T13:41:40Z</time></trkpt><trkpt lat="29.4714690931" lon="35.1952832658"><ele>684.12</ele><time>2015-11-27T13:41:55Z</time></trkpt><trkpt lat="29.4716074783" lon="35.1949425414"><ele>683.63</ele><time>2015-11-27T13:42:06Z</time></trkpt><trkpt lat="29.4717715960" lon="35.1944863982"><ele>682.67</ele><time>2015-11-27T13:42:21Z</time></trkpt><trkpt lat="29.4719090592" lon="35.1941399742"><ele>682.19</ele><time>2015-11-27T13:42:33Z</time></trkpt><trkpt lat="29.4720086362" lon="35.1938078832"><ele>681.71</ele><time>2015-11-27T13:42:44Z</time></trkpt><trkpt lat="29.4720863365" lon="35.1936230622"><ele>681.23</ele><time>2015-11-27T13:42:50Z</time></trkpt><trkpt lat="29.4720871747" lon="35.1935218088"><ele>681.23</ele><time>2015-11-27T13:42:54Z</time></trkpt><trkpt lat="29.4720834028" lon="35.1930535957"><ele>680.75</ele><time>2015-11-27T13:43:07Z</time></trkpt><trkpt lat="29.4720278308" lon="35.1926401164"><ele>679.79</ele><time>2015-11-27T13:43:20Z</time></trkpt><trkpt lat="29.4720989093" lon="35.1922894176"><ele>679.31</ele><time>2015-11-27T13:43:31Z</time></trkpt><trkpt lat="29.4721154217" lon="35.1918807998"><ele>678.83</ele><time>2015-11-27T13:43:43Z</time></trkpt><trkpt lat="29.4721099734" lon="35.1917217951"><ele>678.83</ele><time>2015-11-27T13:43:48Z</time></trkpt><trkpt lat="29.4721061178" lon="35.1915943902"><ele>678.35</ele><time>2015-11-27T13:43:53Z</time></trkpt><trkpt lat="29.4721474405" lon="35.1911886223"><ele>677.39</ele><time>2015-11-27T13:44:07Z</time></trkpt><trkpt lat="29.4721766934" lon="35.1907899790"><ele>677.87</ele><time>2015-11-27T13:44:19Z</time></trkpt><trkpt lat="29.4721662998" lon="35.1906385180"><ele>676.91</ele><time>2015-11-27T13:44:25Z</time></trkpt><trkpt lat="29.4722616859" lon="35.1904804353"><ele>676.42</ele><time>2015-11-27T13:44:31Z</time></trkpt><trkpt lat="29.4722849876" lon="35.1900237054"><ele>675.94</ele><time>2015-11-27T13:44:45Z</time></trkpt><trkpt lat="29.4722634461" lon="35.1896488667"><ele>675.94</ele><time>2015-11-27T13:44:57Z</time></trkpt><trkpt lat="29.4723372906" lon="35.1892596111"><ele>675.46</ele><time>2015-11-27T13:45:10Z</time></trkpt><trkpt lat="29.4724311680" lon="35.1889449544"><ele>674.98</ele><time>2015-11-27T13:45:23Z</time></trkpt><trkpt lat="29.4724714849" lon="35.1887767296"><ele>674.98</ele><time>2015-11-27T13:45:30Z</time></trkpt><trkpt lat="29.4725198485" lon="35.1884159725"><ele>674.98</ele><time>2015-11-27T13:45:42Z</time></trkpt><trkpt lat="29.4725222792" lon="35.1880827080"><ele>674.50</ele><time>2015-11-27T13:45:54Z</time></trkpt><trkpt lat="29.4726219401" lon="35.1877581608"><ele>673.54</ele><time>2015-11-27T13:46:06Z</time></trkpt><trkpt lat="29.4728462398" lon="35.1872988325"><ele>673.06</ele><time>2015-11-27T13:46:21Z</time></trkpt><trkpt lat="29.4731103536" lon="35.1868575253"><ele>672.10</ele><time>2015-11-27T13:46:37Z</time></trkpt><trkpt lat="29.4733369164" lon="35.1864655875"><ele>671.62</ele><time>2015-11-27T13:46:49Z</time></trkpt><trkpt lat="29.4736312889" lon="35.1859769225"><ele>670.66</ele><time>2015-11-27T13:47:05Z</time></trkpt><trkpt lat="29.4737985078" lon="35.1855883375"><ele>669.70</ele><time>2015-11-27T13:47:18Z</time></trkpt><trkpt lat="29.4739574287" lon="35.1852248982"><ele>669.22</ele><time>2015-11-27T13:47:32Z</time></trkpt><trkpt lat="29.4741825666" lon="35.1848255005"><ele>668.73</ele><time>2015-11-27T13:47:48Z</time></trkpt><trkpt lat="29.4743250590" lon="35.1844515838"><ele>667.77</ele><time>2015-11-27T13:48:02Z</time></trkpt><trkpt lat="29.4743655436" lon="35.1840521861"><ele>667.29</ele><time>2015-11-27T13:48:15Z</time></trkpt><trkpt lat="29.4743421581" lon="35.1836294029"><ele>667.29</ele><time>2015-11-27T13:48:26Z</time></trkpt><trkpt lat="29.4744178466" lon="35.1833054423"><ele>666.81</ele><time>2015-11-27T13:48:39Z</time></trkpt><trkpt lat="29.4744284078" lon="35.1831189450"><ele>666.33</ele><time>2015-11-27T13:48:45Z</time></trkpt><trkpt lat="29.4744975585" lon="35.1829444338"><ele>665.85</ele><time>2015-11-27T13:48:52Z</time></trkpt><trkpt lat="29.4746407215" lon="35.1825879514"><ele>664.89</ele><time>2015-11-27T13:49:08Z</time></trkpt><trkpt lat="29.4747527037" lon="35.1821788307"><ele>664.89</ele><time>2015-11-27T13:49:21Z</time></trkpt><trkpt lat="29.4748452399" lon="35.1818446442"><ele>664.41</ele><time>2015-11-27T13:49:32Z</time></trkpt><trkpt lat="29.4748572260" lon="35.1817500126"><ele>664.41</ele><time>2015-11-27T13:49:43Z</time></trkpt><trkpt lat="29.4748680387" lon="35.1817311533"><ele>664.41</ele><time>2015-11-27T13:50:12Z</time></trkpt><trkpt lat="29.4748343434" lon="35.1816735696"><ele>663.93</ele><time>2015-11-27T13:50:32Z</time></trkpt><trkpt lat="29.4748528674" lon="35.1816505194"><ele>664.41</ele><time>2015-11-27T13:50:45Z</time></trkpt><trkpt lat="29.4748493470" lon="35.1816355996"><ele>664.89</ele><time>2015-11-27T13:50:47Z</time></trkpt><trkpt lat="29.4748133048" lon="35.1816271339"><ele>664.89</ele><time>2015-11-27T13:51:03Z</time></trkpt><trkpt lat="29.4748225249" lon="35.1816180814"><ele>664.89</ele><time>2015-11-27T13:51:48Z</time></trkpt><trkpt lat="29.4747918472" lon="35.1816172432"><ele>664.41</ele><time>2015-11-27T13:52:14Z</time></trkpt><trkpt lat="29.4747919310" lon="35.1816360187"><ele>663.93</ele><time>2015-11-27T13:52:38Z</time></trkpt><trkpt lat="29.4747910928" lon="35.1816617511"><ele>663.93</ele><time>2015-11-27T13:53:12Z</time></trkpt><trkpt lat="29.4747818727" lon="35.1816346776"><ele>663.93</ele><time>2015-11-27T13:54:16Z</time></trkpt><trkpt lat="29.4747786876" lon="35.1816424727"><ele>664.41</ele><time>2015-11-27T13:54:58Z</time></trkpt><trkpt lat="29.4747889973" lon="35.1816447359"><ele>663.93</ele><time>2015-11-27T13:56:05Z</time></trkpt><trkpt lat="29.4747877400" lon="35.1816532016"><ele>663.93</ele><time>2015-11-27T13:56:51Z</time></trkpt><trkpt lat="29.4747875724" lon="35.1816465799"><ele>663.93</ele><time>2015-11-27T13:57:31Z</time></trkpt><trkpt lat="29.4747947808" lon="35.1816281397"><ele>663.93</ele><time>2015-11-27T13:58:24Z</time></trkpt><trkpt lat="29.4747841358" lon="35.1816293970"><ele>663.45</ele><time>2015-11-27T13:59:13Z</time></trkpt><trkpt lat="29.4747775979" lon="35.1816371083"><ele>663.45</ele><time>2015-11-27T14:00:00Z</time></trkpt><trkpt lat="29.4747869857" lon="35.1816490106"><ele>663.45</ele><time>2015-11-27T14:00:40Z</time></trkpt><trkpt lat="29.4747777656" lon="35.1816592366"><ele>663.45</ele><time>2015-11-27T14:01:28Z</time></trkpt><trkpt lat="29.4747813698" lon="35.1816437300"><ele>662.97</ele><time>2015-11-27T14:02:08Z</time></trkpt><trkpt lat="29.4747851416" lon="35.1816296484"><ele>662.97</ele><time>2015-11-27T14:02:51Z</time></trkpt><trkpt lat="29.4747867342" lon="35.1816336717"><ele>662.49</ele><time>2015-11-27T14:03:32Z</time></trkpt><trkpt lat="29.4748035818" lon="35.1816340070"><ele>662.49</ele><time>2015-11-27T14:04:27Z</time></trkpt><trkpt lat="29.4748046715" lon="35.1816307381"><ele>662.49</ele><time>2015-11-27T14:05:03Z</time></trkpt><trkpt lat="29.4748015702" lon="35.1816295646"><ele>662.01</ele><time>2015-11-27T14:05:51Z</time></trkpt><trkpt lat="29.4747895002" lon="35.1816189196"><ele>662.97</ele><time>2015-11-27T14:06:18Z</time></trkpt><trkpt lat="29.4747871533" lon="35.1815998089"><ele>662.97</ele><time>2015-11-27T14:06:41Z</time></trkpt><trkpt lat="29.4747865666" lon="35.1816078555"><ele>662.49</ele><time>2015-11-27T14:07:11Z</time></trkpt><trkpt lat="29.4747794420" lon="35.1816101186"><ele>662.49</ele><time>2015-11-27T14:07:18Z</time></trkpt><trkpt lat="29.4747466687" lon="35.1816190872"><ele>662.97</ele><time>2015-11-27T14:07:22Z</time></trkpt><trkpt lat="29.4747236185" lon="35.1816050056"><ele>662.97</ele><time>2015-11-27T14:07:25Z</time></trkpt><trkpt lat="29.4744686410" lon="35.1815926842"><ele>662.97</ele><time>2015-11-27T14:07:39Z</time></trkpt><trkpt lat="29.4740488753" lon="35.1815558877"><ele>663.93</ele><time>2015-11-27T14:07:53Z</time></trkpt><trkpt lat="29.4736013655" lon="35.1816669479"><ele>664.41</ele><time>2015-11-27T14:08:08Z</time></trkpt><trkpt lat="29.4733196497" lon="35.1819386054"><ele>664.89</ele><time>2015-11-27T14:08:21Z</time></trkpt><trkpt lat="29.4730733894" lon="35.1821832731"><ele>664.89</ele><time>2015-11-27T14:08:35Z</time></trkpt><trkpt lat="29.4727383647" lon="35.1825219020"><ele>665.37</ele><time>2015-11-27T14:08:49Z</time></trkpt><trkpt lat="29.4725946989" lon="35.1826736983"><ele>665.37</ele><time>2015-11-27T14:08:54Z</time></trkpt><trkpt lat="29.4725668710" lon="35.1827090699"><ele>665.37</ele><time>2015-11-27T14:08:55Z</time></trkpt><trkpt lat="29.4725346845" lon="35.1827389095"><ele>665.37</ele><time>2015-11-27T14:08:56Z</time></trkpt><trkpt lat="29.4724681322" lon="35.1827981696"><ele>665.37</ele><time>2015-11-27T14:08:58Z</time></trkpt><trkpt lat="29.4720839895" lon="35.1832395606"><ele>666.81</ele><time>2015-11-27T14:09:12Z</time></trkpt><trkpt lat="29.4718769565" lon="35.1835005730"><ele>667.29</ele><time>2015-11-27T14:09:20Z</time></trkpt><trkpt lat="29.4714294467" lon="35.1841788366"><ele>669.22</ele><time>2015-11-27T14:09:38Z</time></trkpt><trkpt lat="29.4710449688" lon="35.1847498119"><ele>670.18</ele><time>2015-11-27T14:09:55Z</time></trkpt><trkpt lat="29.4710297976" lon="35.1847599540"><ele>670.18</ele><time>2015-11-27T14:09:56Z</time></trkpt><trkpt lat="29.4710161351" lon="35.1847727783"><ele>670.18</ele><time>2015-11-27T14:09:57Z</time></trkpt><trkpt lat="29.4710055739" lon="35.1847887877"><ele>670.66</ele><time>2015-11-27T14:09:58Z</time></trkpt><trkpt lat="29.4709967729" lon="35.1848015282"><ele>670.66</ele><time>2015-11-27T14:09:59Z</time></trkpt><trkpt lat="29.4709900673" lon="35.1848285180"><ele>670.66</ele><time>2015-11-27T14:10:13Z</time></trkpt><trkpt lat="29.4710225053" lon="35.1848119218"><ele>670.18</ele><time>2015-11-27T14:10:20Z</time></trkpt><trkpt lat="29.4710296299" lon="35.1847947389"><ele>670.66</ele><time>2015-11-27T14:10:21Z</time></trkpt><trkpt lat="29.4710363355" lon="35.1847750414"><ele>670.18</ele><time>2015-11-27T14:10:22Z</time></trkpt><trkpt lat="29.4710460585" lon="35.1847561821"><ele>670.18</ele><time>2015-11-27T14:10:23Z</time></trkpt><trkpt lat="29.4710584637" lon="35.1847376581"><ele>670.18</ele><time>2015-11-27T14:10:24Z</time></trkpt><trkpt lat="29.4710701983" lon="35.1847206429"><ele>670.18</ele><time>2015-11-27T14:10:25Z</time></trkpt><trkpt lat="29.4710828550" lon="35.1846996881"><ele>670.18</ele><time>2015-11-27T14:10:26Z</time></trkpt><trkpt lat="29.4713433646" lon="35.1843214128"><ele>668.73</ele><time>2015-11-27T14:10:37Z</time></trkpt><trkpt lat="29.4717257470" lon="35.1837532874"><ele>667.77</ele><time>2015-11-27T14:10:51Z</time></trkpt><trkpt lat="29.4717886113" lon="35.1836632658"><ele>667.77</ele><time>2015-11-27T14:10:53Z</time></trkpt><trkpt lat="29.4720813073" lon="35.1832746807"><ele>666.81</ele><time>2015-11-27T14:11:02Z</time></trkpt><trkpt lat="29.4721164275" lon="35.1832378842"><ele>666.33</ele><time>2015-11-27T14:11:03Z</time></trkpt><trkpt lat="29.4721485302" lon="35.1831975672"><ele>665.85</ele><time>2015-11-27T14:11:04Z</time></trkpt><trkpt lat="29.4721810520" lon="35.1831580047"><ele>665.85</ele><time>2015-11-27T14:11:05Z</time></trkpt><trkpt lat="29.4722175132" lon="35.1831179392"><ele>665.85</ele><time>2015-11-27T14:11:06Z</time></trkpt><trkpt lat="29.4728176575" lon="35.1824940741"><ele>664.89</ele><time>2015-11-27T14:11:22Z</time></trkpt><trkpt lat="29.4733350724" lon="35.1819673553"><ele>663.93</ele><time>2015-11-27T14:11:37Z</time></trkpt><trkpt lat="29.4733660854" lon="35.1819295529"><ele>663.93</ele><time>2015-11-27T14:11:38Z</time></trkpt><trkpt lat="29.4733982719" lon="35.1818931755"><ele>663.93</ele><time>2015-11-27T14:11:39Z</time></trkpt><trkpt lat="29.4734310452" lon="35.1818612404"><ele>663.93</ele><time>2015-11-27T14:11:40Z</time></trkpt><trkpt lat="29.4734645728" lon="35.1818320714"><ele>663.93</ele><time>2015-11-27T14:11:41Z</time></trkpt><trkpt lat="29.4738130085" lon="35.1815911755"><ele>663.45</ele><time>2015-11-27T14:11:51Z</time></trkpt><trkpt lat="29.4738548342" lon="35.1815816201"><ele>663.45</ele><time>2015-11-27T14:11:52Z</time></trkpt><trkpt lat="29.4738990068" lon="35.1815751661"><ele>663.45</ele><time>2015-11-27T14:11:53Z</time></trkpt><trkpt lat="29.4739431795" lon="35.1815729029"><ele>663.45</ele><time>2015-11-27T14:11:54Z</time></trkpt><trkpt lat="29.4739886932" lon="35.1815728191"><ele>663.45</ele><time>2015-11-27T14:11:55Z</time></trkpt><trkpt lat="29.4742674753" lon="35.1816105377"><ele>662.97</ele><time>2015-11-27T14:12:01Z</time></trkpt><trkpt lat="29.4751317333" lon="35.1816533692"><ele>661.52</ele><time>2015-11-27T14:12:19Z</time></trkpt><trkpt lat="29.4751803484" lon="35.1816494297"><ele>661.04</ele><time>2015-11-27T14:12:20Z</time></trkpt><trkpt lat="29.4752764888" lon="35.1816289779"><ele>661.04</ele><time>2015-11-27T14:12:22Z</time></trkpt><trkpt lat="29.4753188174" lon="35.1816099510"><ele>661.04</ele><time>2015-11-27T14:12:23Z</time></trkpt><trkpt lat="29.4755955040" lon="35.1812519599"><ele>660.56</ele><time>2015-11-27T14:12:34Z</time></trkpt><trkpt lat="29.4757855218" lon="35.1805568486"><ele>659.60</ele><time>2015-11-27T14:12:48Z</time></trkpt><trkpt lat="29.4758093264" lon="35.1805183757"><ele>659.12</ele><time>2015-11-27T14:12:49Z</time></trkpt><trkpt lat="29.4758303650" lon="35.1804783102"><ele>659.12</ele><time>2015-11-27T14:12:50Z</time></trkpt><trkpt lat="29.4758467935" lon="35.1804349758"><ele>659.12</ele><time>2015-11-27T14:12:51Z</time></trkpt><trkpt lat="29.4758613780" lon="35.1803897973"><ele>659.60</ele><time>2015-11-27T14:12:52Z</time></trkpt><trkpt lat="29.4758754596" lon="35.1803452894"><ele>659.60</ele><time>2015-11-27T14:12:53Z</time></trkpt><trkpt lat="29.4762336183" lon="35.1795409620"><ele>658.16</ele><time>2015-11-27T14:13:09Z</time></trkpt><trkpt lat="29.4766418170" lon="35.1787680667"><ele>657.20</ele><time>2015-11-27T14:13:24Z</time></trkpt><trkpt lat="29.4770393707" lon="35.1781568583"><ele>656.24</ele><time>2015-11-27T14:13:36Z</time></trkpt><trkpt lat="29.4770819508" lon="35.1781151164"><ele>656.24</ele><time>2015-11-27T14:13:37Z</time></trkpt><trkpt lat="29.4773857947" lon="35.1778381784"><ele>655.76</ele><time>2015-11-27T14:13:44Z</time></trkpt><trkpt lat="29.4774238486" lon="35.1777947601"><ele>655.28</ele><time>2015-11-27T14:13:45Z</time></trkpt><trkpt lat="29.4775348250" lon="35.1776602305"><ele>654.80</ele><time>2015-11-27T14:13:48Z</time></trkpt><trkpt lat="29.4775618147" lon="35.1776095200"><ele>654.80</ele><time>2015-11-27T14:13:49Z</time></trkpt><trkpt lat="29.4775805902" lon="35.1775542833"><ele>654.80</ele><time>2015-11-27T14:13:50Z</time></trkpt><trkpt lat="29.4775950909" lon="35.1774977054"><ele>654.80</ele><time>2015-11-27T14:13:51Z</time></trkpt><trkpt lat="29.4776037242" lon="35.1774395350"><ele>654.31</ele><time>2015-11-27T14:13:52Z</time></trkpt><trkpt lat="29.4776089210" lon="35.1773819514"><ele>654.31</ele><time>2015-11-27T14:13:53Z</time></trkpt><trkpt lat="29.4776384253" lon="35.1765557472"><ele>653.83</ele><time>2015-11-27T14:14:07Z</time></trkpt><trkpt lat="29.4779136870" lon="35.1757603046"><ele>653.83</ele><time>2015-11-27T14:14:21Z</time></trkpt><trkpt lat="29.4782227278" lon="35.1750618406"><ele>653.83</ele><time>2015-11-27T14:14:34Z</time></trkpt><trkpt lat="29.4785538968" lon="35.1742971595"><ele>656.72</ele><time>2015-11-27T14:14:52Z</time></trkpt><trkpt lat="29.4787835609" lon="35.1737615559"><ele>656.24</ele><time>2015-11-27T14:15:07Z</time></trkpt><trkpt lat="29.4789871573" lon="35.1732215937"><ele>654.80</ele><time>2015-11-27T14:15:20Z</time></trkpt><trkpt lat="29.4793641753" lon="35.1722647995"><ele>652.87</ele><time>2015-11-27T14:15:35Z</time></trkpt><trkpt lat="29.4798314665" lon="35.1710591465"><ele>651.43</ele><time>2015-11-27T14:15:52Z</time></trkpt><trkpt lat="29.4801733643" lon="35.1701826509"><ele>654.31</ele><time>2015-11-27T14:16:09Z</time></trkpt><trkpt lat="29.4802562613" lon="35.1699663978"><ele>654.80</ele><time>2015-11-27T14:16:14Z</time></trkpt><trkpt lat="29.4804937206" lon="35.1693579555"><ele>656.24</ele><time>2015-11-27T14:16:30Z</time></trkpt><trkpt lat="29.4805447664" lon="35.1692379266"><ele>656.24</ele><time>2015-11-27T14:16:33Z</time></trkpt><trkpt lat="29.4808191061" lon="35.1685630158"><ele>657.68</ele><time>2015-11-27T14:16:50Z</time></trkpt><trkpt lat="29.4810221996" lon="35.1680509653"><ele>658.16</ele><time>2015-11-27T14:17:04Z</time></trkpt><trkpt lat="29.4811737444" lon="35.1676643919"><ele>658.16</ele><time>2015-11-27T14:17:17Z</time></trkpt><trkpt lat="29.4813070167" lon="35.1673194766"><ele>659.12</ele><time>2015-11-27T14:17:28Z</time></trkpt><trkpt lat="29.4815910794" lon="35.1666162349"><ele>660.08</ele><time>2015-11-27T14:17:47Z</time></trkpt><trkpt lat="29.4819355756" lon="35.1657592691"><ele>661.04</ele><time>2015-11-27T14:18:07Z</time></trkpt><trkpt lat="29.4823129289" lon="35.1648178138"><ele>661.52</ele><time>2015-11-27T14:18:27Z</time></trkpt><trkpt lat="29.4825076405" lon="35.1643249579"><ele>662.01</ele><time>2015-11-27T14:18:40Z</time></trkpt><trkpt lat="29.4827350415" lon="35.1637737639"><ele>662.01</ele><time>2015-11-27T14:18:53Z</time></trkpt><trkpt lat="29.4829899352" lon="35.1631423552"><ele>662.49</ele><time>2015-11-27T14:19:08Z</time></trkpt><trkpt lat="29.4830572419" lon="35.1629669219"><ele>662.97</ele><time>2015-11-27T14:19:12Z</time></trkpt><trkpt lat="29.4830724970" lon="35.1629235037"><ele>662.97</ele><time>2015-11-27T14:19:13Z</time></trkpt><trkpt lat="29.4832781050" lon="35.1624090225"><ele>665.37</ele><time>2015-11-27T14:19:28Z</time></trkpt><trkpt lat="29.4834159035" lon="35.1620627660"><ele>666.81</ele><time>2015-11-27T14:19:41Z</time></trkpt><trkpt lat="29.4835702144" lon="35.1616556570"><ele>668.73</ele><time>2015-11-27T14:19:57Z</time></trkpt><trkpt lat="29.4837266207" lon="35.1612557564"><ele>670.66</ele><time>2015-11-27T14:20:13Z</time></trkpt><trkpt lat="29.4839053228" lon="35.1607941650"><ele>673.06</ele><time>2015-11-27T14:20:32Z</time></trkpt><trkpt lat="29.4840446301" lon="35.1604500879"><ele>674.98</ele><time>2015-11-27T14:20:47Z</time></trkpt><trkpt lat="29.4842425268" lon="35.1603059191"><ele>675.94</ele><time>2015-11-27T14:21:00Z</time></trkpt><trkpt lat="29.4842505734" lon="35.1603303943"><ele>675.94</ele><time>2015-11-27T14:21:16Z</time></trkpt><trkpt lat="29.4842652418" lon="35.1603371836"><ele>675.94</ele><time>2015-11-27T14:21:17Z</time></trkpt><trkpt lat="29.4842792396" lon="35.1603417099"><ele>675.94</ele><time>2015-11-27T14:21:18Z</time></trkpt><trkpt lat="29.4842912257" lon="35.1603464037"><ele>675.94</ele><time>2015-11-27T14:21:19Z</time></trkpt><trkpt lat="29.4843012840" lon="35.1603527740"><ele>675.94</ele><time>2015-11-27T14:21:20Z</time></trkpt><trkpt lat="29.4843124319" lon="35.1603577193"><ele>675.94</ele><time>2015-11-27T14:21:21Z</time></trkpt><trkpt lat="29.4843205623" lon="35.1603612397"><ele>675.46</ele><time>2015-11-27T14:21:22Z</time></trkpt><trkpt lat="29.4843446184" lon="35.1603792608"><ele>674.98</ele><time>2015-11-27T14:21:38Z</time></trkpt><trkpt lat="29.4843423553" lon="35.1603785064"><ele>674.98</ele><time>2015-11-27T14:22:09Z</time></trkpt><trkpt lat="29.4843483903" lon="35.1603912469"><ele>674.98</ele><time>2015-11-27T14:22:15Z</time></trkpt><trkpt lat="29.4843557663" lon="35.1603994612"><ele>675.46</ele><time>2015-11-27T14:22:16Z</time></trkpt><trkpt lat="29.4843714405" lon="35.1604069211"><ele>674.98</ele><time>2015-11-27T14:22:17Z</time></trkpt><trkpt lat="29.4843890425" lon="35.1604160573"><ele>674.98</ele><time>2015-11-27T14:22:18Z</time></trkpt><trkpt lat="29.4844101649" lon="35.1604256965"><ele>674.98</ele><time>2015-11-27T14:22:19Z</time></trkpt><trkpt lat="29.4848420843" lon="35.1606396865"><ele>673.06</ele><time>2015-11-27T14:22:29Z</time></trkpt><trkpt lat="29.4858551212" lon="35.1611879468"><ele>670.18</ele><time>2015-11-27T14:22:44Z</time></trkpt><trkpt lat="29.4866373204" lon="35.1615982410"><ele>666.81</ele><time>2015-11-27T14:22:55Z</time></trkpt><trkpt lat="29.4871343672" lon="35.1618598402"><ele>663.45</ele><time>2015-11-27T14:23:01Z</time></trkpt><trkpt lat="29.4874316733" lon="35.1620129775"><ele>660.56</ele><time>2015-11-27T14:23:04Z</time></trkpt><trkpt lat="29.4877538737" lon="35.1621809509"><ele>657.20</ele><time>2015-11-27T14:23:07Z</time></trkpt><trkpt lat="29.4883072469" lon="35.1624754071"><ele>653.35</ele><time>2015-11-27T14:23:12Z</time></trkpt><trkpt lat="29.4887771364" lon="35.1627130341"><ele>649.51</ele><time>2015-11-27T14:23:16Z</time></trkpt><trkpt lat="29.4893600978" lon="35.1630171295"><ele>646.14</ele><time>2015-11-27T14:23:21Z</time></trkpt><trkpt lat="29.4899215177" lon="35.1633181237"><ele>642.78</ele><time>2015-11-27T14:23:26Z</time></trkpt><trkpt lat="29.4908400904" lon="35.1638086326"><ele>638.93</ele><time>2015-11-27T14:23:35Z</time></trkpt><trkpt lat="29.4909343030" lon="35.1638598461"><ele>638.93</ele><time>2015-11-27T14:23:36Z</time></trkpt><trkpt lat="29.4918918516" lon="35.1643711422"><ele>635.09</ele><time>2015-11-27T14:23:47Z</time></trkpt><trkpt lat="29.4925296307" lon="35.1646982040"><ele>631.72</ele><time>2015-11-27T14:23:54Z</time></trkpt><trkpt lat="29.4930222351" lon="35.1649466436"><ele>627.88</ele><time>2015-11-27T14:23:59Z</time></trkpt><trkpt lat="29.4933233131" lon="35.1650774013"><ele>626.44</ele><time>2015-11-27T14:24:02Z</time></trkpt><trkpt lat="29.4934253208" lon="35.1651014574"><ele>625.96</ele><time>2015-11-27T14:24:03Z</time></trkpt><trkpt lat="29.4935265742" lon="35.1651125215"><ele>625.47</ele><time>2015-11-27T14:24:04Z</time></trkpt><trkpt lat="29.4936267380" lon="35.1651125215"><ele>624.99</ele><time>2015-11-27T14:24:05Z</time></trkpt><trkpt lat="29.4937262312" lon="35.1651048101"><ele>624.51</ele><time>2015-11-27T14:24:06Z</time></trkpt><trkpt lat="29.4943158142" lon="35.1650059037"><ele>622.11</ele><time>2015-11-27T14:24:12Z</time></trkpt><trkpt lat="29.4944062550" lon="35.1649647485"><ele>621.63</ele><time>2015-11-27T14:24:13Z</time></trkpt><trkpt lat="29.4944914989" lon="35.1649157144"><ele>621.15</ele><time>2015-11-27T14:24:14Z</time></trkpt><trkpt lat="29.4945717137" lon="35.1648584660"><ele>621.15</ele><time>2015-11-27T14:24:15Z</time></trkpt><trkpt lat="29.4946443848" lon="35.1647967752"><ele>621.15</ele><time>2015-11-27T14:24:16Z</time></trkpt><trkpt lat="29.4947133679" lon="35.1647342462"><ele>620.67</ele><time>2015-11-27T14:24:17Z</time></trkpt><trkpt lat="29.4954263326" lon="35.1640963834"><ele>617.78</ele><time>2015-11-27T14:24:28Z</time></trkpt><trkpt lat="29.4958537258" lon="35.1636775397"><ele>616.34</ele><time>2015-11-27T14:24:36Z</time></trkpt><trkpt lat="29.4958988205" lon="35.1636174414"><ele>616.82</ele><time>2015-11-27T14:24:37Z</time></trkpt><trkpt lat="29.4959823042" lon="35.1634937245"><ele>615.86</ele><time>2015-11-27T14:24:39Z</time></trkpt><trkpt lat="29.4960203581" lon="35.1634324528"><ele>615.86</ele><time>2015-11-27T14:24:40Z</time></trkpt><trkpt lat="29.4965332467" lon="35.1625719666"><ele>613.94</ele><time>2015-11-27T14:24:55Z</time></trkpt><trkpt lat="29.4966418762" lon="35.1623766683"><ele>613.46</ele><time>2015-11-27T14:24:59Z</time></trkpt><trkpt lat="29.4966633338" lon="35.1623269636"><ele>613.46</ele><time>2015-11-27T14:25:00Z</time></trkpt><trkpt lat="29.4967464823" lon="35.1621774305"><ele>612.50</ele><time>2015-11-27T14:25:03Z</time></trkpt><trkpt lat="29.4967769086" lon="35.1621291507"><ele>612.98</ele><time>2015-11-27T14:25:04Z</time></trkpt><trkpt lat="29.4968045689" lon="35.1620788593"><ele>612.50</ele><time>2015-11-27T14:25:05Z</time></trkpt><trkpt lat="29.4970367476" lon="35.1617051940"><ele>611.54</ele><time>2015-11-27T14:25:13Z</time></trkpt><trkpt lat="29.4973597024" lon="35.1613550819"><ele>611.54</ele><time>2015-11-27T14:25:22Z</time></trkpt><trkpt lat="29.4980916101" lon="35.1608947478"><ele>609.13</ele><time>2015-11-27T14:25:37Z</time></trkpt><trkpt lat="29.4989406969" lon="35.1604432985"><ele>607.21</ele><time>2015-11-27T14:25:54Z</time></trkpt><trkpt lat="29.4991110172" lon="35.1603295561"><ele>606.73</ele><time>2015-11-27T14:25:58Z</time></trkpt><trkpt lat="29.4998730160" lon="35.1598313358"><ele>604.81</ele><time>2015-11-27T14:26:15Z</time></trkpt><trkpt lat="29.4999209605" lon="35.1598014124"><ele>605.29</ele><time>2015-11-27T14:26:16Z</time></trkpt><trkpt lat="29.5000712480" lon="35.1597164199"><ele>604.81</ele><time>2015-11-27T14:26:19Z</time></trkpt><trkpt lat="29.5008812752" lon="35.1592207141"><ele>602.88</ele><time>2015-11-27T14:26:35Z</time></trkpt><trkpt lat="29.5011394378" lon="35.1590866875"><ele>602.40</ele><time>2015-11-27T14:26:40Z</time></trkpt><trkpt lat="29.5012439601" lon="35.1590216439"><ele>602.40</ele><time>2015-11-27T14:26:42Z</time></trkpt><trkpt lat="29.5012924913" lon="35.1589807402"><ele>602.40</ele><time>2015-11-27T14:26:43Z</time></trkpt><trkpt lat="29.5013392624" lon="35.1589345559"><ele>601.92</ele><time>2015-11-27T14:26:44Z</time></trkpt><trkpt lat="29.5013825968" lon="35.1588805765"><ele>601.92</ele><time>2015-11-27T14:26:45Z</time></trkpt><trkpt lat="29.5014203992" lon="35.1588204782"><ele>601.92</ele><time>2015-11-27T14:26:46Z</time></trkpt><trkpt lat="29.5014561899" lon="35.1587552670"><ele>601.92</ele><time>2015-11-27T14:26:47Z</time></trkpt><trkpt lat="29.5017347205" lon="35.1579507720"><ele>600.48</ele><time>2015-11-27T14:26:59Z</time></trkpt><trkpt lat="29.5020043664" lon="35.1568192989"><ele>598.08</ele><time>2015-11-27T14:27:17Z</time></trkpt><trkpt lat="29.5022437535" lon="35.1557523664"><ele>595.67</ele><time>2015-11-27T14:27:34Z</time></trkpt><trkpt lat="29.5025788620" lon="35.1545710210"><ele>593.27</ele><time>2015-11-27T14:27:52Z</time></trkpt><trkpt lat="29.5029075164" lon="35.1535304077"><ele>591.35</ele><time>2015-11-27T14:28:08Z</time></trkpt><trkpt lat="29.5029831212" lon="35.1532697305"><ele>590.39</ele><time>2015-11-27T14:28:12Z</time></trkpt><trkpt lat="29.5030057523" lon="35.1532080397"><ele>590.87</ele><time>2015-11-27T14:28:13Z</time></trkpt><trkpt lat="29.5033425372" lon="35.1521214098"><ele>588.46</ele><time>2015-11-27T14:28:30Z</time></trkpt><trkpt lat="29.5036952477" lon="35.1511105523"><ele>586.06</ele><time>2015-11-27T14:28:46Z</time></trkpt><trkpt lat="29.5040190406" lon="35.1501270197"><ele>584.62</ele><time>2015-11-27T14:29:01Z</time></trkpt><trkpt lat="29.5042542368" lon="35.1494586468"><ele>583.18</ele><time>2015-11-27T14:29:12Z</time></trkpt><trkpt lat="29.5042813104" lon="35.1493973751"><ele>583.18</ele><time>2015-11-27T14:29:13Z</time></trkpt><trkpt lat="29.5043029357" lon="35.1493358519"><ele>582.70</ele><time>2015-11-27T14:29:14Z</time></trkpt><trkpt lat="29.5046589989" lon="35.1483214740"><ele>580.29</ele><time>2015-11-27T14:29:30Z</time></trkpt><trkpt lat="29.5051195007" lon="35.1472991332"><ele>578.37</ele><time>2015-11-27T14:29:46Z</time></trkpt><trkpt lat="29.5051509328" lon="35.1472433936"><ele>578.37</ele><time>2015-11-27T14:29:47Z</time></trkpt><trkpt lat="29.5056797471" lon="35.1462917123"><ele>576.45</ele><time>2015-11-27T14:30:03Z</time></trkpt><trkpt lat="29.5058761351" lon="35.1459139399"><ele>575.49</ele><time>2015-11-27T14:30:09Z</time></trkpt><trkpt lat="29.5059048012" lon="35.1458493154"><ele>575.01</ele><time>2015-11-27T14:30:10Z</time></trkpt><trkpt lat="29.5059390832" lon="35.1457908098"><ele>575.01</ele><time>2015-11-27T14:30:11Z</time></trkpt><trkpt lat="29.5059732813" lon="35.1457318850"><ele>575.01</ele><time>2015-11-27T14:30:12Z</time></trkpt><trkpt lat="29.5060046297" lon="35.1456705295"><ele>574.53</ele><time>2015-11-27T14:30:13Z</time></trkpt><trkpt lat="29.5063419174" lon="35.1451828703"><ele>573.56</ele><time>2015-11-27T14:30:22Z</time></trkpt><trkpt lat="29.5069794450" lon="35.1444769464"><ele>571.16</ele><time>2015-11-27T14:30:38Z</time></trkpt><trkpt lat="29.5070372801" lon="35.1444099750"><ele>570.68</ele><time>2015-11-27T14:30:42Z</time></trkpt><trkpt lat="29.5070467517" lon="35.1443903614"><ele>570.68</ele><time>2015-11-27T14:30:43Z</time></trkpt><trkpt lat="29.5070603304" lon="35.1443736814"><ele>570.68</ele><time>2015-11-27T14:30:44Z</time></trkpt><trkpt lat="29.5070870686" lon="35.1443642937"><ele>570.68</ele><time>2015-11-27T14:30:52Z</time></trkpt><trkpt lat="29.5071098674" lon="35.1443357952"><ele>570.68</ele><time>2015-11-27T14:31:17Z</time></trkpt><trkpt lat="29.5073764957" lon="35.1440130919"><ele>569.72</ele><time>2015-11-27T14:31:32Z</time></trkpt><trkpt lat="29.5076557808" lon="35.1436972618"><ele>568.76</ele><time>2015-11-27T14:31:42Z</time></trkpt><trkpt lat="29.5078799967" lon="35.1434653345"><ele>567.80</ele><time>2015-11-27T14:31:49Z</time></trkpt><trkpt lat="29.5079143625" lon="35.1434306335"><ele>567.80</ele><time>2015-11-27T14:31:50Z</time></trkpt><trkpt lat="29.5079492312" lon="35.1433960162"><ele>567.32</ele><time>2015-11-27T14:31:51Z</time></trkpt><trkpt lat="29.5086037740" lon="35.1427869871"><ele>565.87</ele><time>2015-11-27T14:32:07Z</time></trkpt><trkpt lat="29.5093250368" lon="35.1420321967"><ele>563.47</ele><time>2015-11-27T14:32:24Z</time></trkpt><trkpt lat="29.5101458766" lon="35.1412665099"><ele>561.55</ele><time>2015-11-27T14:32:43Z</time></trkpt><trkpt lat="29.5109889284" lon="35.1405278966"><ele>559.14</ele><time>2015-11-27T14:33:02Z</time></trkpt><trkpt lat="29.5116678625" lon="35.1399742719"><ele>557.70</ele><time>2015-11-27T14:33:17Z</time></trkpt><trkpt lat="29.5119406097" lon="35.1397471223"><ele>556.74</ele><time>2015-11-27T14:33:23Z</time></trkpt><trkpt lat="29.5125296898" lon="35.1392706111"><ele>555.30</ele><time>2015-11-27T14:33:36Z</time></trkpt><trkpt lat="29.5131533872" lon="35.1384728216"><ele>552.90</ele><time>2015-11-27T14:33:52Z</time></trkpt><trkpt lat="29.5137189981" lon="35.1375768799"><ele>550.49</ele><time>2015-11-27T14:34:09Z</time></trkpt><trkpt lat="29.5142008737" lon="35.1367284637"><ele>548.57</ele><time>2015-11-27T14:34:25Z</time></trkpt><trkpt lat="29.5146552566" lon="35.1360399742"><ele>547.13</ele><time>2015-11-27T14:34:39Z</time></trkpt><trkpt lat="29.5148042869" lon="35.1358722523"><ele>546.65</ele><time>2015-11-27T14:34:43Z</time></trkpt><trkpt lat="29.5155915152" lon="35.1352367364"><ele>545.20</ele><time>2015-11-27T14:35:01Z</time></trkpt><trkpt lat="29.5156769268" lon="35.1351728663"><ele>544.72</ele><time>2015-11-27T14:35:03Z</time></trkpt><trkpt lat="29.5157180820" lon="35.1351381652"><ele>544.72</ele><time>2015-11-27T14:35:04Z</time></trkpt><trkpt lat="29.5157602429" lon="35.1351067331"><ele>544.72</ele><time>2015-11-27T14:35:05Z</time></trkpt><trkpt lat="29.5163044799" lon="35.1347319782"><ele>543.28</ele><time>2015-11-27T14:35:17Z</time></trkpt><trkpt lat="29.5170917921" lon="35.1344293915"><ele>540.88</ele><time>2015-11-27T14:35:31Z</time></trkpt><trkpt lat="29.5171447657" lon="35.1343996357"><ele>540.40</ele><time>2015-11-27T14:35:32Z</time></trkpt><trkpt lat="29.5171922073" lon="35.1343655214"><ele>540.40</ele><time>2015-11-27T14:35:33Z</time></trkpt><trkpt lat="29.5172918681" lon="35.1343056746"><ele>540.40</ele><time>2015-11-27T14:35:35Z</time></trkpt><trkpt lat="29.5173441712" lon="35.1342818700"><ele>540.40</ele><time>2015-11-27T14:35:36Z</time></trkpt><trkpt lat="29.5175095461" lon="35.1342277229"><ele>539.44</ele><time>2015-11-27T14:35:39Z</time></trkpt><trkpt lat="29.5175664593" lon="35.1342140604"><ele>539.44</ele><time>2015-11-27T14:35:40Z</time></trkpt><trkpt lat="29.5176250488" lon="35.1342052594"><ele>539.44</ele><time>2015-11-27T14:35:41Z</time></trkpt><trkpt lat="29.5176844765" lon="35.1342002302"><ele>538.96</ele><time>2015-11-27T14:35:42Z</time></trkpt><trkpt lat="29.5177447423" lon="35.1341982186"><ele>538.96</ele><time>2015-11-27T14:35:43Z</time></trkpt><trkpt lat="29.5186411031" lon="35.1343412139"><ele>536.55</ele><time>2015-11-27T14:35:58Z</time></trkpt><trkpt lat="29.5186970104" lon="35.1343537867"><ele>536.55</ele><time>2015-11-27T14:35:59Z</time></trkpt><trkpt lat="29.5196237974" lon="35.1345705427"><ele>534.15</ele><time>2015-11-27T14:36:17Z</time></trkpt><trkpt lat="29.5204175636" lon="35.1350242551"><ele>532.23</ele><time>2015-11-27T14:36:33Z</time></trkpt><trkpt lat="29.5211968292" lon="35.1354223117"><ele>530.30</ele><time>2015-11-27T14:36:47Z</time></trkpt><trkpt lat="29.5215907786" lon="35.1355293486"><ele>529.82</ele><time>2015-11-27T14:36:54Z</time></trkpt><trkpt lat="29.5216455124" lon="35.1355248224"><ele>529.82</ele><time>2015-11-27T14:36:55Z</time></trkpt><trkpt lat="29.5216997433" lon="35.1355156023"><ele>529.82</ele><time>2015-11-27T14:36:56Z</time></trkpt><trkpt lat="29.5217529684" lon="35.1354995929"><ele>529.82</ele><time>2015-11-27T14:36:57Z</time></trkpt><trkpt lat="29.5218041819" lon="35.1354735252"><ele>529.82</ele><time>2015-11-27T14:36:58Z</time></trkpt><trkpt lat="29.5218511205" lon="35.1354394108"><ele>530.30</ele><time>2015-11-27T14:36:59Z</time></trkpt><trkpt lat="29.5218907669" lon="35.1354015246"><ele>530.30</ele><time>2015-11-27T14:37:00Z</time></trkpt><trkpt lat="29.5221168268" lon="35.1351888757"><ele>532.23</ele><time>2015-11-27T14:37:10Z</time></trkpt><trkpt lat="29.5224386081" lon="35.1348100137"><ele>531.75</ele><time>2015-11-27T14:37:24Z</time></trkpt><trkpt lat="29.5224669389" lon="35.1347692776"><ele>531.75</ele><time>2015-11-27T14:37:25Z</time></trkpt><trkpt lat="29.5224958565" lon="35.1347284578"><ele>531.75</ele><time>2015-11-27T14:37:26Z</time></trkpt><trkpt lat="29.5226497483" lon="35.1345258672"><ele>531.27</ele><time>2015-11-27T14:37:31Z</time></trkpt><trkpt lat="29.5227256045" lon="35.1344430540"><ele>530.79</ele><time>2015-11-27T14:37:33Z</time></trkpt><trkpt lat="29.5234282594" lon="35.1335328631"><ele>529.34</ele><time>2015-11-27T14:37:50Z</time></trkpt><trkpt lat="29.5241831336" lon="35.1324810181"><ele>527.42</ele><time>2015-11-27T14:38:08Z</time></trkpt><trkpt lat="29.5247038174" lon="35.1317605935"><ele>527.90</ele><time>2015-11-27T14:38:22Z</time></trkpt><trkpt lat="29.5249894727" lon="35.1313624531"><ele>529.82</ele><time>2015-11-27T14:38:35Z</time></trkpt><trkpt lat="29.5251895487" lon="35.1310361456"><ele>532.23</ele><time>2015-11-27T14:38:49Z</time></trkpt><trkpt lat="29.5253095776" lon="35.1307699364"><ele>534.63</ele><time>2015-11-27T14:39:03Z</time></trkpt><trkpt lat="29.5253762137" lon="35.1304839458"><ele>535.59</ele><time>2015-11-27T14:39:16Z</time></trkpt><trkpt lat="29.5252606273" lon="35.1299532037"><ele>535.11</ele><time>2015-11-27T14:39:31Z</time></trkpt><trkpt lat="29.5250549354" lon="35.1294770278"><ele>537.51</ele><time>2015-11-27T14:39:46Z</time></trkpt><trkpt lat="29.5250237547" lon="35.1289885305"><ele>539.92</ele><time>2015-11-27T14:40:02Z</time></trkpt><trkpt lat="29.5253793150" lon="35.1284717023"><ele>537.99</ele><time>2015-11-27T14:40:18Z</time></trkpt><trkpt lat="29.5255984180" lon="35.1282968558"><ele>535.11</ele><time>2015-11-27T14:40:22Z</time></trkpt><trkpt lat="29.5261012483" lon="35.1279836241"><ele>532.71</ele><time>2015-11-27T14:40:29Z</time></trkpt><trkpt lat="29.5267772488" lon="35.1276951190"><ele>532.23</ele><time>2015-11-27T14:40:38Z</time></trkpt><trkpt lat="29.5268456452" lon="35.1276656147"><ele>532.23</ele><time>2015-11-27T14:40:39Z</time></trkpt><trkpt lat="29.5269171428" lon="35.1276415586"><ele>531.27</ele><time>2015-11-27T14:40:40Z</time></trkpt><trkpt lat="29.5275460370" lon="35.1274164207"><ele>527.90</ele><time>2015-11-27T14:40:48Z</time></trkpt><trkpt lat="29.5278932154" lon="35.1272729225"><ele>525.98</ele><time>2015-11-27T14:40:52Z</time></trkpt><trkpt lat="29.5287942700" lon="35.1268679090"><ele>522.61</ele><time>2015-11-27T14:41:03Z</time></trkpt><trkpt lat="29.5288795978" lon="35.1268266700"><ele>522.61</ele><time>2015-11-27T14:41:04Z</time></trkpt><trkpt lat="29.5300183631" lon="35.1264022943"><ele>519.73</ele><time>2015-11-27T14:41:18Z</time></trkpt><trkpt lat="29.5305458363" lon="35.1263849437"><ele>516.85</ele><time>2015-11-27T14:41:23Z</time></trkpt><trkpt lat="29.5311275404" lon="35.1264705230"><ele>520.21</ele><time>2015-11-27T14:41:30Z</time></trkpt><trkpt lat="29.5312414505" lon="35.1264965907"><ele>521.17</ele><time>2015-11-27T14:41:32Z</time></trkpt><trkpt lat="29.5316597074" lon="35.1265681721"><ele>524.06</ele><time>2015-11-27T14:41:43Z</time></trkpt><trkpt lat="29.5319586899" lon="35.1265295316"><ele>526.46</ele><time>2015-11-27T14:41:58Z</time></trkpt><trkpt lat="29.5321594365" lon="35.1264091674"><ele>526.46</ele><time>2015-11-27T14:42:08Z</time></trkpt><trkpt lat="29.5323405694" lon="35.1259168983"><ele>525.50</ele><time>2015-11-27T14:42:23Z</time></trkpt><trkpt lat="29.5323618595" lon="35.1254576538"><ele>526.94</ele><time>2015-11-27T14:42:36Z</time></trkpt><trkpt lat="29.5322893560" lon="35.1250722539"><ele>530.30</ele><time>2015-11-27T14:42:50Z</time></trkpt><trkpt lat="29.5322297607" lon="35.1246589422"><ele>532.71</ele><time>2015-11-27T14:43:06Z</time></trkpt><trkpt lat="29.5322206244" lon="35.1241846103"><ele>535.11</ele><time>2015-11-27T14:43:24Z</time></trkpt><trkpt lat="29.5322072133" lon="35.1240725443"><ele>535.59</ele><time>2015-11-27T14:43:36Z</time></trkpt><trkpt lat="29.5322130807" lon="35.1240682695"><ele>535.59</ele><time>2015-11-27T14:44:03Z</time></trkpt><trkpt lat="29.5322164334" lon="35.1240545232"><ele>535.59</ele><time>2015-11-27T14:44:04Z</time></trkpt><trkpt lat="29.5322176069" lon="35.1240381785"><ele>536.07</ele><time>2015-11-27T14:44:05Z</time></trkpt><trkpt lat="29.5323274098" lon="35.1237846259"><ele>537.99</ele><time>2015-11-27T14:44:18Z</time></trkpt><trkpt lat="29.5323357917" lon="35.1237897389"><ele>538.48</ele><time>2015-11-27T14:44:19Z</time></trkpt><trkpt lat="29.5323423296" lon="35.1237992942"><ele>537.99</ele><time>2015-11-27T14:44:20Z</time></trkpt><trkpt lat="29.5323373005" lon="35.1238069218"><ele>537.99</ele><time>2015-11-27T14:44:32Z</time></trkpt><trkpt lat="29.5323670562" lon="35.1238131244"><ele>537.99</ele><time>2015-11-27T14:44:47Z</time></trkpt><trkpt lat="29.5323762763" lon="35.1238205843"><ele>537.99</ele><time>2015-11-27T14:44:48Z</time></trkpt><trkpt lat="29.5323854964" lon="35.1238298044"><ele>537.99</ele><time>2015-11-27T14:44:49Z</time></trkpt><trkpt lat="29.5325678866" lon="35.1240888052"><ele>536.07</ele><time>2015-11-27T14:45:02Z</time></trkpt><trkpt lat="29.5329316612" lon="35.1246873569"><ele>533.19</ele><time>2015-11-27T14:45:13Z</time></trkpt><trkpt lat="29.5333194919" lon="35.1254168339"><ele>529.34</ele><time>2015-11-27T14:45:23Z</time></trkpt><trkpt lat="29.5336879604" lon="35.1261574589"><ele>525.98</ele><time>2015-11-27T14:45:32Z</time></trkpt><trkpt lat="29.5340478793" lon="35.1268621255"><ele>523.09</ele><time>2015-11-27T14:45:40Z</time></trkpt><trkpt lat="29.5340985898" lon="35.1269585174"><ele>522.61</ele><time>2015-11-27T14:45:41Z</time></trkpt><trkpt lat="29.5343294274" lon="35.1273563225"><ele>521.17</ele><time>2015-11-27T14:45:45Z</time></trkpt><trkpt lat="29.5347521268" lon="35.1279372722"><ele>518.29</ele><time>2015-11-27T14:45:51Z</time></trkpt><trkpt lat="29.5352607407" lon="35.1284436230"><ele>513.96</ele><time>2015-11-27T14:45:57Z</time></trkpt><trkpt lat="29.5353514329" lon="35.1285184734"><ele>513.48</ele><time>2015-11-27T14:45:58Z</time></trkpt><trkpt lat="29.5360301156" lon="35.1289838366"><ele>510.60</ele><time>2015-11-27T14:46:05Z</time></trkpt><trkpt lat="29.5363377314" lon="35.1291466132"><ele>509.16</ele><time>2015-11-27T14:46:08Z</time></trkpt><trkpt lat="29.5369610935" lon="35.1293684822"><ele>505.79</ele><time>2015-11-27T14:46:14Z</time></trkpt><trkpt lat="29.5375927538" lon="35.1295026764"><ele>502.43</ele><time>2015-11-27T14:46:20Z</time></trkpt><trkpt lat="29.5376965217" lon="35.1295206975"><ele>501.95</ele><time>2015-11-27T14:46:21Z</time></trkpt><trkpt lat="29.5379070751" lon="35.1295480225"><ele>500.98</ele><time>2015-11-27T14:46:23Z</time></trkpt><trkpt lat="29.5381186344" lon="35.1295734197"><ele>500.02</ele><time>2015-11-27T14:46:25Z</time></trkpt><trkpt lat="29.5387493726" lon="35.1296605077"><ele>495.70</ele><time>2015-11-27T14:46:31Z</time></trkpt><trkpt lat="29.5395886526" lon="35.1297778543"><ele>492.33</ele><time>2015-11-27T14:46:39Z</time></trkpt><trkpt lat="29.5403141901" lon="35.1298784371"><ele>488.97</ele><time>2015-11-27T14:46:46Z</time></trkpt><trkpt lat="29.5409206208" lon="35.1299655251"><ele>485.60</ele><time>2015-11-27T14:46:52Z</time></trkpt><trkpt lat="29.5415262971" lon="35.1300664432"><ele>482.24</ele><time>2015-11-27T14:46:58Z</time></trkpt><trkpt lat="29.5421282854" lon="35.1301585604"><ele>478.39</ele><time>2015-11-27T14:47:04Z</time></trkpt><trkpt lat="29.5426109154" lon="35.1302376017"><ele>475.03</ele><time>2015-11-27T14:47:09Z</time></trkpt><trkpt lat="29.5431082137" lon="35.1303733885"><ele>471.66</ele><time>2015-11-27T14:47:14Z</time></trkpt><trkpt lat="29.5436053444" lon="35.1305867080"><ele>468.30</ele><time>2015-11-27T14:47:19Z</time></trkpt><trkpt lat="29.5439812727" lon="35.1308301184"><ele>464.93</ele><time>2015-11-27T14:47:23Z</time></trkpt><trkpt lat="29.5443934109" lon="35.1311731059"><ele>461.57</ele><time>2015-11-27T14:47:28Z</time></trkpt><trkpt lat="29.5444730390" lon="35.1312453579"><ele>461.09</ele><time>2015-11-27T14:47:29Z</time></trkpt><trkpt lat="29.5447106659" lon="35.1314651314"><ele>460.13</ele><time>2015-11-27T14:47:32Z</time></trkpt><trkpt lat="29.5457200985" lon="35.1323654316"><ele>456.76</ele><time>2015-11-27T14:47:46Z</time></trkpt><trkpt lat="29.5466074906" lon="35.1332334615"><ele>453.40</ele><time>2015-11-27T14:47:59Z</time></trkpt><trkpt lat="29.5474518836" lon="35.1339963824"><ele>454.84</ele><time>2015-11-27T14:48:13Z</time></trkpt><trkpt lat="29.5479405485" lon="35.1343223546"><ele>457.24</ele><time>2015-11-27T14:48:26Z</time></trkpt><trkpt lat="29.5482992101" lon="35.1344587281"><ele>460.61</ele><time>2015-11-27T14:48:39Z</time></trkpt><trkpt lat="29.5487724524" lon="35.1345940959"><ele>462.53</ele><time>2015-11-27T14:48:56Z</time></trkpt><trkpt lat="29.5491607022" lon="35.1347122807"><ele>464.93</ele><time>2015-11-27T14:49:11Z</time></trkpt><trkpt lat="29.5495735109" lon="35.1348341536"><ele>467.82</ele><time>2015-11-27T14:49:27Z</time></trkpt><trkpt lat="29.5500428975" lon="35.1349657495"><ele>470.70</ele><time>2015-11-27T14:49:45Z</time></trkpt><trkpt lat="29.5503226016" lon="35.1350763068"><ele>472.14</ele><time>2015-11-27T14:49:57Z</time></trkpt><trkpt lat="29.5506713726" lon="35.1353207231"><ele>474.07</ele><time>2015-11-27T14:50:12Z</time></trkpt><trkpt lat="29.5509615541" lon="35.1357860863"><ele>475.03</ele><time>2015-11-27T14:50:28Z</time></trkpt><trkpt lat="29.5509636495" lon="35.1361651160"><ele>474.55</ele><time>2015-11-27T14:50:38Z</time></trkpt><trkpt lat="29.5508355740" lon="35.1364138909"><ele>473.59</ele><time>2015-11-27T14:50:43Z</time></trkpt><trkpt lat="29.5507969335" lon="35.1364649367"><ele>473.11</ele><time>2015-11-27T14:50:44Z</time></trkpt><trkpt lat="29.5507515036" lon="35.1365127973"><ele>472.63</ele><time>2015-11-27T14:50:45Z</time></trkpt><trkpt lat="29.5506997872" lon="35.1365564670"><ele>472.63</ele><time>2015-11-27T14:50:46Z</time></trkpt><trkpt lat="29.5506424550" lon="35.1365955267"><ele>472.14</ele><time>2015-11-27T14:50:47Z</time></trkpt><trkpt lat="29.5505816024" lon="35.1366268750"><ele>471.66</ele><time>2015-11-27T14:50:48Z</time></trkpt><trkpt lat="29.5505175646" lon="35.1366506796"><ele>471.66</ele><time>2015-11-27T14:50:49Z</time></trkpt><trkpt lat="29.5504509285" lon="35.1366666052"><ele>471.66</ele><time>2015-11-27T14:50:50Z</time></trkpt><trkpt lat="29.5503827836" lon="35.1366748195"><ele>471.18</ele><time>2015-11-27T14:50:51Z</time></trkpt><trkpt lat="29.5503159799" lon="35.1366741490"><ele>471.18</ele><time>2015-11-27T14:50:52Z</time></trkpt><trkpt lat="29.5502507687" lon="35.1366654318"><ele>471.18</ele><time>2015-11-27T14:50:53Z</time></trkpt><trkpt lat="29.5501876529" lon="35.1366495900"><ele>470.70</ele><time>2015-11-27T14:50:54Z</time></trkpt><trkpt lat="29.5501276385" lon="35.1366246119"><ele>470.70</ele><time>2015-11-27T14:50:55Z</time></trkpt><trkpt lat="29.5500713959" lon="35.1365947723"><ele>470.70</ele><time>2015-11-27T14:50:56Z</time></trkpt><trkpt lat="29.5500183385" lon="35.1365624182"><ele>470.70</ele><time>2015-11-27T14:50:57Z</time></trkpt><trkpt lat="29.5496393926" lon="35.1362690516"><ele>469.74</ele><time>2015-11-27T14:51:08Z</time></trkpt><trkpt lat="29.5492603630" lon="35.1359357033"><ele>468.78</ele><time>2015-11-27T14:51:22Z</time></trkpt><trkpt lat="29.5488934871" lon="35.1354954019"><ele>468.30</ele><time>2015-11-27T14:51:37Z</time></trkpt><trkpt lat="29.5486121904" lon="35.1349986903"><ele>467.82</ele><time>2015-11-27T14:51:50Z</time></trkpt><trkpt lat="29.5486173872" lon="35.1349967625"><ele>467.82</ele><time>2015-11-27T14:52:06Z</time></trkpt><trkpt lat="29.5486173034" lon="35.1349908113"><ele>467.82</ele><time>2015-11-27T14:52:35Z</time></trkpt><trkpt lat="29.5486168005" lon="35.1349574514"><ele>467.82</ele><time>2015-11-27T14:52:53Z</time></trkpt><trkpt lat="29.5486250147" lon="35.1349493209"><ele>467.82</ele><time>2015-11-27T14:53:08Z</time></trkpt><trkpt lat="29.5486119390" lon="35.1349668391"><ele>467.82</ele><time>2015-11-27T14:53:50Z</time></trkpt><trkpt lat="29.5486117713" lon="35.1349556912"><ele>467.34</ele><time>2015-11-27T14:54:31Z</time></trkpt><trkpt lat="29.5486056525" lon="35.1349592954"><ele>467.34</ele><time>2015-11-27T14:55:16Z</time></trkpt><trkpt lat="29.5486026350" lon="35.1349513326"><ele>467.34</ele><time>2015-11-27T14:56:00Z</time></trkpt><trkpt lat="29.5485987794" lon="35.1349416934"><ele>467.34</ele><time>2015-11-27T14:56:32Z</time></trkpt><trkpt lat="29.5485919900" lon="35.1349478960"><ele>467.34</ele><time>2015-11-27T14:57:19Z</time></trkpt><trkpt lat="29.5485991985" lon="35.1349427830"><ele>466.86</ele><time>2015-11-27T14:58:00Z</time></trkpt><trkpt lat="29.5485747233" lon="35.1349212416"><ele>467.34</ele><time>2015-11-27T14:58:31Z</time></trkpt><trkpt lat="29.5484892279" lon="35.1347292960"><ele>466.86</ele><time>2015-11-27T14:58:42Z</time></trkpt><trkpt lat="29.5482677780" lon="35.1340097096"><ele>466.86</ele><time>2015-11-27T14:58:58Z</time></trkpt><trkpt lat="29.5481381100" lon="35.1328750513"><ele>465.90</ele><time>2015-11-27T14:59:18Z</time></trkpt><trkpt lat="29.5483321510" lon="35.1317028422"><ele>463.97</ele><time>2015-11-27T14:59:35Z</time></trkpt><trkpt lat="29.5488328859" lon="35.1308829244"><ele>460.61</ele><time>2015-11-27T14:59:47Z</time></trkpt><trkpt lat="29.5493243169" lon="35.1304774918"><ele>457.24</ele><time>2015-11-27T14:59:54Z</time></trkpt><trkpt lat="29.5497688930" lon="35.1302515157"><ele>454.36</ele><time>2015-11-27T14:59:59Z</time></trkpt><trkpt lat="29.5498613454" lon="35.1302083489"><ele>453.88</ele><time>2015-11-27T15:00:00Z</time></trkpt><trkpt lat="29.5503399521" lon="35.1299811993"><ele>451.00</ele><time>2015-11-27T15:00:05Z</time></trkpt><trkpt lat="29.5510399248" lon="35.1296502817"><ele>448.11</ele><time>2015-11-27T15:00:12Z</time></trkpt><trkpt lat="29.5523255412" lon="35.1290316135"><ele>444.75</ele><time>2015-11-27T15:00:26Z</time></trkpt><trkpt lat="29.5536928810" lon="35.1283710357"><ele>441.38</ele><time>2015-11-27T15:00:43Z</time></trkpt><trkpt lat="29.5547631662" lon="35.1277285628"><ele>438.50</ele><time>2015-11-27T15:00:59Z</time></trkpt><trkpt lat="29.5556690823" lon="35.1271561626"><ele>435.61</ele><time>2015-11-27T15:01:14Z</time></trkpt><trkpt lat="29.5563257206" lon="35.1267433539"><ele>432.25</ele><time>2015-11-27T15:01:24Z</time></trkpt><trkpt lat="29.5566832926" lon="35.1265110075"><ele>429.85</ele><time>2015-11-27T15:01:29Z</time></trkpt><trkpt lat="29.5571582951" lon="35.1262153778"><ele>426.96</ele><time>2015-11-27T15:01:35Z</time></trkpt><trkpt lat="29.5575732831" lon="35.1259494200"><ele>423.60</ele><time>2015-11-27T15:01:40Z</time></trkpt><trkpt lat="29.5580945536" lon="35.1256360207"><ele>420.71</ele><time>2015-11-27T15:01:46Z</time></trkpt><trkpt lat="29.5586152375" lon="35.1253348589"><ele>417.83</ele><time>2015-11-27T15:01:52Z</time></trkpt><trkpt lat="29.5592936687" lon="35.1249520574"><ele>414.95</ele><time>2015-11-27T15:02:00Z</time></trkpt><trkpt lat="29.5598808210" lon="35.1246293541"><ele>412.06</ele><time>2015-11-27T15:02:08Z</time></trkpt><trkpt lat="29.5603492856" lon="35.1243597921"><ele>409.66</ele><time>2015-11-27T15:02:21Z</time></trkpt><trkpt lat="29.5610076841" lon="35.1238733064"><ele>406.77</ele><time>2015-11-27T15:02:36Z</time></trkpt><trkpt lat="29.5616571140" lon="35.1230247226"><ele>404.37</ele><time>2015-11-27T15:02:51Z</time></trkpt><trkpt lat="29.5620968286" lon="35.1218125317"><ele>401.01</ele><time>2015-11-27T15:03:07Z</time></trkpt><trkpt lat="29.5621463656" lon="35.1205326151"><ele>398.60</ele><time>2015-11-27T15:03:24Z</time></trkpt><trkpt lat="29.5619465411" lon="35.1194049977"><ele>395.24</ele><time>2015-11-27T15:03:38Z</time></trkpt><trkpt lat="29.5617174637" lon="35.1182218920"><ele>392.36</ele><time>2015-11-27T15:03:52Z</time></trkpt><trkpt lat="29.5616227482" lon="35.1177974325"><ele>390.91</ele><time>2015-11-27T15:03:59Z</time></trkpt><trkpt lat="29.5614336524" lon="35.1169953682"><ele>389.47</ele><time>2015-11-27T15:04:11Z</time></trkpt><trkpt lat="29.5609724801" lon="35.1159074809"><ele>387.07</ele><time>2015-11-27T15:04:26Z</time></trkpt><trkpt lat="29.5603849087" lon="35.1148587372"><ele>383.70</ele><time>2015-11-27T15:04:41Z</time></trkpt><trkpt lat="29.5600590203" lon="35.1138398331"><ele>380.34</ele><time>2015-11-27T15:04:55Z</time></trkpt><trkpt lat="29.5601452701" lon="35.1126869023"><ele>377.45</ele><time>2015-11-27T15:05:10Z</time></trkpt><trkpt lat="29.5603256486" lon="35.1121922862"><ele>376.97</ele><time>2015-11-27T15:05:17Z</time></trkpt><trkpt lat="29.5608956181" lon="35.1114089135"><ele>376.49</ele><time>2015-11-27T15:05:32Z</time></trkpt><trkpt lat="29.5615468919" lon="35.1108521875"><ele>376.49</ele><time>2015-11-27T15:05:49Z</time></trkpt><trkpt lat="29.5622805599" lon="35.1102345251"><ele>375.53</ele><time>2015-11-27T15:06:06Z</time></trkpt><trkpt lat="29.5629237033" lon="35.1093535032"><ele>372.17</ele><time>2015-11-27T15:06:21Z</time></trkpt><trkpt lat="29.5631577261" lon="35.1086785924"><ele>369.28</ele><time>2015-11-27T15:06:29Z</time></trkpt><trkpt lat="29.5632191654" lon="35.1080992352"><ele>366.88</ele><time>2015-11-27T15:06:35Z</time></trkpt><trkpt lat="29.5631433930" lon="35.1073805708"><ele>363.04</ele><time>2015-11-27T15:06:42Z</time></trkpt><trkpt lat="29.5630109590" lon="35.1069727913"><ele>361.59</ele><time>2015-11-27T15:06:46Z</time></trkpt><trkpt lat="29.5627588313" lon="35.1064920053"><ele>358.23</ele><time>2015-11-27T15:06:51Z</time></trkpt><trkpt lat="29.5626312587" lon="35.1063034125"><ele>357.27</ele><time>2015-11-27T15:06:53Z</time></trkpt><trkpt lat="29.5621697512" lon="35.1057558227"><ele>353.42</ele><time>2015-11-27T15:06:59Z</time></trkpt><trkpt lat="29.5616408531" lon="35.1051672455"><ele>350.54</ele><time>2015-11-27T15:07:05Z</time></trkpt><trkpt lat="29.5615517534" lon="35.1050680876"><ele>350.06</ele><time>2015-11-27T15:07:06Z</time></trkpt><trkpt lat="29.5611207560" lon="35.1045902353"><ele>347.17</ele><time>2015-11-27T15:07:11Z</time></trkpt><trkpt lat="29.5610361826" lon="35.1044975314"><ele>346.69</ele><time>2015-11-27T15:07:12Z</time></trkpt><trkpt lat="29.5605698135" lon="35.1039216109"><ele>343.81</ele><time>2015-11-27T15:07:18Z</time></trkpt><trkpt lat="29.5601052884" lon="35.1031011064"><ele>340.44</ele><time>2015-11-27T15:07:26Z</time></trkpt><trkpt lat="29.5597288571" lon="35.1018738281"><ele>338.52</ele><time>2015-11-27T15:07:39Z</time></trkpt><trkpt lat="29.5594546013" lon="35.1006787363"><ele>337.08</ele><time>2015-11-27T15:07:55Z</time></trkpt><trkpt lat="29.5591124520" lon="35.0993265677"><ele>334.20</ele><time>2015-11-27T15:08:15Z</time></trkpt><trkpt lat="29.5588744897" lon="35.0983025506"><ele>330.83</ele><time>2015-11-27T15:08:28Z</time></trkpt><trkpt lat="29.5587494317" lon="35.0977478363"><ele>327.95</ele><time>2015-11-27T15:08:34Z</time></trkpt><trkpt lat="29.5586825442" lon="35.0971321017"><ele>325.06</ele><time>2015-11-27T15:08:40Z</time></trkpt><trkpt lat="29.5587055106" lon="35.0964908022"><ele>321.70</ele><time>2015-11-27T15:08:46Z</time></trkpt><trkpt lat="29.5587661117" lon="35.0960554462"><ele>320.26</ele><time>2015-11-27T15:08:50Z</time></trkpt><trkpt lat="29.5589003060" lon="35.0955216028"><ele>317.37</ele><time>2015-11-27T15:08:55Z</time></trkpt><trkpt lat="29.5591722149" lon="35.0948176906"><ele>314.49</ele><time>2015-11-27T15:09:02Z</time></trkpt><trkpt lat="29.5596014522" lon="35.0938012172"><ele>311.12</ele><time>2015-11-27T15:09:13Z</time></trkpt><trkpt lat="29.5597893745" lon="35.0933437329"><ele>309.20</ele><time>2015-11-27T15:09:19Z</time></trkpt><trkpt lat="29.5598040428" lon="35.0932971295"><ele>308.72</ele><time>2015-11-27T15:09:20Z</time></trkpt><trkpt lat="29.5598175377" lon="35.0932525378"><ele>308.72</ele><time>2015-11-27T15:09:21Z</time></trkpt><trkpt lat="29.5598338824" lon="35.0932030007"><ele>308.72</ele><time>2015-11-27T15:09:22Z</time></trkpt><trkpt lat="29.5598588604" lon="35.0931482669"><ele>308.72</ele><time>2015-11-27T15:09:23Z</time></trkpt><trkpt lat="29.5602167677" lon="35.0922766328"><ele>306.80</ele><time>2015-11-27T15:09:34Z</time></trkpt><trkpt lat="29.5607037563" lon="35.0912262127"><ele>303.43</ele><time>2015-11-27T15:09:46Z</time></trkpt><trkpt lat="29.5611921698" lon="35.0902120862"><ele>300.07</ele><time>2015-11-27T15:09:58Z</time></trkpt><trkpt lat="29.5617057290" lon="35.0890888274"><ele>296.70</ele><time>2015-11-27T15:10:11Z</time></trkpt><trkpt lat="29.5621052943" lon="35.0879357290"><ele>293.82</ele><time>2015-11-27T15:10:24Z</time></trkpt><trkpt lat="29.5624681469" lon="35.0866192672"><ele>290.46</ele><time>2015-11-27T15:10:39Z</time></trkpt><trkpt lat="29.5627783611" lon="35.0855138618"><ele>288.53</ele><time>2015-11-27T15:10:52Z</time></trkpt><trkpt lat="29.5631104521" lon="35.0842691492"><ele>285.17</ele><time>2015-11-27T15:11:08Z</time></trkpt><trkpt lat="29.5634268690" lon="35.0830661785"><ele>282.28</ele><time>2015-11-27T15:11:23Z</time></trkpt><trkpt lat="29.5637519192" lon="35.0821961369"><ele>278.92</ele><time>2015-11-27T15:11:34Z</time></trkpt><trkpt lat="29.5643543266" lon="35.0814240798"><ele>275.56</ele><time>2015-11-27T15:11:46Z</time></trkpt><trkpt lat="29.5650767628" lon="35.0809717923"><ele>272.67</ele><time>2015-11-27T15:11:57Z</time></trkpt><trkpt lat="29.5662149414" lon="35.0806144718"><ele>270.27</ele><time>2015-11-27T15:12:14Z</time></trkpt><trkpt lat="29.5665337052" lon="35.0805002265"><ele>269.79</ele><time>2015-11-27T15:12:21Z</time></trkpt><trkpt lat="29.5673409663" lon="35.0802442431"><ele>268.35</ele><time>2015-11-27T15:12:38Z</time></trkpt><trkpt lat="29.5677714609" lon="35.0801119767"><ele>267.38</ele><time>2015-11-27T15:12:48Z</time></trkpt><trkpt lat="29.5684723556" lon="35.0797276665"><ele>265.94</ele><time>2015-11-27T15:13:04Z</time></trkpt><trkpt lat="29.5691879187" lon="35.0789498258"><ele>262.58</ele><time>2015-11-27T15:13:20Z</time></trkpt><trkpt lat="29.5697479136" lon="35.0781830493"><ele>259.69</ele><time>2015-11-27T15:13:33Z</time></trkpt><trkpt lat="29.5703830943" lon="35.0772899576"><ele>256.81</ele><time>2015-11-27T15:13:48Z</time></trkpt><trkpt lat="29.5707982499" lon="35.0766166393"><ele>253.44</ele><time>2015-11-27T15:14:02Z</time></trkpt><trkpt lat="29.5708505530" lon="35.0765287131"><ele>252.96</ele><time>2015-11-27T15:14:11Z</time></trkpt><trkpt lat="29.5708567556" lon="35.0765277073"><ele>252.96</ele><time>2015-11-27T15:14:39Z</time></trkpt><trkpt lat="29.5708586834" lon="35.0765176490"><ele>252.96</ele><time>2015-11-27T15:14:41Z</time></trkpt><trkpt lat="29.5708639640" lon="35.0765023101"><ele>252.48</ele><time>2015-11-27T15:14:42Z</time></trkpt><trkpt lat="29.5708725974" lon="35.0764832832"><ele>252.48</ele><time>2015-11-27T15:14:43Z</time></trkpt><trkpt lat="29.5708855893" lon="35.0764589757"><ele>252.48</ele><time>2015-11-27T15:14:44Z</time></trkpt><trkpt lat="29.5709004253" lon="35.0764298905"><ele>252.48</ele><time>2015-11-27T15:14:45Z</time></trkpt><trkpt lat="29.5712100528" lon="35.0758292433"><ele>249.60</ele><time>2015-11-27T15:14:57Z</time></trkpt><trkpt lat="29.5714466739" lon="35.0752873532"><ele>246.72</ele><time>2015-11-27T15:15:04Z</time></trkpt><trkpt lat="29.5715164952" lon="35.0751102436"><ele>245.75</ele><time>2015-11-27T15:15:06Z</time></trkpt><trkpt lat="29.5716564730" lon="35.0747288670"><ele>243.83</ele><time>2015-11-27T15:15:10Z</time></trkpt><trkpt lat="29.5718787611" lon="35.0739958696"><ele>240.47</ele><time>2015-11-27T15:15:17Z</time></trkpt><trkpt lat="29.5721079223" lon="35.0730040390"><ele>237.10</ele><time>2015-11-27T15:15:26Z</time></trkpt><trkpt lat="29.5722660050" lon="35.0716995634"><ele>233.74</ele><time>2015-11-27T15:15:39Z</time></trkpt><trkpt lat="29.5722926594" lon="35.0705542602"><ele>230.37</ele><time>2015-11-27T15:15:51Z</time></trkpt><trkpt lat="29.5722973533" lon="35.0694009941"><ele>227.01</ele><time>2015-11-27T15:16:03Z</time></trkpt><trkpt lat="29.5723087527" lon="35.0683193933"><ele>224.12</ele><time>2015-11-27T15:16:14Z</time></trkpt><trkpt lat="29.5723214932" lon="35.0669803005"><ele>220.76</ele><time>2015-11-27T15:16:29Z</time></trkpt><trkpt lat="29.5723126084" lon="35.0654405449"><ele>217.40</ele><time>2015-11-27T15:16:47Z</time></trkpt><trkpt lat="29.5720667671" lon="35.0640343968"><ele>214.99</ele><time>2015-11-27T15:17:06Z</time></trkpt><trkpt lat="29.5717557985" lon="35.0631086994"><ele>212.59</ele><time>2015-11-27T15:17:20Z</time></trkpt><trkpt lat="29.5717475004" lon="35.0630759262"><ele>212.59</ele><time>2015-11-27T15:17:27Z</time></trkpt><trkpt lat="29.5717524458" lon="35.0630686339"><ele>212.11</ele><time>2015-11-27T15:17:53Z</time></trkpt><trkpt lat="29.5717475004" lon="35.0630761776"><ele>212.11</ele><time>2015-11-27T15:18:26Z</time></trkpt><trkpt lat="29.5717439801" lon="35.0630843919"><ele>211.63</ele><time>2015-11-27T15:18:54Z</time></trkpt><trkpt lat="29.5717456564" lon="35.0630778540"><ele>211.63</ele><time>2015-11-27T15:19:37Z</time></trkpt><trkpt lat="29.5717433095" lon="35.0630730763"><ele>211.63</ele><time>2015-11-27T15:19:38Z</time></trkpt><trkpt lat="29.5717382804" lon="35.0630593300"><ele>211.63</ele><time>2015-11-27T15:19:39Z</time></trkpt><trkpt lat="29.5717315748" lon="35.0630436558"><ele>211.63</ele><time>2015-11-27T15:19:40Z</time></trkpt><trkpt lat="29.5717222709" lon="35.0630246289"><ele>211.63</ele><time>2015-11-27T15:19:41Z</time></trkpt><trkpt lat="29.5717156492" lon="35.0629993156"><ele>211.15</ele><time>2015-11-27T15:19:42Z</time></trkpt><trkpt lat="29.5717081893" lon="35.0629715715"><ele>211.15</ele><time>2015-11-27T15:19:43Z</time></trkpt><trkpt lat="29.5716969576" lon="35.0629429054"><ele>211.63</ele><time>2015-11-27T15:19:44Z</time></trkpt><trkpt lat="29.5716862287" lon="35.0629120599"><ele>211.15</ele><time>2015-11-27T15:19:45Z</time></trkpt><trkpt lat="29.5716763381" lon="35.0628805440"><ele>211.15</ele><time>2015-11-27T15:19:46Z</time></trkpt><trkpt lat="29.5714468416" lon="35.0622180384"><ele>210.19</ele><time>2015-11-27T15:20:00Z</time></trkpt><trkpt lat="29.5710862521" lon="35.0611155666"><ele>207.78</ele><time>2015-11-27T15:20:18Z</time></trkpt><trkpt lat="29.5708260778" lon="35.0603347924"><ele>205.86</ele><time>2015-11-27T15:20:31Z</time></trkpt><trkpt lat="29.5705384947" lon="35.0595802534"><ele>202.98</ele><time>2015-11-27T15:20:43Z</time></trkpt><trkpt lat="29.5702814218" lon="35.0588782690"><ele>199.61</ele><time>2015-11-27T15:20:51Z</time></trkpt><trkpt lat="29.5700877160" lon="35.0583662186"><ele>196.73</ele><time>2015-11-27T15:20:56Z</time></trkpt><trkpt lat="29.5698324032" lon="35.0576952472"><ele>193.36</ele><time>2015-11-27T15:21:02Z</time></trkpt><trkpt lat="29.5696092770" lon="35.0571044069"><ele>190.00</ele><time>2015-11-27T15:21:07Z</time></trkpt><trkpt lat="29.5693458337" lon="35.0564026739"><ele>187.11</ele><time>2015-11-27T15:21:13Z</time></trkpt><trkpt lat="29.5692615118" lon="35.0561751891"><ele>186.15</ele><time>2015-11-27T15:21:15Z</time></trkpt><trkpt lat="29.5688974857" lon="35.0552037265"><ele>183.27</ele><time>2015-11-27T15:21:24Z</time></trkpt><trkpt lat="29.5685651433" lon="35.0543017499"><ele>179.90</ele><time>2015-11-27T15:21:33Z</time></trkpt><trkpt lat="29.5681955013" lon="35.0533222407"><ele>176.54</ele><time>2015-11-27T15:21:43Z</time></trkpt><trkpt lat="29.5680458006" lon="35.0529370084"><ele>175.58</ele><time>2015-11-27T15:21:47Z</time></trkpt><trkpt lat="29.5675296430" lon="35.0515662320"><ele>174.14</ele><time>2015-11-27T15:22:03Z</time></trkpt><trkpt lat="29.5670273993" lon="35.0502401311"><ele>175.10</ele><time>2015-11-27T15:22:24Z</time></trkpt><trkpt lat="29.5666598529" lon="35.0492459536"><ele>173.66</ele><time>2015-11-27T15:22:44Z</time></trkpt><trkpt lat="29.5663260855" lon="35.0484408718"><ele>170.29</ele><time>2015-11-27T15:22:56Z</time></trkpt><trkpt lat="29.5660491474" lon="35.0477839820"><ele>166.45</ele><time>2015-11-27T15:23:03Z</time></trkpt><trkpt lat="29.5658229198" lon="35.0472350512"><ele>163.08</ele><time>2015-11-27T15:23:08Z</time></trkpt><trkpt lat="29.5655747317" lon="35.0466457196"><ele>159.24</ele><time>2015-11-27T15:23:13Z</time></trkpt><trkpt lat="29.5653143059" lon="35.0460223574"><ele>155.39</ele><time>2015-11-27T15:23:18Z</time></trkpt><trkpt lat="29.5651000645" lon="35.0455160066"><ele>152.51</ele><time>2015-11-27T15:23:22Z</time></trkpt><trkpt lat="29.5647644531" lon="35.0447395910"><ele>149.14</ele><time>2015-11-27T15:23:28Z</time></trkpt><trkpt lat="29.5643236488" lon="35.0438139774"><ele>145.78</ele><time>2015-11-27T15:23:35Z</time></trkpt><trkpt lat="29.5641973335" lon="35.0435678009"><ele>144.82</ele><time>2015-11-27T15:23:37Z</time></trkpt><trkpt lat="29.5634466503" lon="35.0422603916"><ele>144.82</ele><time>2015-11-27T15:23:50Z</time></trkpt><trkpt lat="29.5629698038" lon="35.0415131450"><ele>146.26</ele><time>2015-11-27T15:24:02Z</time></trkpt><trkpt lat="29.5625279099" lon="35.0408929680"><ele>146.26</ele><time>2015-11-27T15:24:18Z</time></trkpt><trkpt lat="29.5620482974" lon="35.0402711984"><ele>144.82</ele><time>2015-11-27T15:24:34Z</time></trkpt><trkpt lat="29.5615048986" lon="35.0396290608"><ele>141.93</ele><time>2015-11-27T15:24:47Z</time></trkpt><trkpt lat="29.5609854721" lon="35.0390338618"><ele>138.57</ele><time>2015-11-27T15:24:57Z</time></trkpt><trkpt lat="29.5603911113" lon="35.0383860245"><ele>135.68</ele><time>2015-11-27T15:25:07Z</time></trkpt><trkpt lat="29.5598042943" lon="35.0377101079"><ele>132.32</ele><time>2015-11-27T15:25:16Z</time></trkpt><trkpt lat="29.5591334067" lon="35.0369414873"><ele>129.43</ele><time>2015-11-27T15:25:26Z</time></trkpt><trkpt lat="29.5583822206" lon="35.0360583700"><ele>126.07</ele><time>2015-11-27T15:25:37Z</time></trkpt><trkpt lat="29.5572204050" lon="35.0347257312"><ele>123.19</ele><time>2015-11-27T15:25:56Z</time></trkpt><trkpt lat="29.5564419776" lon="35.0338432007"><ele>122.22</ele><time>2015-11-27T15:26:11Z</time></trkpt><trkpt lat="29.5555952378" lon="35.0328700617"><ele>121.26</ele><time>2015-11-27T15:26:29Z</time></trkpt><trkpt lat="29.5548359212" lon="35.0320288539"><ele>120.30</ele><time>2015-11-27T15:26:45Z</time></trkpt><trkpt lat="29.5547015592" lon="35.0318753812"><ele>120.30</ele><time>2015-11-27T15:26:48Z</time></trkpt><trkpt lat="29.5544811152" lon="35.0316171348"><ele>120.30</ele><time>2015-11-27T15:26:53Z</time></trkpt><trkpt lat="29.5542639401" lon="35.0313812681"><ele>120.30</ele><time>2015-11-27T15:26:58Z</time></trkpt><trkpt lat="29.5535435155" lon="35.0305440836"><ele>119.82</ele><time>2015-11-27T15:27:16Z</time></trkpt><trkpt lat="29.5527658425" lon="35.0296462979"><ele>119.82</ele><time>2015-11-27T15:27:36Z</time></trkpt><trkpt lat="29.5521791931" lon="35.0290057529"><ele>119.82</ele><time>2015-11-27T15:27:55Z</time></trkpt><trkpt lat="29.5519312564" lon="35.0287381187"><ele>119.82</ele><time>2015-11-27T15:28:08Z</time></trkpt><trkpt lat="29.5516317710" lon="35.0284348615"><ele>120.30</ele><time>2015-11-27T15:28:21Z</time></trkpt><trkpt lat="29.5512455329" lon="35.0280922092"><ele>120.30</ele><time>2015-11-27T15:28:36Z</time></trkpt><trkpt lat="29.5508463029" lon="35.0276708510"><ele>120.30</ele><time>2015-11-27T15:28:51Z</time></trkpt><trkpt lat="29.5503002219" lon="35.0270358380"><ele>119.82</ele><time>2015-11-27T15:29:06Z</time></trkpt><trkpt lat="29.5495253988" lon="35.0261442550"><ele>117.90</ele><time>2015-11-27T15:29:27Z</time></trkpt><trkpt lat="29.5486629009" lon="35.0251300447"><ele>115.01</ele><time>2015-11-27T15:29:46Z</time></trkpt><trkpt lat="29.5478726551" lon="35.0242190994"><ele>111.65</ele><time>2015-11-27T15:30:00Z</time></trkpt><trkpt lat="29.5471305214" lon="35.0233876985"><ele>108.29</ele><time>2015-11-27T15:30:12Z</time></trkpt><trkpt lat="29.5465490688" lon="35.0227083452"><ele>104.92</ele><time>2015-11-27T15:30:22Z</time></trkpt><trkpt lat="29.5463532675" lon="35.0224801060"><ele>103.48</ele><time>2015-11-27T15:30:30Z</time></trkpt><trkpt lat="29.5463521779" lon="35.0224826206"><ele>103.48</ele><time>2015-11-27T15:30:55Z</time></trkpt><trkpt lat="29.5461946819" lon="35.0222980510"><ele>102.52</ele><time>2015-11-27T15:31:05Z</time></trkpt><trkpt lat="29.5455803722" lon="35.0216056220"><ele>98.67</ele><time>2015-11-27T15:31:18Z</time></trkpt><trkpt lat="29.5453446731" lon="35.0213349704"><ele>97.23</ele><time>2015-11-27T15:31:22Z</time></trkpt><trkpt lat="29.5449358039" lon="35.0208643265"><ele>94.35</ele><time>2015-11-27T15:31:29Z</time></trkpt><trkpt lat="29.5445497334" lon="35.0204191636"><ele>91.94</ele><time>2015-11-27T15:31:35Z</time></trkpt><trkpt lat="29.5441098511" lon="35.0199150760"><ele>88.58</ele><time>2015-11-27T15:31:41Z</time></trkpt><trkpt lat="29.5436353516" lon="35.0193653908"><ele>85.21</ele><time>2015-11-27T15:31:47Z</time></trkpt><trkpt lat="29.5432247221" lon="35.0188722834"><ele>82.33</ele><time>2015-11-27T15:31:52Z</time></trkpt><trkpt lat="29.5431395620" lon="35.0187722873"><ele>82.33</ele><time>2015-11-27T15:31:53Z</time></trkpt><trkpt lat="29.5427140966" lon="35.0182635896"><ele>78.97</ele><time>2015-11-27T15:31:58Z</time></trkpt><trkpt lat="29.5421149582" lon="35.0175702386"><ele>75.60</ele><time>2015-11-27T15:32:05Z</time></trkpt><trkpt lat="29.5417795982" lon="35.0171842519"><ele>73.68</ele><time>2015-11-27T15:32:09Z</time></trkpt><trkpt lat="29.5414447412" lon="35.0168039650"><ele>71.76</ele><time>2015-11-27T15:32:13Z</time></trkpt><trkpt lat="29.5408566669" lon="35.0161370169"><ele>67.91</ele><time>2015-11-27T15:32:20Z</time></trkpt><trkpt lat="29.5405075606" lon="35.0157397985"><ele>64.55</ele><time>2015-11-27T15:32:24Z</time></trkpt><trkpt lat="29.5401641540" lon="35.0153460167"><ele>61.18</ele><time>2015-11-27T15:32:28Z</time></trkpt><trkpt lat="29.5398928318" lon="35.0150361378"><ele>58.30</ele><time>2015-11-27T15:32:32Z</time></trkpt><trkpt lat="29.5396225993" lon="35.0146994367"><ele>55.41</ele><time>2015-11-27T15:32:37Z</time></trkpt><trkpt lat="29.5394372754" lon="35.0143994484"><ele>53.49</ele><time>2015-11-27T15:32:46Z</time></trkpt><trkpt lat="29.5393047575" lon="35.0141832791"><ele>52.53</ele><time>2015-11-27T15:32:51Z</time></trkpt><trkpt lat="29.5392414741" lon="35.0140653457"><ele>52.53</ele><time>2015-11-27T15:32:53Z</time></trkpt><trkpt lat="29.5391988102" lon="35.0140179042"><ele>52.05</ele><time>2015-11-27T15:32:54Z</time></trkpt><trkpt lat="29.5385680720" lon="35.0135284849"><ele>49.16</ele><time>2015-11-27T15:33:05Z</time></trkpt><trkpt lat="29.5383532438" lon="35.0133019220"><ele>47.72</ele><time>2015-11-27T15:33:10Z</time></trkpt><trkpt lat="29.5383106638" lon="35.0132577494"><ele>47.72</ele><time>2015-11-27T15:33:11Z</time></trkpt><trkpt lat="29.5382694248" lon="35.0132080447"><ele>47.72</ele><time>2015-11-27T15:33:12Z</time></trkpt><trkpt lat="29.5382292755" lon="35.0131555740"><ele>47.24</ele><time>2015-11-27T15:33:13Z</time></trkpt><trkpt lat="29.5381890424" lon="35.0131000858"><ele>46.76</ele><time>2015-11-27T15:33:14Z</time></trkpt><trkpt lat="29.5375709608" lon="35.0123787392"><ele>43.88</ele><time>2015-11-27T15:33:26Z</time></trkpt><trkpt lat="29.5369127300" lon="35.0116367731"><ele>40.51</ele><time>2015-11-27T15:33:37Z</time></trkpt><trkpt lat="29.5362069737" lon="35.0108326133"><ele>37.15</ele><time>2015-11-27T15:33:48Z</time></trkpt><trkpt lat="29.5355773252" lon="35.0100955088"><ele>34.26</ele><time>2015-11-27T15:33:58Z</time></trkpt><trkpt lat="29.5353792608" lon="35.0098423753"><ele>32.82</ele><time>2015-11-27T15:34:04Z</time></trkpt><trkpt lat="29.5353683643" lon="35.0098391902"><ele>32.82</ele><time>2015-11-27T15:34:07Z</time></trkpt><trkpt lat="29.5353546180" lon="35.0098297186"><ele>32.82</ele><time>2015-11-27T15:34:08Z</time></trkpt><trkpt lat="29.5350774284" lon="35.0095179956"><ele>31.86</ele><time>2015-11-27T15:34:18Z</time></trkpt><trkpt lat="29.5343969855" lon="35.0087628700"><ele>29.94</ele><time>2015-11-27T15:34:36Z</time></trkpt><trkpt lat="29.5343153458" lon="35.0086675677"><ele>29.46</ele><time>2015-11-27T15:34:44Z</time></trkpt><trkpt lat="29.5343101490" lon="35.0086617842"><ele>29.46</ele><time>2015-11-27T15:34:52Z</time></trkpt><trkpt lat="29.5342956483" lon="35.0086461101"><ele>29.46</ele><time>2015-11-27T15:34:53Z</time></trkpt><trkpt lat="29.5339595340" lon="35.0082753785"><ele>28.98</ele><time>2015-11-27T15:35:02Z</time></trkpt><trkpt lat="29.5330990478" lon="35.0072901696"><ele>27.53</ele><time>2015-11-27T15:35:20Z</time></trkpt><trkpt lat="29.5326455869" lon="35.0066216290"><ele>27.05</ele><time>2015-11-27T15:35:35Z</time></trkpt><trkpt lat="29.5326363668" lon="35.0064629596"><ele>26.57</ele><time>2015-11-27T15:35:44Z</time></trkpt><trkpt lat="29.5326334331" lon="35.0064421725"><ele>26.57</ele><time>2015-11-27T15:35:59Z</time></trkpt><trkpt lat="29.5326274820" lon="35.0064274203"><ele>26.57</ele><time>2015-11-27T15:36:00Z</time></trkpt><trkpt lat="29.5326213632" lon="35.0064038672"><ele>26.09</ele><time>2015-11-27T15:36:01Z</time></trkpt><trkpt lat="29.5326195192" lon="35.0063706748"><ele>26.09</ele><time>2015-11-27T15:36:02Z</time></trkpt><trkpt lat="29.5326203573" lon="35.0063310284"><ele>26.09</ele><time>2015-11-27T15:36:03Z</time></trkpt><trkpt lat="29.5324056968" lon="35.0058891345"><ele>25.13</ele><time>2015-11-27T15:36:16Z</time></trkpt><trkpt lat="29.5323395636" lon="35.0058230851"><ele>25.61</ele><time>2015-11-27T15:36:18Z</time></trkpt><trkpt lat="29.5323037729" lon="35.0057971012"><ele>25.61</ele><time>2015-11-27T15:36:19Z</time></trkpt><trkpt lat="29.5322663896" lon="35.0057785772"><ele>25.61</ele><time>2015-11-27T15:36:20Z</time></trkpt><trkpt lat="29.5322280005" lon="35.0057657529"><ele>25.61</ele><time>2015-11-27T15:36:21Z</time></trkpt><trkpt lat="29.5321885217" lon="35.0057540182"><ele>25.61</ele><time>2015-11-27T15:36:22Z</time></trkpt><trkpt lat="29.5320662297" lon="35.0057291240"><ele>26.09</ele><time>2015-11-27T15:36:25Z</time></trkpt><trkpt lat="29.5316835120" lon="35.0059084967"><ele>27.53</ele><time>2015-11-27T15:36:37Z</time></trkpt><trkpt lat="29.5315044746" lon="35.0062772166"><ele>28.98</ele><time>2015-11-27T15:36:50Z</time></trkpt><trkpt lat="29.5314771496" lon="35.0063305255"><ele>29.46</ele><time>2015-11-27T15:37:01Z</time></trkpt><trkpt lat="29.5313940849" lon="35.0063428469"><ele>29.94</ele><time>2015-11-27T15:37:15Z</time></trkpt><trkpt lat="29.5313077513" lon="35.0063363928"><ele>30.90</ele><time>2015-11-27T15:37:31Z</time></trkpt><trkpt lat="29.5312291291" lon="35.0063936412"><ele>31.38</ele><time>2015-11-27T15:37:49Z</time></trkpt><trkpt lat="29.5311511774" lon="35.0064391550"><ele>31.38</ele><time>2015-11-27T15:37:59Z</time></trkpt><trkpt lat="29.5310239401" lon="35.0065796357"><ele>32.82</ele><time>2015-11-27T15:38:15Z</time></trkpt><trkpt lat="29.5309678651" lon="35.0065571722"><ele>33.30</ele><time>2015-11-27T15:38:28Z</time></trkpt><trkpt lat="29.5307799429" lon="35.0064826570"><ele>32.82</ele><time>2015-11-27T15:38:45Z</time></trkpt><trkpt lat="29.5307076909" lon="35.0063566770"><ele>32.82</ele><time>2015-11-27T15:39:01Z</time></trkpt><trkpt lat="29.5307002310" lon="35.0063232332"><ele>32.82</ele><time>2015-11-27T15:39:12Z</time></trkpt><trkpt lat="29.5305667911" lon="35.0062294398"><ele>32.34</ele><time>2015-11-27T15:39:26Z</time></trkpt><trkpt lat="29.5304295793" lon="35.0060827564"><ele>32.34</ele><time>2015-11-27T15:39:44Z</time></trkpt><trkpt lat="29.5303436648" lon="35.0059846044"><ele>31.86</ele><time>2015-11-27T15:39:59Z</time></trkpt><trkpt lat="29.5303225424" lon="35.0059703551"><ele>31.86</ele><time>2015-11-27T15:40:01Z</time></trkpt><trkpt lat="29.5303093828" lon="35.0059555192"><ele>31.86</ele><time>2015-11-27T15:40:02Z</time></trkpt><trkpt lat="29.5302152541" lon="35.0058407709"><ele>31.86</ele><time>2015-11-27T15:40:13Z</time></trkpt><trkpt lat="29.5302036870" lon="35.0058132783"><ele>31.86</ele><time>2015-11-27T15:40:21Z</time></trkpt><trkpt lat="29.5301990770" lon="35.0058058184"><ele>31.86</ele><time>2015-11-27T15:40:22Z</time></trkpt><trkpt lat="29.5301925391" lon="35.0057983585"><ele>31.86</ele><time>2015-11-27T15:40:23Z</time></trkpt><trkpt lat="29.5301310159" lon="35.0057169702"><ele>31.86</ele><time>2015-11-27T15:40:38Z</time></trkpt><trkpt lat="29.5301502943" lon="35.0056753960"><ele>31.38</ele><time>2015-11-27T15:40:55Z</time></trkpt><trkpt lat="29.5301423315" lon="35.0056509208"><ele>31.38</ele><time>2015-11-27T15:41:15Z</time></trkpt><trkpt lat="29.5301357936" lon="35.0056282897"><ele>31.38</ele><time>2015-11-27T15:41:38Z</time></trkpt><trkpt lat="29.5301254001" lon="35.0056700315"><ele>31.38</ele><time>2015-11-27T15:42:03Z</time></trkpt><trkpt lat="29.5301295072" lon="35.0056817662"><ele>30.90</ele><time>2015-11-27T15:42:40Z</time></trkpt><trkpt lat="29.5301114023" lon="35.0056567881"><ele>30.90</ele><time>2015-11-27T15:43:15Z</time></trkpt><trkpt lat="29.5301161800" lon="35.0056342408"><ele>30.42</ele><time>2015-11-27T15:43:35Z</time></trkpt><trkpt lat="29.5300264098" lon="35.0055690296"><ele>30.42</ele><time>2015-11-27T15:43:48Z</time></trkpt><trkpt lat="29.5299197081" lon="35.0054816902"><ele>30.42</ele><time>2015-11-27T15:44:03Z</time></trkpt><trkpt lat="29.5297782216" lon="35.0053534470"><ele>30.42</ele><time>2015-11-27T15:44:21Z</time></trkpt><trkpt lat="29.5297460351" lon="35.0053290557"><ele>30.42</ele><time>2015-11-27T15:44:28Z</time></trkpt><trkpt lat="29.5297369827" lon="35.0053186622"><ele>30.42</ele><time>2015-11-27T15:44:29Z</time></trkpt><trkpt lat="29.5297248289" lon="35.0053075142"><ele>29.94</ele><time>2015-11-27T15:44:30Z</time></trkpt><trkpt lat="29.5295566041" lon="35.0051170774"><ele>29.94</ele><time>2015-11-27T15:44:44Z</time></trkpt><trkpt lat="29.5294956677" lon="35.0050376169"><ele>29.94</ele><time>2015-11-27T15:44:56Z</time></trkpt><trkpt lat="29.5295134373" lon="35.0050553028"><ele>29.94</ele><time>2015-11-27T15:45:13Z</time></trkpt><trkpt lat="29.5295150299" lon="35.0050248764"><ele>29.94</ele><time>2015-11-27T15:45:27Z</time></trkpt><trkpt lat="29.5296323765" lon="35.0048290752"><ele>28.50</ele><time>2015-11-27T15:45:38Z</time></trkpt><trkpt lat="29.5296647307" lon="35.0047469325"><ele>28.02</ele><time>2015-11-27T15:45:51Z</time></trkpt><trkpt lat="29.5297094062" lon="35.0047220383"><ele>28.02</ele><time>2015-11-27T15:46:16Z</time></trkpt><trkpt lat="29.5297333784" lon="35.0047121476"><ele>28.02</ele><time>2015-11-27T15:46:22Z</time></trkpt><trkpt lat="29.5297910459" lon="35.0047398079"><ele>28.02</ele><time>2015-11-27T15:46:27Z</time></trkpt><trkpt lat="29.5298308600" lon="35.0048104674"><ele>28.02</ele><time>2015-11-27T15:46:35Z</time></trkpt><trkpt lat="29.5298421755" lon="35.0048203580"><ele>28.02</ele><time>2015-11-27T15:46:36Z</time></trkpt><trkpt lat="29.5299280901" lon="35.0049284007"><ele>28.50</ele><time>2015-11-27T15:46:48Z</time></trkpt><trkpt lat="29.5298919640" lon="35.0049908459"><ele>28.50</ele><time>2015-11-27T15:47:09Z</time></trkpt><trkpt lat="29.5298860129" lon="35.0049942825"><ele>28.50</ele><time>2015-11-27T15:47:40Z</time></trkpt><trkpt lat="29.5298904553" lon="35.0050045084"><ele>28.50</ele><time>2015-11-27T15:48:02Z</time></trkpt><trkpt lat="29.5299478713" lon="35.0050082803"><ele>28.50</ele><time>2015-11-27T15:48:17Z</time></trkpt><trkpt lat="29.5299569238" lon="35.0050184224"><ele>28.50</ele><time>2015-11-27T15:48:18Z</time></trkpt><trkpt lat="29.5299660601" lon="35.0050288998"><ele>28.50</ele><time>2015-11-27T15:48:19Z</time></trkpt><trkpt lat="29.5299755316" lon="35.0050384551"><ele>28.50</ele><time>2015-11-27T15:48:20Z</time></trkpt><trkpt lat="29.5299860090" lon="35.0050481781"><ele>28.50</ele><time>2015-11-27T15:48:21Z</time></trkpt><trkpt lat="29.5300759468" lon="35.0051465817"><ele>28.50</ele><time>2015-11-27T15:48:30Z</time></trkpt><trkpt lat="29.5300875977" lon="35.0051565561"><ele>28.50</ele><time>2015-11-27T15:48:31Z</time></trkpt><trkpt lat="29.5301461034" lon="35.0052650180"><ele>28.98</ele><time>2015-11-27T15:48:48Z</time></trkpt><trkpt lat="29.5301508810" lon="35.0052648503"><ele>28.98</ele><time>2015-11-27T15:49:12Z</time></trkpt><trkpt lat="29.5301437564" lon="35.0052821171"><ele>28.50</ele><time>2015-11-27T15:49:50Z</time></trkpt><trkpt lat="29.5301359612" lon="35.0053109508"><ele>28.50</ele><time>2015-11-27T15:50:06Z</time></trkpt><trkpt lat="29.5300884359" lon="35.0053718034"><ele>28.98</ele><time>2015-11-27T15:50:17Z</time></trkpt><trkpt lat="29.5300795510" lon="35.0053958595"><ele>28.98</ele><time>2015-11-27T15:50:19Z</time></trkpt><trkpt lat="29.5300717559" lon="35.0054065883"><ele>29.46</ele><time>2015-11-27T15:50:20Z</time></trkpt><trkpt lat="29.5300563332" lon="35.0054312311"><ele>29.46</ele><time>2015-11-27T15:50:23Z</time></trkpt><trkpt lat="29.5300543215" lon="35.0054417923"><ele>29.46</ele><time>2015-11-27T15:50:24Z</time></trkpt><trkpt lat="29.5300542377" lon="35.0054523535"><ele>29.46</ele><time>2015-11-27T15:50:25Z</time></trkpt><trkpt lat="29.5300541539" lon="35.0054673571"><ele>29.94</ele><time>2015-11-27T15:50:26Z</time></trkpt><trkpt lat="29.5300459396" lon="35.0054781698"><ele>29.94</ele><time>2015-11-27T15:50:27Z</time></trkpt><trkpt lat="29.5299834944" lon="35.0055551995"><ele>30.42</ele><time>2015-11-27T15:50:44Z</time></trkpt><trkpt lat="29.5299648866" lon="35.0055782497"><ele>30.42</ele><time>2015-11-27T15:50:52Z</time></trkpt><trkpt lat="29.5298890304" lon="35.0057148747"><ele>31.38</ele><time>2015-11-27T15:51:08Z</time></trkpt><trkpt lat="29.5298181195" lon="35.0057385117"><ele>31.38</ele><time>2015-11-27T15:51:24Z</time></trkpt><trkpt lat="29.5298379846" lon="35.0057074148"><ele>31.38</ele><time>2015-11-27T15:51:38Z</time></trkpt><trkpt lat="29.5298907906" lon="35.0056854542"><ele>30.90</ele><time>2015-11-27T15:51:55Z</time></trkpt><trkpt lat="29.5299326163" lon="35.0056806765"><ele>30.90</ele><time>2015-11-27T15:52:21Z</time></trkpt><trkpt lat="29.5298863482" lon="35.0057070795"><ele>31.38</ele><time>2015-11-27T15:52:26Z</time></trkpt><trkpt lat="29.5298586879" lon="35.0057214126"><ele>31.38</ele><time>2015-11-27T15:52:28Z</time></trkpt><trkpt lat="29.5297591947" lon="35.0057671778"><ele>31.86</ele><time>2015-11-27T15:52:40Z</time></trkpt><trkpt lat="29.5297243260" lon="35.0058583729"><ele>32.82</ele><time>2015-11-27T15:52:54Z</time></trkpt><trkpt lat="29.5297324564" lon="35.0058743823"><ele>32.82</ele><time>2015-11-27T15:53:21Z</time></trkpt><trkpt lat="29.5296975039" lon="35.0058851950"><ele>32.82</ele><time>2015-11-27T15:53:38Z</time></trkpt><trkpt lat="29.5296680834" lon="35.0058758911"><ele>32.82</ele><time>2015-11-27T15:53:58Z</time></trkpt><trkpt lat="29.5295623038" lon="35.0057576224"><ele>32.82</ele><time>2015-11-27T15:54:14Z</time></trkpt><trkpt lat="29.5294711087" lon="35.0056394376"><ele>32.82</ele><time>2015-11-27T15:54:31Z</time></trkpt><trkpt lat="29.5294657443" lon="35.0056290440"><ele>32.82</ele><time>2015-11-27T15:54:32Z</time></trkpt><trkpt lat="29.5293768961" lon="35.0055415370"><ele>32.82</ele><time>2015-11-27T15:54:48Z</time></trkpt><trkpt lat="29.5292950049" lon="35.0054276269"><ele>32.34</ele><time>2015-11-27T15:55:00Z</time></trkpt><trkpt lat="29.5292776544" lon="35.0054069236"><ele>32.34</ele><time>2015-11-27T15:55:02Z</time></trkpt><trkpt lat="29.5292418636" lon="35.0053903274"><ele>32.82</ele><time>2015-11-27T15:55:17Z</time></trkpt><trkpt lat="29.5292432047" lon="35.0053542014"><ele>32.34</ele><time>2015-11-27T15:55:39Z</time></trkpt><trkpt lat="29.5292763133" lon="35.0053457357"><ele>32.34</ele><time>2015-11-27T15:56:10Z</time></trkpt><trkpt lat="29.5292558614" lon="35.0053524412"><ele>32.34</ele><time>2015-11-27T15:56:52Z</time></trkpt><trkpt lat="29.5292745531" lon="35.0053622480"><ele>32.34</ele><time>2015-11-27T15:57:36Z</time></trkpt><trkpt lat="29.5293071587" lon="35.0053300615"><ele>32.34</ele><time>2015-11-27T15:58:07Z</time></trkpt><trkpt lat="29.5293022133" lon="35.0053543691"><ele>32.34</ele><time>2015-11-27T15:58:44Z</time></trkpt><trkpt lat="29.5293174684" lon="35.0053434726"><ele>32.34</ele><time>2015-11-27T15:59:23Z</time></trkpt><trkpt lat="29.5293280296" lon="35.0053327437"><ele>32.34</ele><time>2015-11-27T15:59:51Z</time></trkpt><trkpt lat="29.5292800013" lon="35.0053583924"><ele>31.86</ele><time>2015-11-27T16:00:35Z</time></trkpt><trkpt lat="29.5292799175" lon="35.0053555425"><ele>31.86</ele><time>2015-11-27T16:01:20Z</time></trkpt><trkpt lat="29.5293069072" lon="35.0053490885"><ele>31.86</ele><time>2015-11-27T16:02:01Z</time></trkpt><trkpt lat="29.5292971842" lon="35.0053330790"><ele>31.86</ele><time>2015-11-27T16:02:31Z</time></trkpt><trkpt lat="29.5292749722" lon="35.0053408742"><ele>31.38</ele><time>2015-11-27T16:03:03Z</time></trkpt><trkpt lat="29.5293064043" lon="35.0053701270"><ele>31.38</ele><time>2015-11-27T16:03:39Z</time></trkpt><trkpt lat="29.5292937476" lon="35.0053604040"><ele>31.38</ele><time>2015-11-27T16:04:18Z</time></trkpt><trkpt lat="29.5293146186" lon="35.0053398684"><ele>31.38</ele><time>2015-11-27T16:04:59Z</time></trkpt><trkpt lat="29.5292710327" lon="35.0053574704"><ele>30.90</ele><time>2015-11-27T16:05:31Z</time></trkpt><trkpt lat="29.5292007923" lon="35.0053751562"><ele>30.90</ele><time>2015-11-27T16:06:05Z</time></trkpt><trkpt lat="29.5292482339" lon="35.0053609069"><ele>30.90</ele><time>2015-11-27T16:06:23Z</time></trkpt><trkpt lat="29.5293028001" lon="35.0052414648"><ele>30.90</ele><time>2015-11-27T16:06:41Z</time></trkpt><trkpt lat="29.5293735433" lon="35.0051503535"><ele>30.42</ele><time>2015-11-27T16:06:56Z</time></trkpt><trkpt lat="29.5294142794" lon="35.0050946977"><ele>28.98</ele><time>2015-11-27T16:07:10Z</time></trkpt><trkpt lat="29.5294986013" lon="35.0050684623"><ele>28.02</ele><time>2015-11-27T16:07:27Z</time></trkpt><trkpt lat="29.5295127667" lon="35.0050858967"><ele>28.02</ele><time>2015-11-27T16:07:29Z</time></trkpt><trkpt lat="29.5295224059" lon="35.0050927699"><ele>28.02</ele><time>2015-11-27T16:07:30Z</time></trkpt><trkpt lat="29.5295305364" lon="35.0051009841"><ele>28.02</ele><time>2015-11-27T16:07:31Z</time></trkpt><trkpt lat="29.5297268406" lon="35.0052782614"><ele>28.50</ele><time>2015-11-27T16:07:50Z</time></trkpt><trkpt lat="29.5298712607" lon="35.0054411218"><ele>28.50</ele><time>2015-11-27T16:08:08Z</time></trkpt><trkpt lat="29.5299320295" lon="35.0054805167"><ele>28.50</ele><time>2015-11-27T16:08:14Z</time></trkpt><trkpt lat="29.5299682394" lon="35.0055033993"><ele>28.50</ele><time>2015-11-27T16:08:27Z</time></trkpt><trkpt lat="29.5299819019" lon="35.0055204146"><ele>28.50</ele><time>2015-11-27T16:08:29Z</time></trkpt><trkpt lat="29.5300979912" lon="35.0056391023"><ele>28.50</ele><time>2015-11-27T16:08:46Z</time></trkpt><trkpt lat="29.5301338658" lon="35.0056339893"><ele>28.50</ele><time>2015-11-27T16:08:57Z</time></trkpt><trkpt lat="29.5301436726" lon="35.0056252722"><ele>28.50</ele><time>2015-11-27T16:08:58Z</time></trkpt><trkpt lat="29.5301547367" lon="35.0056190696"><ele>28.50</ele><time>2015-11-27T16:08:59Z</time></trkpt><trkpt lat="29.5301656332" lon="35.0056125317"><ele>28.50</ele><time>2015-11-27T16:09:00Z</time></trkpt><trkpt lat="29.5302042738" lon="35.0055458117"><ele>27.53</ele><time>2015-11-27T16:09:16Z</time></trkpt><trkpt lat="29.5302118175" lon="35.0054953527"><ele>27.05</ele><time>2015-11-27T16:09:25Z</time></trkpt><trkpt lat="29.5302734245" lon="35.0054481626"><ele>26.57</ele><time>2015-11-27T16:09:44Z</time></trkpt><trkpt lat="29.5303121489" lon="35.0054047443"><ele>26.57</ele><time>2015-11-27T16:09:56Z</time></trkpt><trkpt lat="29.5303863287" lon="35.0054756552"><ele>26.57</ele><time>2015-11-27T16:10:04Z</time></trkpt><trkpt lat="29.5303942077" lon="35.0054842886"><ele>26.57</ele><time>2015-11-27T16:10:05Z</time></trkpt><trkpt lat="29.5304124802" lon="35.0055126194"><ele>26.57</ele><time>2015-11-27T16:10:08Z</time></trkpt><trkpt lat="29.5304194372" lon="35.0055241026"><ele>26.57</ele><time>2015-11-27T16:10:09Z</time></trkpt><trkpt lat="29.5304825529" lon="35.0056085922"><ele>26.57</ele><time>2015-11-27T16:10:17Z</time></trkpt><trkpt lat="29.5304907672" lon="35.0056185666"><ele>27.05</ele><time>2015-11-27T16:10:18Z</time></trkpt><trkpt lat="29.5305714011" lon="35.0057149585"><ele>27.05</ele><time>2015-11-27T16:10:33Z</time></trkpt><trkpt lat="29.5305991452" lon="35.0057062414"><ele>26.57</ele><time>2015-11-27T16:10:54Z</time></trkpt><trkpt lat="29.5306214411" lon="35.0056490768"><ele>26.09</ele><time>2015-11-27T16:11:25Z</time></trkpt><trkpt lat="29.5305952057" lon="35.0056654215"><ele>26.09</ele><time>2015-11-27T16:11:51Z</time></trkpt><trkpt lat="29.5306299906" lon="35.0056489930"><ele>26.09</ele><time>2015-11-27T16:12:17Z</time></trkpt><trkpt lat="29.5306691341" lon="35.0056503341"><ele>25.61</ele><time>2015-11-27T16:12:41Z</time></trkpt><trkpt lat="29.5306801144" lon="35.0057214126"><ele>25.61</ele><time>2015-11-27T16:12:58Z</time></trkpt><trkpt lat="29.5307593234" lon="35.0058866199"><ele>25.61</ele><time>2015-11-27T16:13:13Z</time></trkpt><trkpt lat="29.5307589043" lon="35.0059012044"><ele>26.09</ele><time>2015-11-27T16:13:14Z</time></trkpt><trkpt lat="29.5307346806" lon="35.0061415136"><ele>27.05</ele><time>2015-11-27T16:13:31Z</time></trkpt><trkpt lat="29.5306612551" lon="35.0062616263"><ele>28.02</ele><time>2015-11-27T16:13:47Z</time></trkpt><trkpt lat="29.5306133945" lon="35.0062519033"><ele>28.02</ele><time>2015-11-27T16:13:53Z</time></trkpt><trkpt lat="29.5305283181" lon="35.0062596984"><ele>28.02</ele><time>2015-11-27T16:14:06Z</time></trkpt><trkpt lat="29.5304748416" lon="35.0062901247"><ele>28.50</ele><time>2015-11-27T16:14:19Z</time></trkpt><trkpt lat="29.5304288249" lon="35.0063306931"><ele>28.98</ele><time>2015-11-27T16:14:23Z</time></trkpt><trkpt lat="29.5304000750" lon="35.0063668191"><ele>28.98</ele><time>2015-11-27T16:14:37Z</time></trkpt><trkpt lat="29.5304019190" lon="35.0063810684"><ele>28.50</ele><time>2015-11-27T16:14:49Z</time></trkpt></trkseg></trk></gpx>